[[{"header":{"parameterUnit":"m.s-1","parameterCategory":1,"la1":30.6,"la2":29.2853,"lo1":-89.7004,"lo2":-87.6739,"dy":0.0162,"dx":0.0183,"nx":112,"ny":82,"refTime":"2023-07-10T00:00:00:Z","depth":0,"parameterNumber":2,"parameterNumberName":"U-component_of_WINDS"},"data":[0.0,0.0,0.0,0.0,0.0,0.0,0.0,0.0,0.0,0.0,0.0,0.0,0.0,0.0,0.0,0.0,0.0,0.0,0.0,0.0,0.0,0.0,0.0,0.0,0.0,0.0,0.0,0.0,0.0,0.0,0.0,0.0,0.0,0.0,0.0,0.0,0.0,0.0,0.0,0.0,0.0,0.0,0.0,0.0,0.0,0.0,0.0,0.0,0.0,0.0,0.0,0.0,0.0,0.0,0.0,0.0,0.0,0.0,0.0,0.0,0.0,0.0,0.0,0.0,0.0,0.0,0.0,0.0,0.0,0.0,0.0,0.0,0.0,0.0,0.0,0.0,0.0,0.0,0.0,0.0,0.0,0.0,0.0,0.0,0.0,0.0,0.0,0.0,0.0,0.0,0.0,-3.7922,-3.9368,-4.0096,-4.0096,-4.0096,-3.8802,-3.5785,0.0,0.0,0.0,0.0,0.0,0.0,0.0,0.0,0.0,0.0,0.0,0.0,0.0,0.0,0.0,0.0,0.0,0.0,0.0,0.0,0.0,0.0,0.0,0.0,0.0,0.0,0.0,0.0,0.0,0.0,0.0,0.0,0.0,0.0,0.0,0.0,0.0,0.0,0.0,0.0,0.0,0.0,0.0,0.0,0.0,0.0,0.0,0.0,0.0,0.0,0.0,0.0,0.0,0.0,0.0,0.0,0.0,0.0,0.0,0.0,0.0,0.0,0.0,0.0,0.0,0.0,0.0,0.0,0.0,0.0,0.0,0.0,0.0,0.0,0.0,0.0,0.0,0.0,0.0,0.0,0.0,0.0,0.0,0.0,0.0,0.0,0.0,0.0,0.0,0.0,0.0,0.0,0.0,0.0,0.0,0.0,0.0,0.0,0.0,0.0,0.0,0.0,0.0,0.0,-3.6434,-3.9453,-3.9977,-4.0096,-4.0096,-4.0096,-3.8802,-3.5785,0.0,0.0,0.0,0.0,0.0,0.0,0.0,0.0,0.0,0.0,0.0,0.0,0.0,0.0,0.0,0.0,0.0,0.0,0.0,0.0,0.0,0.0,0.0,0.0,0.0,0.0,0.0,0.0,0.0,0.0,0.0,0.0,0.0,0.0,0.0,0.0,0.0,0.0,0.0,0.0,0.0,0.0,0.0,0.0,0.0,0.0,0.0,0.0,0.0,0.0,0.0,0.0,0.0,0.0,0.0,0.0,0.0,0.0,0.0,0.0,0.0,0.0,0.0,0.0,0.0,0.0,0.0,0.0,0.0,0.0,0.0,0.0,0.0,0.0,0.0,0.0,0.0,0.0,0.0,0.0,0.0,0.0,0.0,0.0,0.0,0.0,0.0,0.0,0.0,0.0,0.0,0.0,0.0,0.0,0.0,0.0,0.0,0.0,0.0,0.0,0.0,0.0,0.0,-3.6654,-3.8565,-3.996,-4.0096,-4.0096,-4.0096,-4.0096,-3.8802,-3.5785,-3.56,0.0,0.0,0.0,0.0,0.0,0.0,0.0,0.0,0.0,0.0,0.0,0.0,0.0,0.0,0.0,0.0,0.0,0.0,0.0,0.0,0.0,0.0,0.0,0.0,0.0,0.0,0.0,0.0,0.0,0.0,0.0,0.0,0.0,0.0,0.0,0.0,0.0,0.0,0.0,0.0,0.0,0.0,0.0,0.0,0.0,0.0,0.0,0.0,0.0,0.0,0.0,0.0,0.0,0.0,0.0,0.0,0.0,0.0,0.0,0.0,0.0,0.0,0.0,0.0,0.0,0.0,0.0,0.0,0.0,0.0,0.0,0.0,0.0,0.0,0.0,0.0,0.0,0.0,0.0,0.0,0.0,0.0,0.0,0.0,0.0,0.0,0.0,0.0,0.0,0.0,0.0,0.0,0.0,0.0,0.0,0.0,0.0,0.0,0.0,0.0,0.0,0.0,-3.8471,-3.991,-4.0079,-4.0096,-4.0096,-4.0096,-4.0096,-3.8802,-3.5785,-3.56,0.0,0.0,0.0,0.0,0.0,0.0,0.0,0.0,0.0,0.0,0.0,0.0,0.0,0.0,0.0,0.0,0.0,0.0,0.0,0.0,0.0,0.0,0.0,0.0,0.0,0.0,0.0,0.0,0.0,0.0,0.0,0.0,0.0,0.0,0.0,0.0,0.0,0.0,0.0,0.0,0.0,0.0,0.0,0.0,0.0,0.0,0.0,0.0,0.0,0.0,0.0,0.0,0.0,0.0,0.0,0.0,0.0,0.0,0.0,0.0,0.0,0.0,0.0,0.0,0.0,0.0,0.0,0.0,0.0,0.0,0.0,0.0,0.0,0.0,0.0,0.0,0.0,0.0,0.0,0.0,0.0,0.0,0.0,0.0,0.0,0.0,0.0,0.0,0.0,0.0,0.0,0.0,0.0,0.0,0.0,0.0,0.0,0.0,0.0,0.0,0.0,0.0,-3.7669,-3.9326,-4.0028,-4.0096,-4.0096,-4.0096,-4.0096,-3.8802,-3.5785,-3.56,0.0,0.0,0.0,0.0,0.0,0.0,0.0,0.0,0.0,0.0,0.0,0.0,0.0,0.0,0.0,0.0,0.0,0.0,0.0,0.0,0.0,0.0,0.0,0.0,0.0,0.0,0.0,0.0,0.0,0.0,0.0,0.0,0.0,0.0,0.0,0.0,0.0,0.0,0.0,0.0,0.0,0.0,0.0,0.0,0.0,0.0,0.0,0.0,0.0,0.0,0.0,0.0,0.0,0.0,0.0,0.0,0.0,0.0,0.0,0.0,0.0,0.0,0.0,0.0,0.0,0.0,0.0,0.0,0.0,0.0,0.0,0.0,0.0,0.0,0.0,0.0,0.0,0.0,0.0,0.0,0.0,0.0,0.0,0.0,0.0,0.0,0.0,0.0,0.0,0.0,0.0,0.0,0.0,0.0,0.0,0.0,0.0,0.0,0.0,0.0,0.0,0.0,-3.799,-3.9791,0.0,-4.0096,-4.0096,-4.0096,-4.0096,-3.8802,-3.5785,0.0,0.0,0.0,0.0,0.0,0.0,0.0,0.0,0.0,0.0,0.0,0.0,0.0,0.0,0.0,0.0,0.0,0.0,0.0,0.0,0.0,0.0,0.0,0.0,0.0,0.0,0.0,0.0,0.0,0.0,0.0,0.0,0.0,0.0,0.0,0.0,0.0,0.0,0.0,0.0,0.0,0.0,0.0,0.0,0.0,0.0,0.0,0.0,0.0,0.0,0.0,0.0,0.0,0.0,0.0,0.0,0.0,0.0,0.0,0.0,0.0,0.0,0.0,0.0,0.0,0.0,0.0,0.0,0.0,0.0,0.0,0.0,0.0,0.0,0.0,0.0,0.0,0.0,0.0,0.0,0.0,0.0,0.0,0.0,0.0,0.0,0.0,0.0,0.0,0.0,0.0,0.0,0.0,0.0,0.0,0.0,0.0,0.0,0.0,0.0,0.0,0.0,-3.56,-3.8227,-4.0096,0.0,-4.0096,-4.0096,-4.0096,-4.0096,-3.8725,-3.547,0.0,0.0,0.0,0.0,0.0,0.0,0.0,0.0,0.0,0.0,0.0,0.0,0.0,0.0,0.0,0.0,0.0,0.0,0.0,0.0,0.0,0.0,0.0,0.0,0.0,0.0,0.0,0.0,0.0,0.0,0.0,0.0,0.0,0.0,0.0,0.0,0.0,0.0,0.0,0.0,0.0,0.0,0.0,0.0,0.0,0.0,0.0,0.0,0.0,0.0,0.0,0.0,0.0,0.0,0.0,0.0,0.0,0.0,0.0,0.0,0.0,0.0,0.0,0.0,0.0,0.0,0.0,0.0,0.0,0.0,0.0,0.0,0.0,0.0,0.0,0.0,0.0,0.0,0.0,0.0,0.0,0.0,0.0,0.0,0.0,0.0,0.0,0.0,0.0,0.0,0.0,0.0,0.0,0.0,0.0,0.0,0.0,0.0,0.0,0.0,0.0,0.0,-3.56,-3.8227,-4.0096,-4.0113,-4.0096,-4.0096,-4.0113,-4.0096,-3.8505,0.0,0.0,0.0,0.0,0.0,0.0,0.0,0.0,0.0,0.0,0.0,0.0,0.0,0.0,0.0,0.0,0.0,0.0,0.0,0.0,0.0,0.0,0.0,0.0,0.0,0.0,0.0,0.0,0.0,0.0,0.0,0.0,0.0,0.0,0.0,0.0,0.0,0.0,0.0,0.0,0.0,0.0,0.0,0.0,0.0,0.0,0.0,0.0,0.0,0.0,0.0,0.0,0.0,0.0,0.0,0.0,0.0,0.0,0.0,0.0,0.0,0.0,0.0,0.0,0.0,0.0,0.0,0.0,0.0,0.0,0.0,0.0,0.0,0.0,0.0,0.0,0.0,0.0,0.0,0.0,0.0,0.0,0.0,0.0,0.0,0.0,0.0,0.0,0.0,0.0,0.0,0.0,0.0,0.0,0.0,0.0,0.0,0.0,0.0,0.0,0.0,0.0,0.0,-3.56,-3.8227,-4.0316,-4.0815,-4.0417,-4.0316,-4.0832,-4.0417,-3.8717,-3.5487,0.0,0.0,0.0,0.0,0.0,0.0,0.0,0.0,0.0,0.0,0.0,0.0,0.0,0.0,0.0,0.0,0.0,0.0,0.0,0.0,0.0,0.0,0.0,0.0,0.0,0.0,0.0,0.0,0.0,0.0,0.0,0.0,0.0,0.0,0.0,0.0,0.0,0.0,0.0,0.0,0.0,0.0,0.0,0.0,0.0,0.0,0.0,0.0,0.0,0.0,0.0,0.0,0.0,0.0,0.0,0.0,0.0,0.0,0.0,0.0,0.0,0.0,0.0,0.0,0.0,0.0,0.0,0.0,0.0,0.0,0.0,0.0,0.0,0.0,0.0,0.0,0.0,0.0,0.0,0.0,0.0,0.0,0.0,0.0,0.0,0.0,0.0,0.0,0.0,0.0,0.0,0.0,0.0,0.0,0.0,0.0,0.0,0.0,0.0,0.0,0.0,0.0,-3.5165,-3.8311,-4.0696,-4.1153,-4.1068,-4.0914,-4.0769,-4.0609,-3.9118,-3.5796,0.0,0.0,0.0,0.0,0.0,0.0,0.0,0.0,0.0,0.0,0.0,0.0,0.0,0.0,0.0,0.0,0.0,0.0,0.0,0.0,0.0,0.0,0.0,0.0,0.0,0.0,0.0,0.0,0.0,0.0,0.0,0.0,0.0,0.0,0.0,0.0,0.0,0.0,0.0,0.0,0.0,0.0,0.0,0.0,0.0,0.0,0.0,0.0,0.0,0.0,0.0,0.0,0.0,0.0,0.0,0.0,0.0,0.0,0.0,0.0,0.0,0.0,0.0,0.0,0.0,0.0,0.0,0.0,0.0,0.0,0.0,0.0,0.0,0.0,0.0,0.0,0.0,0.0,0.0,0.0,0.0,0.0,0.0,0.0,0.0,0.0,0.0,0.0,0.0,0.0,0.0,0.0,0.0,0.0,0.0,0.0,0.0,0.0,0.0,0.0,0.0,0.0,-3.4489,-3.8413,-4.1238,-4.1288,-4.1844,-4.1634,-4.0304,-4.0685,-3.9458,-3.5825,0.0,0.0,0.0,0.0,0.0,0.0,0.0,0.0,0.0,0.0,0.0,0.0,0.0,0.0,0.0,0.0,0.0,0.0,0.0,0.0,0.0,0.0,0.0,0.0,0.0,0.0,0.0,0.0,0.0,0.0,0.0,0.0,0.0,0.0,0.0,0.0,0.0,0.0,0.0,0.0,0.0,0.0,0.0,0.0,0.0,0.0,0.0,0.0,0.0,0.0,0.0,0.0,0.0,0.0,0.0,0.0,0.0,0.0,0.0,0.0,-3.845,0.0,0.0,0.0,0.0,0.0,0.0,0.0,0.0,0.0,0.0,0.0,0.0,0.0,0.0,0.0,0.0,0.0,0.0,0.0,0.0,0.0,0.0,0.0,0.0,0.0,0.0,0.0,0.0,0.0,0.0,0.0,0.0,0.0,0.0,0.0,0.0,0.0,0.0,0.0,0.0,0.0,-3.4489,-3.8413,-4.1424,-4.1999,-4.1593,-4.1175,-4.0986,-3.9944,-3.8246,-3.5754,0.0,0.0,0.0,0.0,0.0,0.0,0.0,0.0,0.0,0.0,0.0,0.0,0.0,0.0,0.0,0.0,0.0,0.0,0.0,0.0,0.0,0.0,0.0,0.0,0.0,0.0,0.0,0.0,0.0,0.0,0.0,0.0,0.0,0.0,0.0,0.0,0.0,0.0,0.0,0.0,0.0,0.0,0.0,0.0,0.0,0.0,0.0,0.0,0.0,0.0,0.0,0.0,0.0,0.0,0.0,0.0,0.0,0.0,0.0,0.0,0.0,-3.8964,0.0,0.0,0.0,0.0,0.0,0.0,0.0,0.0,0.0,0.0,0.0,0.0,0.0,0.0,0.0,0.0,0.0,0.0,0.0,0.0,0.0,0.0,0.0,0.0,0.0,0.0,0.0,0.0,0.0,0.0,0.0,0.0,0.0,0.0,0.0,0.0,0.0,0.0,0.0,0.0,-3.4945,-3.8954,-4.2016,-4.276,-4.2758,-4.2282,-4.1219,-4.0401,-3.8985,-3.6702,-3.5304,0.0,0.0,0.0,0.0,0.0,0.0,0.0,0.0,0.0,0.0,0.0,0.0,0.0,0.0,0.0,0.0,0.0,0.0,0.0,0.0,0.0,0.0,0.0,0.0,0.0,0.0,0.0,0.0,0.0,0.0,0.0,0.0,0.0,0.0,0.0,0.0,0.0,0.0,0.0,0.0,0.0,0.0,0.0,0.0,0.0,0.0,0.0,0.0,0.0,0.0,0.0,0.0,0.0,0.0,0.0,-4.2379,-4.3039,-4.2983,-4.2379,-4.2763,-4.2396,-4.1462,0.0,0.0,0.0,0.0,0.0,0.0,0.0,0.0,0.0,0.0,0.0,0.0,0.0,0.0,0.0,0.0,0.0,0.0,0.0,0.0,0.0,0.0,0.0,0.0,0.0,-3.6174,-3.6073,0.0,0.0,0.0,0.0,0.0,0.0,0.0,0.0,0.0,0.0,0.0,0.0,-3.543,-3.9631,-4.2672,-4.3143,-4.3754,-4.3247,-4.0974,-4.072,-3.9786,-3.7541,-3.5906,-3.4872,0.0,0.0,0.0,0.0,0.0,0.0,0.0,0.0,0.0,0.0,0.0,0.0,0.0,0.0,0.0,0.0,0.0,0.0,0.0,0.0,0.0,0.0,0.0,0.0,0.0,0.0,0.0,0.0,0.0,0.0,0.0,0.0,-3.9065,-4.15,0.0,0.0,0.0,0.0,0.0,0.0,0.0,0.0,0.0,0.0,0.0,0.0,0.0,0.0,-4.2689,-4.4249,-4.5081,-4.5171,-4.6788,-4.7481,-4.7352,-4.7462,-4.7462,-4.7278,-4.5993,0.0,-4.3167,-4.3057,0.0,0.0,0.0,0.0,0.0,0.0,0.0,0.0,0.0,0.0,0.0,0.0,0.0,0.0,0.0,0.0,0.0,0.0,0.0,0.0,0.0,0.0,-3.9283,-3.9469,-3.8531,-3.7956,0.0,-3.6282,-3.3795,-3.5059,0.0,0.0,0.0,0.0,0.0,0.0,0.0,0.0,-3.5566,-4.0079,-4.3037,-4.2406,-4.2346,-4.1678,-4.0011,-3.9204,-3.8148,-3.6737,-3.6388,-3.5503,-3.3743,-3.4685,0.0,0.0,0.0,0.0,0.0,0.0,0.0,0.0,0.0,0.0,0.0,0.0,0.0,0.0,0.0,0.0,0.0,0.0,0.0,0.0,0.0,0.0,0.0,0.0,0.0,0.0,0.0,0.0,0.0,-3.9084,-4.0739,-4.2335,-4.1335,-4.0035,0.0,0.0,0.0,0.0,0.0,0.0,0.0,0.0,0.0,-4.3893,-4.5036,-4.5957,-4.6628,-4.7706,-4.8324,-4.8595,-4.9342,-4.9719,-4.9719,-4.9719,-4.9719,-4.9682,-4.8967,-4.8251,-4.7425,-4.5112,-4.3424,-4.2158,0.0,0.0,0.0,0.0,0.0,0.0,-3.9239,0.0,0.0,0.0,0.0,0.0,0.0,0.0,0.0,0.0,0.0,0.0,0.0,0.0,0.0,-4.1145,-4.0832,-4.0544,-4.1213,-3.914,-3.7104,0.0,-3.5081,-3.3173,-3.2022,0.0,0.0,0.0,0.0,0.0,-3.8625,-4.1465,-4.325,-4.2868,-4.2759,-4.206,-4.0391,-3.9579,-3.8527,-3.7094,-3.6686,-3.5938,-3.4681,-3.519,-3.4592,0.0,0.0,0.0,0.0,0.0,0.0,0.0,0.0,0.0,0.0,0.0,0.0,0.0,0.0,0.0,0.0,0.0,0.0,0.0,0.0,0.0,0.0,0.0,0.0,0.0,0.0,0.0,0.0,-4.0681,-4.195,-4.3258,-4.2662,-4.1728,0.0,0.0,0.0,0.0,0.0,0.0,-4.4008,-4.5047,-4.6105,-4.7182,-4.86,-4.9811,-5.0697,-5.1302,-5.1763,-5.2063,-5.2046,-5.2032,-5.2032,-5.2032,-5.2032,-5.2013,-5.1591,-5.1408,-5.1151,-4.77,-4.5443,-4.4103,-4.3461,-4.1992,0.0,-4.0451,-4.0634,-4.0912,-4.1566,-4.2321,-4.2864,-4.2116,0.0,-3.9652,-3.8348,0.0,0.0,0.0,0.0,-3.7912,-3.8988,0.0,-4.0942,-4.2033,-4.2286,-4.2286,-4.2286,-4.1136,-3.9901,0.0,-3.7347,-3.5526,-3.424,0.0,0.0,0.0,0.0,-3.9952,-4.1068,-4.2675,-4.3586,-4.3347,-4.3108,-4.2347,-4.0811,-4.0038,-3.9001,-3.7484,-3.6985,-3.6357,-3.5534,-3.5504,-3.504,-3.4023,0.0,0.0,0.0,0.0,0.0,0.0,0.0,0.0,0.0,0.0,0.0,0.0,0.0,0.0,0.0,0.0,0.0,0.0,0.0,0.0,0.0,0.0,0.0,0.0,0.0,0.0,0.0,0.0,0.0,-4.3951,-4.5624,0.0,0.0,0.0,0.0,-4.3028,-4.3682,-4.4913,-4.6615,-4.8259,-4.9894,-5.1519,-5.325,-5.4182,-5.4237,-5.5023,-5.5419,-5.5442,-5.538,-5.5376,-5.5376,-5.5376,-5.5376,-5.5262,-5.3739,-5.3096,-5.2949,-5.1224,-4.9994,-4.9004,-4.6636,-4.5186,-4.4232,-4.2727,-4.2653,-4.3354,-4.357,-4.3823,-4.392,-4.3293,-4.1744,-3.9926,-3.9156,-3.8369,0.0,0.0,-3.8819,-3.9943,-4.0028,-4.1128,-4.2202,-4.2269,-4.2286,-4.2286,-4.2286,-4.1145,-4.0502,0.0,-4.0857,-3.9571,-3.8785,0.0,0.0,-3.6948,-3.9174,-4.1119,-4.1187,-4.3132,-4.4219,-4.3396,-4.2552,-4.1691,-4.0792,-3.9925,-3.8846,-3.7494,-3.7375,-3.6806,-3.5549,-3.5504,-3.5474,-3.5415,-3.4143,0.0,0.0,0.0,0.0,0.0,0.0,0.0,0.0,0.0,0.0,0.0,0.0,0.0,0.0,0.0,0.0,0.0,0.0,0.0,0.0,0.0,0.0,0.0,0.0,0.0,0.0,0.0,0.0,-4.4825,-4.5182,0.0,0.0,-4.5932,-4.6394,-4.6317,-4.8105,-4.9952,-5.1702,-5.2856,-5.3991,-5.5145,-5.6338,-5.6661,-5.605,-5.633,-5.6195,-5.5646,-5.5604,-5.5614,-5.5614,-5.5614,-5.5614,-5.5578,-5.4987,-5.473,-5.4693,-5.4124,-5.2491,-5.027,-4.9407,-4.8875,-4.8563,-4.7976,-4.7957,-4.8213,-4.8274,-4.8064,-4.7433,-4.5418,-4.3263,-4.1474,-4.1187,-4.0933,-4.073,-4.073,-4.1457,-4.2219,-4.2219,-4.2997,-4.3785,-4.3785,-4.3785,-4.3785,-4.3785,-4.3379,-4.3159,-4.3684,-4.1788,-4.0028,-3.9766,-4.1119,-4.1627,-3.9884,-4.1779,-4.3369,-4.3369,-4.4107,-4.427,-4.3396,-4.252,-4.1642,-4.0777,-3.99,-3.902,-3.8093,-3.7644,-3.703,-3.6178,-3.5729,-3.5504,-3.5504,-3.504,-3.3948,0.0,0.0,0.0,0.0,0.0,0.0,0.0,0.0,0.0,0.0,0.0,0.0,0.0,0.0,0.0,0.0,0.0,0.0,0.0,0.0,0.0,0.0,0.0,0.0,0.0,0.0,-4.3489,-4.5759,-4.6278,-4.6691,-4.7268,-4.8355,-4.9375,-5.0202,-5.2068,-5.3818,-5.5261,-5.6126,-5.6838,-5.7415,-5.8119,-5.8167,-5.7545,-5.7531,-5.721,-5.6633,-5.6493,-5.64,-5.64,-5.64,-5.6106,-5.5611,-5.5886,-5.5684,-5.5207,-5.5504,-5.4326,-5.2362,-5.183,-5.1444,-5.1169,-5.0894,-5.0802,-5.0741,-5.0274,-4.9676,-4.8786,-4.6682,-4.5012,-4.3809,-4.3809,-4.3809,-4.3809,-4.3809,-4.4164,-4.4553,-4.4553,-4.4942,-4.5359,-4.5359,-4.5156,-4.4959,-4.4959,-4.4378,-4.3988,-4.4513,-4.299,-4.1467,-4.0933,-4.2066,-4.254,-4.1052,-4.2127,-4.3091,-4.3064,-4.3532,-4.3608,-4.3019,-4.2384,-4.1772,-4.118,-3.9669,-3.8631,-3.8407,-3.7375,-3.6686,-3.6492,-3.5415,-3.4831,-3.4831,-3.4397,-3.3514,-3.2168,0.0,0.0,0.0,0.0,0.0,0.0,0.0,0.0,0.0,0.0,0.0,0.0,0.0,0.0,0.0,0.0,0.0,0.0,0.0,0.0,0.0,0.0,0.0,-4.1758,-4.3316,-4.5047,-4.6817,-4.9202,-5.0731,-5.077,-5.2299,-5.3626,-5.4472,-5.5299,-5.6145,-5.7041,-5.7838,-5.828,-5.8338,-5.8654,-5.8811,-5.8816,-5.8819,-5.8769,-5.8747,-5.8308,-5.807,-5.807,-5.8052,-5.7189,-5.5739,-5.651,-5.5959,-5.4564,-5.5335,-5.5669,-5.5464,-5.3904,-5.2784,-5.1977,-5.1206,-5.0912,-5.0696,-4.9347,-4.8467,-4.7761,-4.7089,-4.6861,-4.6786,-4.6786,-4.6786,-4.6786,-4.6786,-4.6786,-4.6786,-4.6786,-4.6786,-4.6786,-4.6786,-4.6244,-4.5737,-4.5737,-4.3995,-4.2861,-4.4395,-4.4682,-4.4192,-4.2625,-4.2354,-4.1907,-4.0468,-4.0248,0.0,-4.0231,-4.1491,-4.2354,-4.2327,-4.21,-4.1949,-4.1965,-3.9152,-3.7704,-3.8377,-3.6641,-3.5863,-3.6492,-3.4637,-3.3574,-3.3559,-3.2243,-3.2183,-3.3499,0.0,0.0,0.0,0.0,0.0,0.0,0.0,0.0,0.0,0.0,0.0,0.0,0.0,0.0,0.0,0.0,0.0,0.0,0.0,0.0,0.0,0.0,-4.3335,-4.3585,-4.5105,-4.7048,-4.9375,-5.0269,-5.1193,-5.2395,-5.403,-5.5107,-5.5338,-5.6742,-5.7934,-5.8761,-5.7877,-5.7915,-5.9127,-5.9245,-5.9256,-5.9164,-6.0412,-6.0648,-5.9918,-5.9793,-5.974,-5.9722,-5.9153,-5.8639,-5.8198,-5.7831,-5.7428,-5.7024,-5.7244,-5.7005,-5.6363,-5.5335,-5.4436,-5.3702,-5.3482,-5.3041,-5.2412,-5.1456,-5.036,-4.9353,-4.917,-4.8072,-4.6786,-4.6786,-4.6786,-4.6786,-4.6786,-4.6786,-4.6786,-4.6786,-4.6786,-4.6786,-4.6786,-4.665,-4.6498,-4.6498,-4.6007,-4.5686,-4.6109,-4.6194,-4.5703,-4.4225,-4.3972,-4.3836,-4.343,0.0,0.0,-4.3352,-4.3707,-4.3732,-4.3095,-4.155,-4.0673,-4.1019,-3.8796,-3.7898,0.0,-3.8167,-3.7464,-3.7165,-3.6193,-3.5444,-3.4966,-3.3634,-3.314,0.0,0.0,0.0,0.0,0.0,0.0,0.0,0.0,0.0,0.0,0.0,0.0,0.0,0.0,0.0,0.0,0.0,0.0,0.0,0.0,0.0,0.0,-4.372,-4.5759,-4.6836,-4.7855,-4.9163,-5.0991,-5.1856,-5.2799,-5.4126,-5.5453,-5.653,-5.7242,-5.8223,-5.9165,-5.9992,-5.9484,-5.9254,-5.9492,-6.0341,-6.0323,-5.9299,-6.083,-6.1195,-6.0401,-6.0401,-6.0401,-6.0382,-5.9924,-5.9336,0.0,-5.8565,-5.8125,-5.7519,-5.785,-5.7721,0.0,0.0,0.0,0.0,0.0,-5.4106,-5.3531,-5.2433,-5.1351,-5.0405,-5.0092,-4.8974,-4.7716,-4.7716,-4.7276,-4.6786,-4.6786,-4.6346,-4.6007,-4.6633,-4.6786,-4.6955,-4.7564,-4.7496,-4.7259,-4.7259,-4.6532,-4.6041,-4.6667,0.0,0.0,-4.5579,-4.4722,-4.3775,-4.2855,-4.2719,-4.2719,0.0,-4.3234,-4.3423,-4.2939,-4.1645,-4.096,-4.1201,-3.8898,0.0,0.0,0.0,-3.7165,-3.6222,-3.5833,0.0,0.0,0.0,-3.2946,0.0,0.0,0.0,0.0,-3.2378,-3.1795,0.0,0.0,0.0,0.0,0.0,0.0,0.0,0.0,0.0,0.0,0.0,0.0,0.0,0.0,0.0,0.0,-4.5663,-4.8144,-5.0491,-5.1,-5.1395,-5.2115,-5.3645,-5.4953,-5.5761,-5.6733,-5.7896,-5.9396,-5.9588,-6.0031,-6.0896,0.0,0.0,0.0,0.0,-6.159,-5.9601,-6.09,-6.1255,-6.0676,-6.0676,-6.0676,-6.0676,-6.0584,-5.9758,-5.8437,-5.9079,-5.8524,-5.7262,-5.7886,-5.807,-5.7923,-5.7116,-5.6363,-5.5629,-5.473,-5.4454,0.0,0.0,0.0,0.0,-5.0276,-4.9551,-4.9001,-4.9001,-4.8088,-4.7039,-4.7039,-4.6092,-4.541,-4.6701,-4.7039,-4.7378,-4.8697,-4.8511,-4.8007,-4.8007,-4.6481,-4.5495,-4.6786,-4.5974,-4.5495,-4.6701,-4.5179,-4.3098,-4.1044,-4.0739,0.0,-4.0629,-4.1745,-4.2486,-4.229,0.0,0.0,-4.1723,-3.9066,-3.7988,-3.9298,-3.7704,-3.6163,-3.4998,-3.4818,-3.3888,-3.2093,-3.1989,-3.2527,-3.3724,-3.3724,-3.4337,-3.5444,-3.305,-3.2572,0.0,0.0,0.0,0.0,0.0,0.0,0.0,0.0,0.0,0.0,0.0,0.0,0.0,0.0,0.0,-4.5855,-4.8298,-5.0356,-5.151,-5.2876,-5.3818,-5.3972,-5.4876,-5.5799,-5.6676,-5.8107,-5.9146,-5.9473,-6.0146,-6.0935,-6.1812,-6.0685,0.0,-6.1562,-6.2002,-6.1898,-6.1316,-6.2956,-6.328,-6.2321,0.0,0.0,-6.2303,-6.1667,-6.119,-6.0878,-6.0382,-5.9997,-5.9685,-5.9189,-5.8602,-5.7923,-5.7116,-5.6712,-5.64,-5.495,-5.4803,-5.5049,-5.2847,-5.2097,-5.1856,-5.045,-4.9551,-4.9001,-4.9001,-4.8798,0.0,-4.8578,-4.8376,-4.8206,-4.8494,-4.8578,-4.8646,-4.8934,-4.89,-4.8798,-4.8798,-4.846,-4.824,-4.8528,-4.8342,-4.8054,-4.775,-4.6836,-4.5788,-4.4773,-4.4621,-4.4401,-4.3819,-4.3988,-4.3628,-4.2223,-4.1045,-4.0277,-3.9934,-3.8361,-3.7988,-3.9298,-3.8542,-3.7913,-3.7644,-3.6641,-3.5908,-3.5534,-3.5011,-3.4861,-3.5115,-3.5115,-3.525,-3.5489,-3.4981,-3.4876,0.0,0.0,0.0,0.0,0.0,0.0,0.0,0.0,0.0,0.0,0.0,-4.1412,0.0,0.0,-4.5643,-4.7798,-4.9586,-5.1279,-5.2972,-5.3953,-5.4491,-5.4491,-5.5588,-5.6684,-5.7569,-5.8761,-5.9685,-6.0127,-6.0954,-6.1639,-6.2082,-6.207,-6.207,-6.2101,-6.3351,-6.3303,-6.1806,-6.3521,-6.3853,-6.278,-6.278,-6.278,-6.2805,-6.2383,-6.2199,-6.2163,-6.1355,-6.1006,-6.0915,-5.9698,-5.8946,-5.8529,-5.7721,-5.7409,-5.7262,-5.6051,-5.5868,-5.597,-5.4396,-5.3182,-5.2174,-5.1392,-5.0178,-4.9001,-4.9001,-4.8477,-4.7902,-4.7902,-4.7361,-4.6955,-4.7716,-4.7902,-4.8088,-4.8832,-4.9001,-4.9001,-4.9001,-4.9001,-4.9001,-4.9001,-4.9001,-4.8883,-4.8528,-4.8139,-4.7394,-4.5923,-4.5703,-4.5432,-4.4699,-4.4615,-4.4281,-4.338,-4.1918,-4.0928,-4.0712,-3.9278,-3.8706,-3.9379,-3.9095,-3.8751,-3.8407,-3.7778,-3.7285,-3.6956,-3.6626,-3.6462,-3.6462,-3.6462,-3.6462,-3.6462,-3.6462,-3.6297,0.0,0.0,0.0,0.0,0.0,0.0,0.0,0.0,-4.1651,-4.1304,-4.2181,-4.3297,-4.4162,-4.5432,-4.7134,-4.949,-5.0625,-5.1952,-5.4184,-5.4626,-5.4799,-5.4972,-5.6319,-5.7588,-5.8454,-5.9281,-6.0031,-6.0742,-6.162,-6.2178,-6.232,-6.3762,-6.4051,-6.289,-6.482,-6.4738,-6.2333,-6.3709,-6.3853,-6.278,-6.278,-6.278,-6.278,-6.278,-6.278,-6.2768,-6.2108,-6.1741,-6.1502,-6.0199,-5.9478,-5.9129,-5.8492,-5.8143,-5.7923,-5.7281,-5.7042,-5.6891,-5.5976,-5.4478,-5.2891,-5.2298,-5.0893,-4.9386,-4.9097,-4.8173,-4.7225,-4.7225,-4.6363,-4.572,-4.6904,-4.7225,-4.753,-4.8714,-4.9001,-4.9001,-4.9001,-4.9001,-4.9001,-4.9001,-4.9001,-4.9001,-4.9001,-4.9001,-4.8359,-4.643,-4.6007,-4.5652,-4.4919,-4.4699,-4.4542,-4.4355,-4.2939,-4.1869,-4.1511,-4.02,-3.9388,-3.9388,-3.9388,-3.917,-3.8616,-3.8467,-3.8138,-3.7599,-3.7479,-3.7404,-3.7404,-3.7404,-3.7404,-3.7404,-3.7539,-3.727,-3.8931,-3.7565,-3.7315,-3.8084,-3.9988,-4.145,0.0,0.0,-4.574,-4.4182,-4.5759,-4.7663,-4.8529,-4.8856,-4.9567,-5.1327,-5.2356,-5.3299,-5.4357,-5.5126,-5.5838,-5.6637,-5.7569,-5.8473,-5.93,-6.0146,-6.0685,-6.0781,-6.162,-6.2397,-6.3128,-6.4089,-6.4878,-6.5455,-6.5743,-6.5326,-6.4124,-6.4313,-6.3853,-6.278,-6.278,-6.278,-6.278,-6.278,-6.278,-6.278,-6.2688,-6.2273,-6.1575,-6.141,-6.0493,-5.9184,-5.9093,-5.8639,-5.7997,-5.7905,-5.7868,-5.767,-5.6255,-5.5616,-5.4971,-5.2285,-5.1246,-5.0782,-4.9416,-4.8883,-4.8748,-4.8748,-4.8646,-4.8545,-4.8714,-4.8748,-4.8798,-4.8968,-4.9001,-4.9001,-4.9001,-4.9001,-4.9001,-4.9001,-4.9001,-4.9001,-4.9001,-4.9001,-4.8697,-4.777,-4.7107,-4.6397,-4.5669,-4.4993,-4.4281,-4.3532,-4.2583,-4.1379,-3.9809,-3.9517,-3.9388,-3.9388,-3.9388,-3.9394,-3.9305,-3.8721,-3.8347,-3.8287,-3.7704,-3.7404,-3.7404,-3.7404,-3.7404,-3.7419,-3.8003,-3.7928,-4.0335,-4.0315,-4.0758,0.0,-4.3434,-4.4499,-4.4839,-4.599,-4.6812,-4.6265,-4.7236,-4.8341,-4.8944,-4.9475,-5.044,0.0,-5.2972,-5.3664,-5.5011,-5.5915,-5.678,-5.7646,-5.7627,-5.7684,-5.8011,-5.9723,-6.0589,-6.0089,-6.1743,-6.3166,-6.4012,-6.4878,-6.5513,-6.5878,-6.5897,-6.5422,-6.4407,-6.4407,-6.3853,-6.278,-6.278,-6.278,-6.278,-6.278,-6.278,-6.278,-6.278,-6.2622,-6.2273,-6.1796,-6.0933,-5.9869,-5.9368,-5.8712,-5.7997,-5.7997,-5.7997,-5.7918,-5.7277,-5.6208,-5.483,-5.3135,-5.1686,-5.041,-4.9345,-4.9001,-4.9001,-4.9001,-4.9001,-4.9001,-4.9001,-4.9001,-4.9001,-4.9001,-4.9001,-4.9001,-4.9001,-4.9001,-4.9001,-4.9001,-4.9001,-4.9001,-4.9001,-4.9001,-4.89,-4.8595,-4.7547,-4.6532,-4.5788,-4.5043,-4.4064,-4.2676,-4.1772,-4.0724,-3.9517,-3.9388,-3.9388,-3.9388,-3.9388,-3.9388,-3.9388,-3.914,-3.899,-3.899,-3.8721,-3.8571,-3.8571,-3.8571,-3.8571,-3.8586,-3.8856,-3.8841,-4.088,-4.1765,0.0,-4.4767,-4.5707,-4.6423,-4.7537,-4.7561,-4.7399,-4.7644,-4.8145,-4.8677,-4.9086,-4.9863,-5.104,-5.2911,-5.3395,-5.4068,-5.5491,-5.6445,-5.7157,-5.755,-5.7242,-5.6714,-5.6022,-5.8473,-6.0146,-6.0204,-6.2127,-6.3685,-6.4551,-6.5436,-6.5897,-6.5897,-6.5897,-6.5485,-6.459,-6.459,-6.4059,-6.3014,-6.3014,-6.2959,-6.278,-6.278,-6.278,-6.278,-6.278,-6.278,-6.2743,-6.2181,-6.1337,-6.0346,-5.9753,-5.8914,-5.7997,-5.7997,-5.7997,-5.7997,-5.7997,-5.6933,-5.5373,-5.4446,-5.2741,-5.0849,-4.9905,-4.9338,-4.9001,-4.9001,-4.9001,-4.9001,-4.9001,-4.9001,-4.9001,-4.9001,-4.9001,-4.9001,-4.9001,-4.9001,-4.9001,-4.9001,-4.9001,-4.9001,-4.9001,-4.9001,-4.8934,-4.8731,-4.7614,-4.6599,-4.6075,-4.4973,-4.3575,-4.1836,-4.108,-4.0343,-3.9481,-3.9388,-3.9388,-3.9388,-3.9388,-3.9388,-3.9388,-3.9388,-3.9388,-3.9388,-3.9388,-3.9388,-3.9388,-3.9388,-3.9388,-3.9388,-3.9388,-3.9388,-3.9681,0.0,-4.0786,-4.3718,-4.5084,-4.5946,-4.6835,-4.7622,-4.8169,-4.8169,-4.8862,-4.958,-4.9993,-5.0715,-5.1701,-5.2988,-5.3914,-5.4741,-5.5568,-5.6445,-5.6695,-5.5876,-5.6503,-5.6041,0.0,-5.6376,-5.9396,-6.1851,-6.282,-6.3685,-6.4551,-6.5436,-6.5897,-6.5897,-6.5897,-6.563,-6.5064,-6.5083,-6.4571,-6.3568,-6.3568,-6.3312,-6.278,-6.278,-6.278,-6.278,-6.278,-6.278,-6.278,-6.2762,-6.1832,-6.0401,-6.0382,-5.9391,-5.7997,-5.7997,-5.7997,-5.7997,-5.7997,-5.7955,-5.7656,-5.6205,-5.4683,-5.3119,-5.1673,-5.018,-4.9001,-4.9001,-4.9001,-4.9001,-4.9001,-4.9001,-4.9001,-4.9001,-4.9001,-4.9001,-4.9001,-4.9001,-4.9001,-4.9001,-4.9001,-4.9001,-4.9001,-4.9001,-4.8765,-4.8024,-4.7293,-4.6786,-4.6752,-4.4773,-4.2676,-4.0912,-4.0724,-4.0343,-3.9481,-3.9388,-3.9388,-3.9388,-3.9388,-3.9388,-3.9388,-3.9388,-3.9388,-3.9388,-3.9388,-3.9388,-3.9388,-3.9388,-3.9388,-3.9388,-3.9388,-3.9388,-3.9822,0.0,-4.3441,-4.5601,-4.6573,-4.7311,-4.8418,-4.8461,-4.8334,-4.8597,-4.7853,-4.7311,-4.7937,-4.8122,-4.8828,-5.0763,-5.1855,-5.3111,-5.5039,-5.5773,-5.6453,-5.7319,-5.7165,0.0,0.0,0.0,0.0,-5.9511,-6.1897,-6.3935,-6.5397,-6.5743,-6.5897,-6.5897,-6.5897,-6.563,-6.5115,-6.5099,-6.4589,-6.359,-6.3238,-6.2965,-6.278,-6.278,-6.278,-6.278,-6.278,-6.278,-6.2768,-6.2218,-6.1374,-6.0346,-5.9813,-5.8951,-5.7997,-5.7997,-5.7997,-5.7997,-5.7997,-5.7679,-5.7107,-5.6118,-5.443,-5.2601,-5.161,-5.0227,-4.9001,-4.9001,-4.9001,-4.9001,-4.9001,-4.9001,-4.9001,-4.9001,-4.9001,-4.9001,-4.9001,-4.9001,-4.9001,-4.9001,-4.9001,-4.9001,-4.9001,-4.9001,-4.8578,-4.7344,-4.6532,-4.5681,-4.4614,-4.3264,-4.1997,-4.0811,-4.0185,-3.9737,-3.9409,-3.9388,-3.9388,-3.9388,-3.9388,-3.9388,-3.9388,-3.9388,-3.9388,-3.9388,-3.9388,-3.9388,-3.9388,-3.9388,-3.9388,-3.9388,-3.9388,-3.9388,-4.1198,-4.3146,-4.527,-4.7037,-4.7694,-4.8116,-4.8901,-4.8657,-4.8383,-4.8621,-4.7647,-4.678,-4.6799,-4.6937,-4.7665,-4.9559,-5.0742,-5.229,-5.4758,-5.5971,-5.6799,-5.7319,-5.7434,0.0,0.0,0.0,0.0,-5.9146,-6.1185,-6.3166,-6.4878,-6.4974,-6.5263,-6.5878,-6.5897,-6.5736,-6.5384,-6.5403,-6.4885,-6.3892,-6.3144,-6.278,-6.278,-6.278,-6.2493,-6.1979,-6.2542,-6.2303,-6.1514,-6.1575,-6.097,-5.9924,-5.9386,-5.8712,-5.7997,-5.7997,-5.7997,-5.7997,-5.7997,-5.7703,-5.7211,-5.6734,-5.4873,-5.2693,-5.2221,-5.0636,-4.9001,-4.9001,-4.9001,-4.9001,-4.9001,-4.9001,-4.9001,-4.9001,-4.9001,-4.9001,-4.9001,-4.9001,-4.9001,-4.9001,-4.9001,-4.9001,-4.9001,-4.8562,-4.7885,-4.6938,-4.594,-4.4704,-4.3035,-4.2363,-4.1543,-4.0378,-3.9737,-3.9388,-3.9388,-3.9388,-3.9388,-3.9388,-3.9388,-3.9388,-3.9388,-3.9388,-3.9388,-3.9388,-3.9388,-3.9388,-3.9388,-3.9388,-3.9388,-3.9388,-3.9388,-3.9388,-4.3492,-4.5091,-4.6233,-4.7905,-4.8306,-4.8306,-4.8306,-4.8306,-4.8288,-4.8196,-4.8086,-4.7611,0.0,0.0,-4.7785,-4.9135,-5.0443,-5.2132,-5.461,-5.6766,-5.7505,0.0,0.0,0.0,0.0,0.0,0.0,-6.0685,0.0,-6.1666,-6.3339,-6.3435,-6.4185,-6.584,-6.5865,-6.5853,-6.5853,-6.5795,-6.5295,-6.4351,-6.3312,-6.278,-6.278,-6.278,-6.1979,-6.0621,-6.2108,-6.1423,-5.9423,-6.0878,-6.0584,-5.9184,-5.9148,-5.8676,-5.7997,-5.7997,-5.7997,-5.7997,-5.7997,-5.7997,-5.7997,-5.7997,-5.5944,-5.3486,-5.3486,-5.139,-4.9001,-4.9001,-4.9001,-4.9001,-4.9001,-4.9001,-4.9001,-4.9001,-4.9001,-4.9001,-4.9001,-4.9001,-4.9001,-4.9001,-4.9001,-4.8984,-4.8951,-4.775,-4.6786,-4.6735,-4.5529,-4.396,-4.2221,-4.1997,-4.1313,-3.9574,-3.9388,-3.9388,-3.9388,-3.9388,-3.9388,-3.9388,-3.9388,-3.9388,-3.9388,-3.9388,-3.9388,-3.9388,-3.9388,-3.9388,-3.9388,-3.9388,-3.9388,-3.9388,-3.9388,-3.9388,-4.3866,-4.5795,-4.7738,-4.8198,-4.8306,-4.8306,-4.8306,-4.8306,-4.7957,-4.6764,-4.5076,-4.3431,0.0,0.0,0.0,-4.5733,-4.7144,0.0,-5.2723,-5.4475,0.0,-5.6167,0.0,-5.8898,-5.945,-5.9896,0.0,0.0,-6.1954,-6.3416,-6.5147,-6.5243,-6.5436,-6.5878,-6.5508,-6.5306,-6.5306,-6.4554,-6.4058,-6.3808,-6.3139,-6.278,-6.278,-6.278,-6.256,-6.2199,-6.1998,-6.1557,-6.0933,-6.0144,-5.9551,-5.9129,-5.8547,-5.818,-5.7997,-5.7997,-5.7997,-5.7997,-5.7997,-5.7997,-5.7997,-5.7997,-5.5944,-5.3486,-5.3486,-5.139,-4.9001,-4.9001,-4.9001,-4.9001,-4.9001,-4.9001,-4.9001,-4.9001,-4.9001,-4.9001,-4.9001,-4.9001,-4.9001,-4.9001,-4.9001,-4.8832,-4.8291,-4.7411,-4.6599,-4.6058,-4.5179,-4.396,-4.2221,-4.1997,-4.1313,-3.9574,-3.9388,-3.9388,-3.9388,-3.9388,-3.9388,-3.9388,-3.9388,-3.9388,-3.9388,-3.9388,-3.9388,-3.9388,-3.9388,-3.9388,-3.9388,-3.9388,-3.9388,-3.9388,-3.9388,-3.9388,-4.5892,-4.7302,-4.8532,-4.8345,-4.8306,-4.8122,-4.7407,-4.6966,-4.6269,-4.4654,-4.2965,0.0,-3.9878,0.0,0.0,0.0,0.0,0.0,-5.2043,-5.396,-5.5259,0.0,-5.7725,0.0,-6.0393,-6.0678,-6.1108,0.0,-6.2089,-6.2954,-6.4666,-6.4762,-6.5109,-6.5878,-6.5369,-6.5,-6.4782,-6.3998,-6.359,-6.359,-6.3062,-6.278,-6.278,-6.278,-6.2211,-6.1221,0.0,-6.0805,-5.9483,-5.93,-5.8982,-5.8639,-5.818,-5.7997,-5.7997,-5.7997,-5.7997,-5.7997,-5.7997,-5.7997,-5.7941,-5.7593,-5.5672,-5.3415,-5.3096,-5.1101,-4.9001,-4.9001,-4.9001,-4.9001,-4.9001,-4.9001,-4.9001,-4.9001,-4.9001,-4.9001,-4.9001,-4.9001,-4.9001,-4.9001,-4.8748,-4.8392,-4.7956,-4.7022,-4.6177,-4.5771,-4.506,-4.4121,-4.2754,-4.2221,-4.1313,-3.9574,-3.9388,-3.9388,-3.9388,-3.9388,-3.9388,-3.9388,-3.9388,-3.9388,-3.9388,-3.9388,-3.9388,-3.9388,-3.9388,-3.9388,-3.9388,-3.9388,-3.9388,-3.9388,-3.9388,-3.9388,-4.8205,-4.8737,-4.8745,-4.8402,-4.8306,-4.7939,-4.6544,-4.5443,-4.4232,-4.2635,0.0,-4.0215,-3.8946,-3.9276,-4.0781,-4.403,0.0,-4.7874,-5.1395,-5.3988,-5.5519,-5.5456,-5.7282,-5.8953,-5.9915,-6.0173,-6.1083,-6.297,-6.1761,-6.1741,-6.3538,-6.3647,-6.427,-6.5651,-6.518,-6.4679,-6.4178,-6.3723,-6.3479,-6.3498,-6.3038,-6.2725,-6.2658,-6.2658,-6.1447,-5.9423,0.0,0.0,-5.7226,-5.8505,-5.8639,-5.7997,-5.7997,-5.7997,-5.7997,-5.7997,-5.7997,-5.7997,-5.7997,-5.7923,-5.7721,-5.7042,-5.531,-5.3344,-5.2555,-5.0771,-4.9001,-4.9001,-4.9001,-4.9001,-4.9001,-4.9001,-4.9001,-4.9001,-4.9001,-4.9001,-4.9001,-4.9001,-4.8968,-4.8883,-4.8359,-4.7821,-4.7635,-4.6566,-4.5669,-4.5568,-4.4993,-4.4253,-4.3259,-4.2458,-4.1395,-3.9737,-3.9481,-3.9388,-3.9388,-3.9388,-3.9388,-3.9388,-3.9388,-3.9388,-3.9388,-3.9388,-3.9388,-3.9388,-3.9388,-3.9379,-3.929,-3.929,-3.923,-3.9155,-3.9155,-3.92,-4.7573,-4.7905,-4.8402,-4.8325,-4.8306,-4.8233,-4.7957,-4.6232,0.0,0.0,-4.0065,-3.823,-3.8634,-3.8817,-3.9955,-4.3185,-4.557,0.0,0.0,0.0,-5.4527,0.0,0.0,0.0,0.0,0.0,0.0,0.0,0.0,0.0,-6.5314,-6.5455,-6.5207,-6.468,-6.4138,-6.3615,-6.3091,-6.299,-6.2935,-6.2935,-6.2855,-6.2456,-6.1814,-6.1814,-6.1227,-6.0181,0.0,0.0,-5.8744,-5.8382,-5.8125,-5.7997,-5.7997,-5.7997,-5.7997,-5.7997,-5.7997,-5.7997,-5.7997,-5.7556,-5.6987,-5.6859,-5.531,-5.3344,-5.2555,-5.0771,-4.9001,-4.9001,-4.9001,-4.9001,-4.9001,-4.9001,-4.9001,-4.9001,-4.9001,-4.9001,-4.9001,-4.9001,-4.8832,-4.8193,-4.7973,-4.75,-4.6295,-4.5872,-4.55,-4.4874,-4.4682,-4.4018,-4.2426,-4.2093,-4.1609,-4.0588,-3.9829,-3.9388,-3.9388,-3.9388,-3.9388,-3.9388,-3.9388,-3.9388,-3.9388,-3.9388,-3.9388,-3.9388,-3.9388,-3.914,-3.8571,-3.8571,-3.8287,-3.7764,-3.7764,-3.8048,-4.7371,-4.7681,-4.8306,-4.8306,-4.8306,-4.7865,-4.6177,0.0,0.0,0.0,-3.6266,-3.4573,-3.5385,-3.5881,0.0,-4.2139,-4.4562,0.0,0.0,0.0,0.0,0.0,0.0,0.0,0.0,0.0,0.0,0.0,0.0,0.0,-6.4972,-6.5121,-6.4767,-6.3997,-6.3723,-6.3358,-6.2823,-6.2383,-6.2181,-6.2181,-6.1759,-6.1355,-6.097,-6.097,-6.0548,-5.9758,0.0,0.0,-5.7354,-5.7813,-5.7501,-5.6822,-5.7666,-5.7997,-5.7997,-5.7997,-5.7997,-5.7941,-5.7519,-5.7134,-5.6675,-5.5831,-5.4345,-5.2732,-5.1909,-5.0413,-4.9001,-4.9001,-4.9001,-4.9001,-4.9001,-4.9001,-4.9001,-4.9001,-4.9001,-4.89,-4.8528,-4.8443,-4.8223,-4.7479,-4.7022,-4.6549,-4.5821,-4.5382,-4.4993,-4.4649,-4.4615,-4.4121,-4.2847,-4.2284,-4.1478,-4.015,-3.9646,-3.9388,-3.9388,-3.9388,-3.9388,-3.9388,-3.9388,-3.9388,-3.9388,-3.9388,-3.9388,-3.9388,-3.9065,-3.8721,-3.8392,-3.8048,-3.7719,-3.7404,-3.7404,-3.7584,-4.748,-4.781,-4.8306,-4.8306,-4.8306,-4.7498,-4.4452,-4.1754,0.0,0.0,-3.322,-3.1806,-3.3146,-3.3917,-3.6083,0.0,-4.3516,-4.5755,0.0,0.0,0.0,0.0,0.0,0.0,0.0,0.0,0.0,0.0,0.0,0.0,0.0,-6.3785,-6.3512,-6.309,-6.2959,-6.272,-6.2291,-6.1667,-6.1337,-6.1337,-6.0694,-6.0309,-6.0144,-6.0144,-5.9703,-5.8927,0.0,0.0,0.0,-5.7336,-5.7042,-5.578,-5.7354,-5.7997,-5.7978,-5.7813,-5.774,-5.7629,-5.6822,-5.6436,-5.6088,-5.4803,-5.3435,-5.2139,-5.1342,-5.0135,-4.9001,-4.9001,-4.9001,-4.9001,-4.9001,-4.9001,-4.8968,-4.8798,-4.8765,-4.8578,-4.7834,-4.7682,-4.7462,-4.6701,-4.6109,-4.5652,-4.55,-4.4976,-4.4615,-4.4615,-4.4615,-4.4298,-4.3396,-4.2552,-4.1412,-3.9829,-3.9517,-3.9388,-3.9388,-3.9388,-3.9388,-3.9388,-3.9388,-3.9388,-3.9388,-3.9388,-3.9313,-3.92,-3.8661,-3.8257,-3.7988,-3.7464,-3.7135,-3.7,-3.7,-3.7075,-4.8012,-4.8251,-4.8306,-4.8306,-4.8306,-4.7664,-4.5168,0.0,0.0,-3.6688,-3.3623,-3.2333,-3.5404,-3.6009,-3.7441,-4.1625,0.0,-4.4507,0.0,0.0,0.0,0.0,0.0,0.0,0.0,0.0,0.0,0.0,0.0,0.0,0.0,-6.1727,-6.1479,-6.1416,-6.0964,-6.0669,-6.0621,-6.0548,-6.0511,-6.0511,-6.0438,-6.0034,-5.9294,-5.9294,-5.8877,-5.8107,0.0,0.0,0.0,-5.7336,-5.7042,-5.578,-5.7354,-5.7997,-5.7905,-5.7189,-5.6914,-5.6804,-5.5978,-5.5225,-5.4601,-5.4454,-5.3435,-5.2139,-5.1342,-5.0135,-4.9001,-4.9001,-4.9001,-4.9001,-4.9001,-4.9001,-4.8832,-4.8173,-4.799,-4.7817,-4.7056,-4.6887,-4.6667,-4.594,-4.5754,-4.5483,-4.4835,-4.4649,-4.4615,-4.4615,-4.4615,-4.4298,-4.3396,-4.2552,-4.1642,-4.069,-3.9864,-3.9388,-3.9388,-3.9388,-3.9388,-3.9388,-3.9388,-3.9388,-3.9388,-3.9388,-3.9125,-3.8497,-3.8422,-3.7823,-3.6656,-3.6596,-3.6267,-3.5684,-3.5684,-3.5998,-4.6636,-4.7572,-4.8306,-4.8306,-4.7938,-4.6819,-4.392,0.0,-3.7606,-3.4688,-3.188,-3.065,-3.2926,-3.3348,-3.4683,-3.8744,0.0,0.0,-4.6489,0.0,0.0,0.0,0.0,0.0,0.0,0.0,0.0,0.0,0.0,0.0,0.0,-6.0304,-6.072,-6.072,-6.0525,-6.0401,-6.0401,-5.9924,-5.9661,-5.9661,-5.9189,-5.8786,-5.8492,-5.8492,-5.8309,0.0,0.0,0.0,0.0,-5.6932,-5.6473,-5.4418,-5.6987,-5.7703,-5.7244,-5.6932,-5.6492,-5.5959,-5.5152,-5.4675,-5.4326,-5.3849,-5.3004,-5.203,-5.1304,-5.0407,-4.9521,-4.9107,-4.9001,-4.9001,-4.9001,-4.868,-4.8244,-4.7956,-4.7564,-4.7039,-4.6295,-4.6143,-4.5923,-4.5162,-4.5026,-4.4925,-4.4649,-4.4615,-4.4615,-4.4615,-4.4615,-4.4298,-4.3396,-4.3017,-4.2252,-4.0844,-3.992,-3.9388,-3.9388,-3.9388,-3.9388,-3.9388,-3.9388,-3.923,-3.8811,-3.8796,-3.8482,-3.7808,-3.7434,-3.7,-3.6492,-3.6088,-3.5759,-3.5504,-3.5504,-3.5639,-4.4966,-4.6361,-4.759,-4.759,-4.6819,-4.5241,0.0,0.0,-3.5973,-3.317,-3.0675,-2.9555,-3.1403,-3.1549,-3.2737,0.0,0.0,-4.0689,-4.5388,0.0,0.0,0.0,0.0,0.0,0.0,0.0,0.0,0.0,0.0,0.0,0.0,0.0,-5.9685,-5.9685,-5.9685,-5.9685,-5.9685,-5.9134,-5.8859,-5.8859,-5.8272,-5.774,-5.7299,-5.7776,-5.774,0.0,0.0,0.0,0.0,-5.6877,-5.6235,-5.383,-5.6565,-5.7152,-5.6418,-5.618,-5.5721,-5.5115,-5.4326,-5.4051,-5.3959,-5.339,-5.2853,-5.2266,-5.1368,-5.0581,-4.985,-4.9182,-4.8849,-4.868,-4.868,-4.8139,-4.753,-4.731,-4.6853,-4.6261,-4.5534,-4.5365,-4.5213,-4.4699,-4.4615,-4.4615,-4.4615,-4.4615,-4.4615,-4.4615,-4.4615,-4.4384,-4.3756,-4.3229,-4.2458,-4.1213,-4.006,-3.9388,-3.9388,-3.9388,-3.9388,-3.9388,-3.923,-3.8901,-3.8407,-3.8197,-3.7793,-3.715,-3.6716,-3.6387,-3.6193,-3.5729,-3.5504,-3.5504,-3.5504,-3.5504,-4.3296,-4.469,-4.592,-4.592,-4.4709,-4.2892,0.0,-3.7371,-3.4564,-3.2931,-3.0675,-2.9739,-3.2142,-3.1935,-3.2737,-3.6831,-3.8851,0.0,-4.3203,0.0,0.0,0.0,0.0,0.0,0.0,0.0,0.0,0.0,0.0,0.0,0.0,0.0,-5.8015,-5.8015,-5.8015,-5.8015,-5.8015,-5.8015,-5.8015,-5.8015,-5.7997,-5.7171,-5.5688,-5.7262,0.0,0.0,0.0,0.0,0.0,-5.7317,-5.6565,-5.4546,-5.618,-5.6326,-5.5522,-5.4711,-5.4418,-5.4308,-5.35,-5.3203,-5.3203,-5.3185,-5.3185,-5.2915,-5.1512,-5.0581,-4.985,-4.9182,-4.8477,-4.7906,-4.7906,-4.7361,-4.6616,-4.5906,-4.572,-4.5517,-4.4784,-4.4615,-4.4615,-4.4615,-4.4615,-4.4615,-4.4615,-4.4615,-4.4615,-4.4615,-4.4615,-4.4615,-4.4587,-4.3092,-4.1997,-4.1997,-4.0413,-3.9388,-3.9388,-3.9388,-3.9388,-3.9388,-3.8781,-3.8407,-3.8392,-3.7764,-3.7135,-3.6507,-3.6492,-3.6163,-3.5519,-3.5504,-3.5504,-3.5504,-3.5504,-3.5504,-4.0671,-4.1809,-4.2618,-4.2618,-4.1827,-4.0559,-3.8686,-3.6578,-3.4546,-3.2931,-3.1115,-3.0381,-3.2252,-3.1935,-3.2737,-3.6831,-3.7933,0.0,0.0,0.0,0.0,0.0,0.0,0.0,0.0,0.0,0.0,0.0,0.0,0.0,0.0,0.0,0.0,-5.7997,-5.7997,-5.7997,-5.7997,-5.7997,-5.7997,-5.7997,-5.7997,-5.7152,-5.5669,0.0,0.0,0.0,0.0,0.0,0.0,-5.6528,-5.5757,-5.3739,-5.5354,-5.5482,-5.4748,-5.4491,-5.4051,-5.3555,-5.3277,-5.3185,-5.3185,-5.3185,-5.2853,-5.2289,-5.1368,-5.0929,-5.0395,-4.8703,-4.8075,-4.777,-4.7276,-4.6599,-4.5991,-4.5771,-4.5314,-4.4874,-4.4649,-4.4615,-4.4615,-4.4615,-4.4615,-4.4615,-4.4615,-4.4615,-4.4615,-4.4615,-4.4615,-4.4615,-4.4615,-4.3591,-4.2645,-4.2062,-4.0573,-3.9558,-3.94,-3.899,-3.8721,-3.8721,-3.8093,-3.7524,-3.7105,-3.6896,-3.6477,-3.5833,-3.5818,-3.5714,-3.5504,-3.5504,-3.5504,-3.5504,-3.5504,-3.5504,-3.8102,-3.935,-4.0178,-4.0178,-3.9368,0.0,-3.729,-3.5275,-3.3445,-3.2729,-3.1794,-3.1421,-3.2417,-3.2693,-3.3495,-3.5748,-3.7658,0.0,0.0,0.0,0.0,0.0,0.0,0.0,0.0,0.0,0.0,0.0,0.0,0.0,0.0,0.0,0.0,-5.7556,-5.7831,-5.7997,-5.7997,-5.7997,-5.7997,-5.7997,-5.7685,-5.6693,-5.5188,0.0,0.0,0.0,0.0,0.0,0.0,-5.5923,-5.528,-5.3757,-5.4748,-5.4656,-5.3959,-5.3959,-5.3628,-5.3185,-5.3185,-5.3185,-5.3185,-5.3185,-5.2502,-5.152,-5.0891,-5.0294,-4.9615,-4.8273,-4.7483,-4.6972,-4.6498,-4.5838,-4.528,-4.528,-4.4925,-4.4615,-4.4615,-4.4615,-4.4615,-4.4615,-4.4615,-4.4615,-4.4615,-4.4615,-4.4615,-4.4615,-4.4615,-4.4615,-4.4615,-4.361,-4.2561,-4.1693,-4.0208,-3.9131,-3.8687,-3.8257,-3.8018,-3.8018,-3.7419,-3.6881,-3.6507,-3.6252,-3.5923,-3.5519,-3.5504,-3.5504,-3.5504,-3.5504,-3.5504,-3.5504,-3.5504,-3.5504,0.0,-3.7129,-3.8267,-3.8267,0.0,0.0,-3.6009,-3.3623,0.0,-3.2583,-3.2729,-3.2729,-3.2913,-3.4215,-3.5023,-3.4266,-3.812,0.0,0.0,0.0,0.0,0.0,0.0,0.0,0.0,0.0,0.0,0.0,0.0,0.0,0.0,0.0,0.0,0.0,-5.7446,-5.7831,-5.7831,-5.7831,-5.7776,-5.7648,-5.7024,-5.5812,-5.4179,0.0,0.0,0.0,0.0,0.0,0.0,-5.55,-5.5042,-5.4308,-5.4308,-5.3867,-5.3185,-5.3185,-5.3185,-5.3185,-5.3185,-5.3185,-5.3185,-5.3069,-5.2021,-5.071,-5.009,-4.8965,-4.7877,-4.7767,-4.6769,-4.5703,-4.5652,-4.5111,-4.4615,-4.4615,-4.4615,-4.4615,-4.4615,-4.4615,-4.4615,-4.4615,-4.4615,-4.4615,-4.4615,-4.4615,-4.4615,-4.4615,-4.4615,-4.4581,-4.453,-4.3103,-4.1814,-4.1002,-3.9454,-3.8139,-3.7413,-3.7345,-3.7345,-3.7345,-3.6761,-3.6417,-3.6417,-3.5833,-3.5504,-3.5504,-3.5504,-3.5504,-3.5504,-3.5504,-3.5504,-3.5504,-3.5504,-3.5504,-3.3532,0.0,-3.4032,-3.4032,-3.3293,-3.2706,0.0,-3.2394,-3.1971,-3.4014,-3.394,-3.41,-3.6005,-3.7165,-3.7771,-3.7588,-4.0065,0.0,0.0,0.0,0.0,0.0,0.0,0.0,0.0,0.0,0.0,0.0,0.0,0.0,0.0,0.0,0.0,0.0,-5.6069,-5.6143,-5.6143,-5.6143,-5.5556,-5.4344,-5.5372,-5.4381,0.0,0.0,0.0,0.0,0.0,0.0,0.0,-5.4675,-5.4216,-5.3482,-5.3482,-5.3369,-5.3185,-5.3185,-5.3185,-5.3185,-5.3185,-5.3185,-5.3011,-5.1827,-5.0778,-4.986,-4.9199,-4.8426,-4.7511,-4.6508,-4.5974,-4.5568,-4.4993,-4.4733,-4.4615,-4.4615,-4.4615,-4.4615,-4.4615,-4.4615,-4.4615,-4.4615,-4.4615,-4.4615,-4.4615,-4.4615,-4.4615,-4.4615,-4.4615,-4.4395,-4.3775,-4.2272,-4.0997,-4.0251,-3.8255,-3.692,-3.6735,-3.6701,-3.6701,-3.6701,-3.6088,-3.5744,-3.5744,-3.5594,-3.5504,-3.5504,-3.5504,-3.5504,-3.5504,-3.5504,-3.5504,-3.5504,-3.5504,-3.5504,-3.1733,-3.2307,-3.3225,-3.361,-3.2821,-3.2265,-3.3426,-3.2228,-3.1531,-3.394,-3.41,-3.4449,-3.6574,-3.7606,0.0,0.0,-4.0102,0.0,0.0,0.0,0.0,0.0,0.0,0.0,0.0,0.0,0.0,0.0,0.0,0.0,0.0,0.0,0.0,0.0,0.0,-5.484,-5.5574,-5.5614,-5.4785,-5.3203,-5.4454,-5.3739,0.0,0.0,0.0,0.0,0.0,0.0,-5.3794,-5.3059,-5.2931,-5.3185,-5.3185,-5.3185,-5.3185,-5.3185,-5.3185,-5.3185,-5.3185,-5.2968,-5.2467,-5.1252,-5.0307,-4.9481,-4.852,-4.7716,-4.6978,-4.6302,-4.5654,-4.5094,-4.4716,-4.4615,-4.4615,-4.4615,-4.4615,-4.4615,-4.4615,-4.4615,-4.4615,-4.4615,-4.4615,-4.4615,-4.4615,-4.4282,-4.4045,-4.4045,-4.3741,-4.3369,-4.2963,-4.1538,-4.0289,-3.9528,-3.7701,-3.6392,-3.6061,-3.6028,-3.6028,-3.6028,-3.5699,-3.5504,-3.5504,-3.5504,-3.5504,-3.5504,-3.5504,-3.5504,-3.5504,-3.5504,-3.5504,-3.5504,-3.5504,-3.5504,-3.0577,-3.1971,-3.3807,-3.4619,-3.3518,-3.2693,-3.4417,-3.2326,-3.0815,-3.3605,0.0,0.0,0.0,-3.8098,0.0,0.0,0.0,0.0,0.0,0.0,0.0,0.0,0.0,0.0,0.0,0.0,0.0,0.0,0.0,0.0,0.0,0.0,0.0,0.0,0.0,0.0,-5.5207,-5.5225,-5.4418,-5.2837,-5.3775,-5.3371,-5.1848,-5.2784,0.0,0.0,0.0,0.0,-5.3075,-5.1738,-5.1977,-5.3185,-5.3185,-5.3185,-5.3185,-5.3185,-5.3112,-5.3004,-5.2873,-5.2307,-5.1518,-5.0839,-5.0068,-4.9193,-4.8015,-4.7074,-4.6387,-4.6439,-4.5559,-4.4615,-4.4615,-4.4615,-4.4615,-4.4615,-4.4615,-4.4615,-4.4615,-4.4513,-4.4429,-4.4429,-4.4344,-4.4259,-4.4259,-4.3673,-4.325,-4.325,-4.2692,-4.2252,-4.2151,-4.0938,-3.9783,-3.8979,-3.752,-3.6368,-3.5733,-3.5554,-3.5504,-3.5504,-3.5504,-3.5504,-3.5504,-3.5504,-3.5504,-3.5504,-3.5504,-3.5504,-3.5504,-3.5504,-3.5504,-3.5504,-3.5504,-3.5504,-3.125,-3.1971,-3.2968,-3.3788,-3.2265,-3.1182,-3.3458,-3.1482,-3.0454,-3.4981,0.0,0.0,0.0,-4.3242,-4.4342,0.0,0.0,0.0,0.0,0.0,0.0,0.0,0.0,0.0,0.0,0.0,0.0,0.0,0.0,0.0,0.0,0.0,0.0,0.0,0.0,0.0,0.0,-5.3573,-5.2766,-5.1187,-5.2674,-5.2546,-5.1041,-5.2527,-5.3185,0.0,0.0,0.0,-5.3167,-5.2928,-5.2965,-5.3185,-5.3185,-5.3185,-5.3185,-5.3185,-5.2766,-5.2087,-5.1408,-5.0637,-4.9959,-4.9831,-4.9187,-4.8373,-4.7669,-4.6954,-4.6305,-4.5812,-4.5147,-4.4615,-4.4615,-4.4615,-4.4615,-4.4615,-4.4615,-4.4615,-4.4615,-4.4062,-4.3589,-4.3589,-4.3081,-4.2642,-4.2642,-4.254,-4.2472,-4.2472,-4.2371,-4.2066,-4.1457,-4.0621,-3.9781,-3.8975,-3.7501,-3.6554,-3.6446,-3.5863,-3.5504,-3.5504,-3.5504,-3.5504,-3.5504,-3.5504,-3.5504,-3.5504,-3.5504,-3.5504,-3.5504,-3.5504,-3.5504,-3.5504,-3.5504,-3.5504,-3.0099,-3.0693,-3.1916,-3.4504,-3.3311,-3.2485,-3.6229,-3.3568,-3.1935,-3.7716,0.0,0.0,0.0,0.0,0.0,0.0,0.0,0.0,0.0,0.0,0.0,0.0,0.0,0.0,0.0,0.0,0.0,0.0,0.0,0.0,0.0,0.0,0.0,0.0,0.0,0.0,0.0,-5.2766,-5.1958,-5.082,-5.2435,-5.2362,-5.0857,-5.2472,-5.3185,0.0,0.0,-5.2417,-5.3133,-5.227,-5.2435,-5.3185,-5.3185,-5.2931,-5.2509,-5.2068,-5.1683,-5.1242,-5.0417,-4.9922,-4.9519,-4.904,-4.8636,-4.8191,-4.7593,-4.6932,-4.6264,-4.5673,-4.5079,-4.4615,-4.4615,-4.4615,-4.4615,-4.4615,-4.4265,-4.3944,-4.3944,-4.3352,-4.2811,-4.2811,-4.2523,-4.2286,-4.2286,-4.1965,-4.1711,-4.1711,-4.1356,-4.0993,-4.0646,-3.9588,-3.8719,-3.8351,-3.6935,-3.6006,-3.6006,-3.5701,-3.5504,-3.5504,-3.5504,-3.5504,-3.5504,-3.5504,-3.5504,-3.5504,-3.5504,-3.5504,-3.5504,-3.5504,-3.5504,-3.5504,-3.5504,-3.5504,-2.9225,-2.9721,-3.1091,-3.4798,-3.3862,-3.3421,-3.8689,-3.5406,-3.3099,-3.974,0.0,0.0,0.0,0.0,0.0,0.0,0.0,0.0,0.0,0.0,0.0,0.0,0.0,0.0,0.0,0.0,0.0,0.0,0.0,0.0,0.0,0.0,0.0,0.0,0.0,0.0,0.0,-5.2032,-5.1499,-5.1096,-5.2142,-5.1995,-5.0857,-5.227,-5.2931,-5.2858,-5.183,-5.2068,-5.3075,-5.1683,-5.1811,-5.2913,-5.2711,-5.227,-5.161,-5.082,-5.0508,-5.0398,-4.9572,-4.9317,-4.9206,-4.8526,-4.8306,-4.8191,-4.7593,-4.6932,-4.6264,-4.5673,-4.5079,-4.4615,-4.4615,-4.4615,-4.4564,-4.435,-4.3859,-4.3341,-4.32,-4.2557,-4.2033,-4.2033,-4.1897,-4.1779,-4.1779,-4.1305,-4.0933,-4.0933,-4.0468,-4.0096,-4.0096,-3.8914,-3.8064,-3.8064,-3.6677,-3.5701,-3.5504,-3.5504,-3.5504,-3.5504,-3.5504,-3.5504,-3.5504,-3.5504,-3.5504,-3.5504,-3.5504,-3.5504,-3.5504,-3.5504,-3.5504,-3.5504,-3.5504,-3.5504,-2.9916,-3.0173,-3.0815,-3.3348,-3.2155,-3.2045,-3.8432,-3.5154,-3.2734,-3.9658,0.0,0.0,0.0,0.0,0.0,0.0,0.0,0.0,0.0,0.0,0.0,0.0,0.0,0.0,0.0,0.0,0.0,0.0,0.0,0.0,0.0,0.0,0.0,0.0,0.0,0.0,0.0,-5.093,-5.1224,-5.1903,-5.1261,-5.0912,-5.0839,-5.1683,-5.2087,-5.2105,-5.2747,-5.3075,-5.3133,-5.227,-5.1977,-5.1995,-5.1261,-5.0949,-5.0784,-4.9996,-4.9702,-4.9574,-4.8691,-4.8398,-4.8379,-4.8324,-4.8306,-4.8191,-4.7593,-4.6932,-4.6264,-4.5673,-4.5079,-4.4615,-4.4615,-4.4615,-4.4401,-4.3673,-4.3426,-4.3189,-4.2523,-4.1796,-4.1288,-4.1288,-4.0713,-4.0265,-4.0265,-4.0214,-4.018,-4.018,-4.013,-4.0096,-4.0096,-3.9342,-3.8827,-3.8827,-3.7438,-3.6244,-3.5554,-3.5504,-3.5504,-3.5504,-3.5504,-3.5504,-3.5504,-3.5504,-3.5504,-3.5504,-3.5504,-3.5504,-3.5504,-3.5504,-3.5504,-3.5504,-3.5504,-3.5504,-2.9372,-2.9637,-3.0719,-3.4431,-3.2935,-3.2236,-3.8587,-3.698,-3.6112,-4.2886,-4.2013,0.0,0.0,0.0,0.0,0.0,0.0,0.0,0.0,0.0,0.0,0.0,0.0,0.0,0.0,0.0,0.0,0.0,0.0,0.0,0.0,0.0,0.0,0.0,0.0,0.0,0.0,0.0,-5.0216,-5.051,-5.071,-5.0802,-5.082,-5.1114,-5.1242,-5.1261,-5.1591,-5.172,-5.1683,-5.1371,-5.1242,-5.1169,-5.0362,-5.005,-4.9939,-4.9095,-4.8783,-4.8746,-4.8416,-4.8306,-4.8306,-4.8306,-4.8306,-4.8267,-4.8035,-4.7512,-4.678,-4.5682,-4.496,-4.4386,-4.3952,-4.3859,-4.3656,-4.2895,-4.2371,-4.1965,-4.1677,-4.1035,-4.0536,-4.0536,-4.0299,-4.0096,-4.0096,-4.0096,-4.0096,-4.0096,-4.0096,-4.0096,-4.0096,-3.9411,-3.8908,-3.8908,-3.7526,-3.6306,-3.5554,-3.5504,-3.5504,-3.5504,-3.5504,-3.5504,-3.5504,-3.5504,-3.5504,-3.5504,-3.5504,-3.5504,-3.5504,-3.5504,-3.5504,-3.5504,-3.5504,-3.5504,-2.9187,-2.9393,-3.0481,-3.4129,0.0,0.0,-3.855,-3.7972,-3.792,-4.4213,-4.3925,-4.2323,-4.1552,0.0,0.0,0.0,0.0,0.0,0.0,0.0,0.0,0.0,0.0,0.0,0.0,0.0,0.0,0.0,0.0,0.0,0.0,0.0,0.0,0.0,0.0,0.0,0.0,0.0,-4.9206,-4.9187,-4.9756,-5.0013,-5.0031,-5.0306,-5.0417,-5.0435,-5.0692,-5.0802,-5.0784,-5.0527,-5.0251,-4.9958,-4.9389,-4.9206,-4.9114,-4.8526,-4.8306,-4.8306,-4.8306,-4.8306,-4.8306,-4.8306,-4.8306,-4.8306,-4.8306,-4.7575,-4.6538,-4.5564,-4.4561,-4.3589,-4.2894,-4.2895,-4.2878,-4.2134,-4.1576,-4.1136,-4.0899,-4.0468,-4.0096,-4.0096,-4.0096,-4.0096,-4.0096,-4.0096,-4.0096,-4.0096,-4.0096,-4.0096,-4.0096,-3.9411,-3.8701,-3.823,-3.7247,-3.6306,-3.5554,-3.5504,-3.5504,-3.5504,-3.5504,-3.5504,-3.5504,-3.5504,-3.5504,-3.5504,-3.5504,-3.5504,-3.5504,-3.5504,-3.5504,-3.5504,-3.5504,-3.5504,-2.9625,-2.9611,-3.0026,-3.1851,0.0,0.0,-3.8204,-3.7621,-3.7385,-4.289,-4.6297,-4.7553,-4.5131,0.0,0.0,0.0,0.0,0.0,0.0,0.0,0.0,0.0,0.0,0.0,0.0,0.0,0.0,0.0,0.0,0.0,0.0,0.0,0.0,0.0,0.0,0.0,0.0,0.0,-4.8306,-4.8306,-4.8306,-4.8306,-4.8343,-4.9187,-4.9592,-4.9629,-5.0435,-5.0784,-5.071,-4.9922,-4.9077,-4.8306,-4.8306,-4.8306,-4.8306,-4.8306,-4.8306,-4.8306,-4.8306,-4.8306,-4.8306,-4.8306,-4.8306,-4.8306,-4.8306,-4.6892,-4.529,-4.5273,-4.3836,-4.2144,-4.1373,-4.1728,-4.2083,-4.1373,-4.1187,-4.0984,-4.0265,-4.0096,-4.0096,-4.0096,-4.0096,-4.0096,-4.0096,-4.0096,-4.0096,-4.0096,-4.0096,-4.0096,-4.0096,-3.9411,-3.8298,-3.6783,-3.66,-3.6306,-3.5554,-3.5504,-3.5504,-3.5504,-3.5504,-3.5504,-3.5504,-3.5504,-3.5504,-3.5504,-3.5504,-3.5504,-3.5504,-3.5504,-3.5504,-3.5504,-3.5504,-3.5504,-3.1402,-3.0846,0.0,-3.2424,0.0,0.0,0.0,-3.788,0.0,0.0,-4.5729,-4.5865,-4.3461,0.0,0.0,0.0,0.0,0.0,0.0,0.0,0.0,0.0,0.0,0.0,0.0,0.0,0.0,0.0,0.0,0.0,0.0,0.0,0.0,0.0,0.0,0.0,0.0,0.0,0.0,-4.8306,-4.8306,-4.8306,-4.8324,-4.8563,-4.8691,-4.8691,-4.8948,-4.904,-4.9022,-4.8783,-4.8526,-4.8306,-4.8306,-4.8306,-4.8306,-4.8306,-4.8306,-4.8306,-4.8306,-4.8306,-4.8306,-4.8306,-4.7921,-4.7461,-4.7461,-4.6377,-4.4949,-4.397,-4.297,-4.1965,-4.0747,-4.0603,-4.0705,-4.0485,-4.0434,-4.0383,-4.0146,-4.0096,-4.0096,-4.0096,-4.0096,-4.0096,-4.0096,-4.0096,-4.0096,-4.0096,-4.0096,-4.0096,-4.0096,-3.9411,-3.8525,-3.7544,-3.6934,-3.6306,-3.5554,-3.5504,-3.5504,-3.5504,-3.5504,-3.5504,-3.5504,-3.5504,-3.5504,-3.5504,-3.5504,-3.5504,-3.5504,-3.5504,-3.5504,-3.5504,-3.5504,-3.5504,-3.2508,-3.1982,0.0,-3.4408,-3.5105,-3.5711,-3.7818,0.0,0.0,0.0,0.0,0.0,0.0,0.0,0.0,0.0,0.0,0.0,0.0,0.0,0.0,0.0,0.0,0.0,0.0,0.0,0.0,0.0,0.0,0.0,0.0,0.0,0.0,0.0,0.0,0.0,0.0,0.0,0.0,0.0,-4.7663,-4.781,-4.7828,-4.8159,-4.8306,-4.8306,-4.8306,-4.8306,-4.8306,-4.8306,-4.8306,-4.8306,-4.8306,-4.8306,-4.8306,-4.8306,-4.8306,-4.8306,-4.8306,-4.8306,-4.8251,-4.792,-4.7498,-4.7039,-4.6709,-4.5674,-4.4401,-4.3302,-4.2354,-4.1449,-4.0373,-4.0096,-4.0096,-4.0096,-4.0096,-4.0096,-4.0096,-4.0096,-4.0096,-4.0096,-4.0096,-4.0096,-4.0096,-4.0096,-4.0096,-4.0096,-4.0096,-4.0096,-4.0096,-3.9662,-3.8978,-3.7892,-3.7368,-3.6646,-3.5587,-3.5504,-3.5504,-3.5504,-3.5504,-3.5504,-3.5504,-3.5504,-3.5504,-3.5504,-3.5504,-3.5504,-3.5504,-3.5504,-3.5504,-3.5504,-3.5504,-3.5504,-3.3185,-3.298,0.0,-3.6678,-3.6295,0.0,-4.0372,-4.1784,-4.3024,-4.5904,0.0,0.0,0.0,0.0,0.0,0.0,0.0,0.0,0.0,0.0,0.0,0.0,0.0,0.0,0.0,0.0,0.0,0.0,0.0,0.0,0.0,0.0,0.0,0.0,0.0,0.0,0.0,0.0,0.0,0.0,0.0,-4.6984,-4.7021,-4.7902,-4.8306,-4.8306,-4.8306,-4.8306,-4.8306,-4.8306,-4.8306,-4.8306,-4.8306,-4.8306,-4.8306,-4.8233,-4.8196,-4.8196,-4.8122,-4.8086,-4.7976,-4.7223,-4.6947,-4.6746,-4.6012,-4.4835,-4.36,-4.3049,-4.1883,-4.0709,-4.0229,-4.0096,-4.0096,-4.0096,-4.0096,-4.0096,-4.0096,-4.0096,-4.0096,-4.0096,-4.0096,-4.0096,-4.0096,-4.0096,-4.0096,-4.0096,-4.0096,-4.007,-3.9995,-3.9927,-3.9332,-3.7863,-3.7648,-3.7041,-3.5619,-3.5504,-3.5504,-3.5504,-3.5504,-3.5504,-3.5504,-3.5504,-3.5504,-3.5504,-3.5504,-3.5504,-3.5504,-3.5504,-3.5504,-3.5504,-3.5504,-3.5504,-3.4182,-3.3662,0.0,0.0,-3.4725,-3.6967,-4.2558,-4.3785,-4.4387,0.0,0.0,0.0,0.0,0.0,0.0,0.0,0.0,0.0,0.0,0.0,0.0,0.0,0.0,0.0,0.0,0.0,0.0,0.0,0.0,0.0,0.0,0.0,0.0,0.0,0.0,0.0,0.0,0.0,-4.5902,0.0,-4.6085,-4.6159,-4.6214,-4.7664,-4.8306,-4.8306,-4.8306,-4.8306,-4.8306,-4.8306,-4.8306,-4.8306,-4.8306,-4.8306,-4.8233,-4.759,-4.7351,-4.7259,-4.6636,-4.6416,-4.6397,-4.6214,-4.5736,-4.5168,-4.5021,-4.3696,-4.2228,-4.2083,-4.1198,-4.0254,-4.0121,-4.0096,-4.0096,-4.0096,-4.0096,-4.0096,-4.0096,-4.0096,-4.0096,-4.0096,-4.0096,-4.0096,-4.0096,-4.0096,-4.0096,-4.0096,-4.0096,-3.9859,-3.9236,-3.8652,-3.795,-3.6964,-3.6321,-3.5846,-3.5537,-3.5504,-3.5504,-3.5504,-3.5504,-3.5504,-3.5504,-3.5504,-3.5504,-3.5504,-3.5504,-3.5504,-3.5504,-3.5504,-3.5504,-3.5504,-3.5504,-3.5504,-3.3687,0.0,0.0,-3.5467,0.0,-3.9628,-4.2732,-4.394,0.0,0.0,0.0,0.0,0.0,0.0,0.0,0.0,0.0,0.0,0.0,0.0,0.0,0.0,0.0,0.0,0.0,0.0,0.0,0.0,0.0,0.0,0.0,0.0,0.0,0.0,0.0,0.0,-4.5333,-4.4929,-4.4745,-4.4745,-4.5149,-4.5535,-4.592,-4.6764,-4.715,-4.715,-4.715,-4.715,-4.715,-4.715,-4.715,-4.715,-4.715,-4.715,-4.7095,-4.6691,-4.6544,-4.6471,-4.6049,-4.5902,-4.5847,-4.5461,-4.5039,-4.4582,-4.3944,-4.3019,-4.2121,-4.1534,-4.0943,-4.0424,-4.0171,-4.0096,-4.0096,-4.0096,-4.0096,-4.0096,-4.0096,-4.0096,-4.0096,-4.0096,-4.0096,-4.0096,-4.0096,-4.0096,-4.0096,-4.0096,-4.0096,-3.9952,-3.9516,-3.8816,-3.8019,-3.7279,-3.6492,-3.5894,-3.5537,-3.5504,-3.5504,-3.5504,-3.5504,-3.5504,-3.5504,-3.5504,-3.5504,-3.5504,-3.5504,-3.5504,-3.5504,-3.5504,-3.5504,-3.5504,-3.5504,-3.5504,-3.2486,0.0,-3.5216,-3.8244,-4.0172,0.0,-4.2081,-4.3246,0.0,0.0,0.0,0.0,0.0,0.0,0.0,0.0,0.0,0.0,0.0,0.0,0.0,0.0,0.0,0.0,0.0,0.0,0.0,0.0,0.0,0.0,0.0,0.0,0.0,0.0,0.0,0.0,-4.4488,-4.3828,-4.3515,-4.3515,-4.4176,-4.4837,-4.548,-4.548,-4.5645,-4.5902,-4.5902,-4.5902,-4.5902,-4.5902,-4.5902,-4.5902,-4.5902,-4.5902,-4.5883,-4.5736,-4.5681,-4.5663,-4.5535,-4.548,-4.5369,-4.4709,-4.4488,-4.4271,-4.3063,-4.2616,-4.2322,-4.1223,-4.0833,-4.0655,-4.0229,-4.0096,-4.0096,-4.0096,-4.0096,-4.0096,-4.0096,-4.0096,-4.0096,-4.0096,-4.0096,-4.0096,-4.0096,-4.0096,-4.0096,-4.0096,-4.0096,-4.0045,-3.9901,-3.9315,-3.858,-3.769,-3.6994,-3.6306,-3.5554,-3.5504,-3.5504,-3.5504,-3.5504,-3.5504,-3.5504,-3.5504,-3.5504,-3.5504,-3.5504,-3.5504,-3.5504,-3.5504,-3.5504,-3.5504,-3.5504,-3.5504,0.0,0.0,-3.5216,0.0,-3.8268,-3.8376,0.0,0.0,0.0,0.0,0.0,0.0,0.0,0.0,0.0,0.0,0.0,0.0,0.0,0.0,0.0,0.0,0.0,0.0,0.0,0.0,0.0,0.0,0.0,0.0,0.0,0.0,0.0,0.0,0.0,0.0,-4.3644,-4.3551,-4.3515,-4.3515,-4.3608,-4.3718,-4.3827,-4.3827,-4.458,-4.5902,-4.5902,-4.5902,-4.5902,-4.5902,-4.5902,-4.5902,-4.5902,-4.5902,-4.581,-4.5131,-4.4874,-4.4764,-4.4048,-4.3827,-4.3808,-4.3699,-4.3644,-4.3539,-4.29,-4.2342,-4.1789,-4.1087,-4.0577,-4.0179,-4.0121,-4.0096,-4.0096,-4.0096,-4.0096,-4.0096,-4.0096,-4.0096,-4.0096,-4.0096,-4.0096,-4.0096,-4.0096,-4.0096,-4.0096,-4.0096,-4.0096,-3.985,-3.9139,-3.8978,-3.837,-3.6904,-3.6661,-3.6306,-3.5554,-3.5504,-3.5504,-3.5504,-3.5504,-3.5504,-3.5504,-3.5504,-3.5504,-3.5504,-3.5504,-3.5504,-3.5504,-3.5504,-3.5504,-3.5504,-3.5504,-3.5504,-3.167,-3.2723,-3.429,0.0,-3.82,-3.7658,0.0,0.0,0.0,0.0,0.0,0.0,0.0,0.0,0.0,0.0,0.0,0.0,0.0,0.0,0.0,0.0,0.0,0.0,0.0,0.0,0.0,0.0,0.0,0.0,0.0,-4.2519,-4.2939,-4.3479,-4.3515,0.0,-4.3515,-4.3515,-4.3515,-4.3515,-4.3515,-4.3515,-4.3515,-4.3515,-4.39,-4.4562,-4.4562,-4.4562,-4.4562,-4.4562,-4.4562,-4.4562,-4.4562,-4.4562,-4.4507,-4.4158,-4.403,-4.3975,-4.3608,-4.3515,-4.3515,-4.3515,-4.3515,-4.3339,-4.2462,-4.2,-4.1599,-4.072,-4.0286,-4.0096,-4.0096,-4.0096,-4.0096,-4.0096,-4.0096,-4.0096,-4.0096,-4.0096,-4.0096,-4.0096,-4.0096,-4.0096,-4.0096,-4.0096,-4.0096,-4.0096,-4.0096,-3.9978,-3.961,-3.9166,-3.8481,-3.7381,-3.6873,-3.6306,-3.5554,-3.5504,-3.5504,-3.5504,-3.5504,-3.5504,-3.5504,-3.5504,-3.5504,-3.5504,-3.5504,-3.5504,-3.5504,-3.5504,-3.5504,-3.5504,-3.5504,-3.5504,0.0,0.0,-3.2869,-3.7523,-3.7151,-3.6389,0.0,0.0,0.0,0.0,0.0,0.0,0.0,0.0,0.0,0.0,0.0,0.0,0.0,0.0,0.0,0.0,0.0,0.0,0.0,0.0,0.0,0.0,0.0,0.0,-4.175,-4.2241,-4.2789,-4.3479,-4.3515,-4.3515,-4.3515,-4.3515,-4.3515,-4.3515,-4.3515,-4.3515,-4.3515,-4.3515,-4.3515,-4.3515,-4.3515,-4.3515,-4.3515,-4.3515,-4.3515,-4.3515,-4.3515,-4.3515,-4.3515,-4.3515,-4.3515,-4.3515,-4.3515,-4.3515,-4.3515,-4.3515,-4.3515,-4.3303,-4.2144,-4.181,-4.1556,-4.0434,-4.0096,-4.0096,-4.0096,-4.0096,-4.0096,-4.0096,-4.0096,-4.0096,-4.0096,-4.0096,-4.0096,-4.0096,-4.0096,-4.0096,-4.0096,-4.0096,-4.0096,-4.0096,-4.0096,-4.002,-3.9808,-3.9289,-3.8553,-3.7602,-3.6964,-3.6306,-3.5554,-3.5504,-3.5504,-3.5504,-3.5504,-3.5504,-3.5504,-3.5504,-3.5504,-3.5504,-3.5504,-3.5504,-3.5504,-3.5504,-3.5504,-3.5504,-3.5504,-3.5504,0.0,-3.0243,0.0,-3.4015,0.0,0.0,0.0,0.0,0.0,0.0,0.0,0.0,0.0,0.0,0.0,0.0,0.0,0.0,0.0,0.0,0.0,0.0,0.0,0.0,0.0,0.0,0.0,0.0,0.0,0.0,-4.1746,-4.1832,-4.2346,-4.3462,-4.3515,-4.3515,-4.3515,-4.3515,-4.3515,-4.3515,-4.3515,-4.3515,-4.3515,-4.3515,-4.3515,-4.3515,-4.3515,-4.3515,-4.3515,-4.3515,-4.3515,-4.3515,-4.3515,-4.3515,-4.3515,-4.3515,-4.3515,-4.3515,-4.3515,-4.3515,-4.3515,-4.3515,-4.3515,-4.3303,-4.2144,-4.181,-4.1556,-4.0434,-4.0096,-4.0096,-4.0096,-4.0096,-4.0096,-4.0096,-4.0096,-4.0096,-4.0096,-4.0096,-4.0096,-4.0096,-4.0096,-4.0096,-4.0096,-4.0096,-4.0096,-4.0096,-4.0096,-3.9808,-3.9059,-3.8935,-3.8342,-3.6813,-3.66,-3.6306,-3.5554,-3.5504,-3.5504,-3.5504,-3.5504,-3.5504,-3.5504,-3.5504,-3.5504,-3.5504,-3.5504,-3.5504,-3.5504,-3.5504,-3.5504,-3.5504,-3.5504,-3.5504,0.0,0.0,0.0,-3.3508,0.0,0.0,0.0,0.0,0.0,0.0,0.0,0.0,0.0,0.0,0.0,0.0,0.0,0.0,0.0,0.0,0.0,0.0,0.0,0.0,0.0,0.0,0.0,0.0,0.0,0.0,-4.1126,-4.0324,-4.0787,-4.2922,-4.2976,-4.316,-4.3497,-4.3515,-4.3515,-4.3515,-4.3515,-4.3515,-4.3515,-4.3515,-4.3515,-4.3515,-4.3515,-4.3515,-4.3515,-4.3515,-4.3515,-4.3515,-4.3515,-4.3515,-4.3515,-4.3515,-4.3515,-4.3515,-4.3515,-4.3515,-4.3515,-4.3515,-4.3268,-4.2846,-4.2041,-4.1534,-4.1082,-4.0311,-4.0096,-4.0096,-4.0096,-4.0096,-4.0096,-4.0096,-4.0096,-4.0096,-4.0096,-4.0096,-4.0096,-4.0096,-4.0096,-4.0096,-4.0096,-4.0096,-4.0096,-4.0096,-4.0096,-3.9995,-3.9705,-3.9236,-3.8509,-3.7469,-3.6904,-3.6306,-3.5554,-3.5504,-3.5504,-3.5504,-3.5504,-3.5504,-3.5504,-3.5504,-3.5504,-3.5504,-3.5504,-3.5504,-3.5504,-3.5504,-3.5504,-3.5504,-3.5504,-3.5504,-2.9782,0.0,0.0,0.0,0.0,0.0,0.0,0.0,0.0,0.0,0.0,0.0,0.0,0.0,0.0,0.0,0.0,0.0,0.0,0.0,0.0,0.0,0.0,0.0,0.0,0.0,0.0,0.0,0.0,0.0,-4.0804,-3.9973,-4.0436,-4.2619,-4.2883,-4.3142,-4.3497,-4.3515,-4.3515,-4.3515,-4.3515,-4.3515,-4.3515,-4.3515,-4.3515,-4.3515,-4.3515,-4.3515,-4.3515,-4.3515,-4.3515,-4.3515,-4.3515,-4.3515,-4.3515,-4.3515,-4.3515,-4.3515,-4.3515,-4.3515,-4.3462,-4.3286,-4.2995,-4.2539,-4.1729,-4.1223,-4.078,-4.0237,-4.0096,-4.0096,-4.0096,-4.0096,-4.0096,-4.0096,-4.0096,-4.0096,-4.0096,-4.0096,-4.0096,-4.0096,-4.0096,-4.0096,-4.0096,-4.0096,-4.0096,-4.0096,-4.0096,-3.9995,-3.9731,-3.9005,-3.8246,-3.7485,-3.6692,-3.6023,-3.5537,-3.5504,-3.5504,-3.5504,-3.5504,-3.5504,-3.5504,-3.5504,-3.5504,-3.5504,-3.5504,-3.5504,-3.5504,-3.5504,-3.5504,-3.5504,-3.5504,-3.5504,0.0,0.0,0.0,0.0,0.0,0.0,0.0,0.0,0.0,0.0,0.0,0.0,0.0,0.0,0.0,0.0,0.0,0.0,0.0,0.0,0.0,0.0,0.0,0.0,0.0,0.0,0.0,0.0,0.0,-4.0285,-4.0833,-4.0903,-4.1468,-4.2635,-4.3214,-4.3515,-4.3515,-4.3515,-4.3515,-4.3515,-4.3515,-4.3515,-4.3515,-4.3515,-4.3515,-4.3515,-4.3515,-4.3515,-4.3515,-4.3515,-4.3515,-4.3515,-4.3515,-4.3515,-4.3515,-4.3515,-4.3515,-4.3515,-4.3515,-4.3515,-4.341,-4.2883,-4.2692,-4.246,-4.1268,-4.088,-4.0756,-4.0254,-4.0096,-4.0096,-4.0096,-4.0096,-4.0096,-4.0096,-4.0096,-4.0096,-4.0096,-4.0096,-4.0096,-4.0096,-4.0096,-4.0096,-4.0096,-4.0096,-4.0096,-4.0096,-4.0096,-3.9808,-3.8989,-3.8262,-3.7485,-3.6707,-3.5943,-3.5504,-3.5504,-3.5504,-3.5504,-3.5504,-3.5504,-3.5504,-3.5504,-3.5504,-3.5504,-3.5504,-3.5504,-3.5504,-3.5504,-3.5504,-3.5504,-3.5504,-3.5504,-3.5504,-2.9966,0.0,0.0,0.0,0.0,0.0,0.0,0.0,0.0,0.0,0.0,0.0,0.0,0.0,0.0,0.0,0.0,0.0,0.0,0.0,0.0,0.0,0.0,0.0,0.0,0.0,0.0,0.0,0.0,-3.9052,-4.026,-4.1105,-4.1707,-4.2041,-4.2977,-4.3515,-4.3515,-4.3515,-4.3515,-4.3515,-4.3515,-4.3515,-4.3515,-4.3515,-4.3515,-4.3515,-4.3515,-4.3515,-4.3515,-4.3515,-4.3515,-4.3515,-4.3515,-4.3515,-4.3515,-4.3515,-4.3515,-4.3515,-4.3515,-4.3515,-4.341,-4.2883,-4.2402,-4.1916,-4.1133,-4.0631,-4.0286,-4.0146,-4.0096,-4.0096,-4.0096,-4.0096,-4.0096,-4.0096,-4.0096,-4.0096,-4.0096,-4.0096,-4.0096,-4.0096,-4.0096,-4.0096,-4.0096,-4.0096,-4.0096,-4.0096,-4.0096,-3.9808,-3.8989,-3.8262,-3.7485,-3.6707,-3.5943,-3.5504,-3.5504,-3.5504,-3.5504,-3.5504,-3.5504,-3.5504,-3.5504,-3.5504,-3.5504,-3.5504,-3.5504,-3.5504,-3.5504,-3.5504,-3.5504,-3.5504,-3.5504,-3.5504,-3.0714,-3.056,-3.0507,0.0,0.0,0.0,0.0,-3.2831,0.0,0.0,0.0,0.0,0.0,0.0,0.0,0.0,0.0,0.0,0.0,0.0,0.0,0.0,0.0,0.0,0.0,0.0,0.0,0.0,-3.9292,-3.9191,-4.0045,-4.1173,-4.181,-4.181,-4.2922,-4.3515,-4.3515,-4.3515,-4.3515,-4.3515,-4.3515,-4.3515,-4.3515,-4.3515,-4.3515,-4.3515,-4.3515,-4.3515,-4.3515,-4.3515,-4.3515,-4.3515,-4.3515,-4.3515,-4.3515,-4.3515,-4.3515,-4.3515,-4.3515,-4.3515,-4.3356,-4.258,-4.2101,-4.166,-4.0821,-4.0343,-4.0096,-4.0096,-4.0096,-4.0096,-4.0096,-4.0096,-4.0096,-4.0096,-4.0096,-4.0096,-4.0096,-4.0096,-4.0096,-4.0096,-4.0096,-4.0096,-4.0096,-4.0096,-4.0096,-4.0096,-4.0096,-3.9927,-3.9463,-3.8458,-3.7632,-3.716,-3.6133,-3.5504,-3.5504,-3.5504,-3.5504,-3.5504,-3.5504,-3.5504,-3.5504,-3.5504,-3.5504,-3.5504,-3.5504,-3.5504,-3.5504,-3.5504,-3.5504,-3.5504,-3.5504,-3.5504,-3.1468,-3.1526,-3.1715,0.0,0.0,0.0,-3.119,-3.3237,0.0,0.0,0.0,0.0,0.0,0.0,0.0,0.0,0.0,0.0,0.0,0.0,0.0,0.0,0.0,0.0,0.0,0.0,0.0,-4.0096,-4.0096,-4.0121,-4.0196,-4.1218,-4.1832,-4.1895,-4.294,-4.3515,-4.3515,-4.3515,-4.3515,-4.3515,-4.3515,-4.3515,-4.3515,-4.3515,-4.3515,-4.3515,-4.3515,-4.3515,-4.3515,-4.3515,-4.3515,-4.3515,-4.3515,-4.3515,-4.3515,-4.3515,-4.3515,-4.3515,-4.3515,-4.3515,-4.3321,-4.2185,-4.181,-4.1595,-4.0458,-4.0096,-4.0096,-4.0096,-4.0096,-4.0096,-4.0096,-4.0096,-4.0096,-4.0096,-4.0096,-4.0096,-4.0096,-4.0096,-4.0096,-4.0096,-4.0096,-4.0096,-4.0096,-4.0096,-4.0096,-4.0096,-4.0096,-4.007,-3.9978,-3.8778,-3.7863,-3.769,-3.643,-3.5587,-3.5504,-3.5504,-3.5504,-3.5504,-3.5504,-3.5504,-3.5504,-3.5504,-3.5504,-3.5504,-3.5504,-3.5504,-3.5504,-3.5504,-3.5504,-3.5504,-3.5504,-3.5504,0.0,0.0,0.0,0.0,0.0,0.0,-3.119,-3.1647,0.0,0.0,0.0,0.0,0.0,0.0,0.0,0.0,0.0,0.0,0.0,0.0,0.0,0.0,0.0,0.0,0.0,0.0,-4.0096,-4.0096,-4.0096,-4.0286,-4.0709,-4.1424,-4.2021,-4.25,-4.316,-4.3515,-4.3515,-4.3515,-4.3515,-4.3515,-4.3515,-4.3515,-4.3515,-4.3515,-4.3515,-4.3515,-4.3515,-4.3515,-4.3515,-4.3515,-4.3515,-4.3515,-4.3515,-4.3515,-4.3515,-4.3515,-4.3515,-4.3515,-4.3515,-4.3515,-4.3321,-4.2185,-4.181,-4.1595,-4.0458,-4.0096,-4.0096,-4.0096,-4.0096,-4.0096,-4.0096,-4.0096,-4.0096,-4.0096,-4.0096,-4.0096,-4.0096,-4.0096,-4.0096,-4.0096,-4.0096,-4.0096,-4.0096,-4.0096,-4.0096,-4.0096,-4.0096,-3.9876,-3.9236,-3.8854,-3.8201,-3.6964,-3.6554,-3.6134,-3.5554,-3.5504,-3.5504,-3.5504,-3.5504,-3.5504,-3.5504,-3.5504,-3.5504,-3.5504,-3.5504,-3.5504,-3.5504,-3.5504,-3.5504,-3.5504,-3.5504,-3.5504,0.0,0.0,0.0,-3.1252,0.0,0.0,0.0,-3.1765,0.0,0.0,0.0,0.0,0.0,0.0,0.0,0.0,0.0,0.0,0.0,0.0,0.0,0.0,0.0,0.0,0.0,0.0,-4.0096,-4.0096,-4.0096,-4.0229,-4.0497,-4.1059,-4.1621,-4.2223,-4.279,-4.3232,-4.3497,-4.3515,-4.3515,-4.3515,-4.3515,-4.3515,-4.3515,-4.3515,-4.3515,-4.3515,-4.3515,-4.3515,-4.3515,-4.3515,-4.3515,-4.3515,-4.3515,-4.3515,-4.3515,-4.3515,-4.3515,-4.3515,-4.3515,-4.3321,-4.2958,-4.2083,-4.1599,-4.1178,-4.036,-4.0096,-4.0096,-4.0096,-4.0096,-4.0096,-4.0096,-4.0096,-4.0096,-4.0096,-4.0096,-4.0096,-4.0096,-4.0096,-4.0096,-4.0096,-4.0096,-4.0096,-4.0096,-4.0096,-4.0096,-4.0096,-4.0096,-3.9952,-3.9542,-3.8843,-3.8048,-3.7263,-3.6523,-3.5894,-3.5537,-3.5504,-3.5504,-3.5504,-3.5504,-3.5504,-3.5504,-3.5504,-3.5504,-3.5504,-3.5504,-3.5504,-3.5504,-3.5504,-3.5504,-3.5504,-3.5504,-3.5504,0.0,0.0,0.0,0.0,0.0,-3.119,0.0,0.0,0.0,0.0,0.0,0.0,0.0,0.0,0.0,0.0,0.0,0.0,0.0,0.0,0.0,0.0,0.0,0.0,0.0,0.0,-3.9791,-4.0079,-4.0096,-4.0146,-4.0254,-4.0655,-4.1246,-4.1958,-4.246,-4.2958,-4.3479,-4.3515,-4.3515,-4.3515,-4.3515,-4.3515,-4.3515,-4.3515,-4.3515,-4.3515,-4.3515,-4.3515,-4.3515,-4.3515,-4.3515,-4.3515,-4.3515,-4.3515,-4.3515,-4.3515,-4.3427,-4.3357,-4.3357,-4.2995,-4.244,-4.1814,-4.1223,-4.0655,-4.0229,-4.0096,-4.0096,-4.0096,-4.0096,-4.0096,-4.0096,-4.0096,-4.0096,-4.0096,-4.0096,-4.0096,-4.0096,-4.0096,-4.0096,-4.0096,-4.0096,-4.0096,-4.0096,-4.0096,-4.0096,-4.0096,-4.0096,-4.0096,-4.0096,-3.8995,-3.8121,-3.7835,-3.6692,-3.5829,-3.5537,-3.5504,-3.5504,-3.5504,-3.5504,-3.5504,-3.5504,-3.5504,-3.5504,-3.5504,-3.5504,-3.5504,-3.5504,-3.5504,-3.5504,-3.5504,-3.5504,-3.5504,0.0,0.0,0.0,0.0,-3.119,0.0,0.0,0.0,0.0,0.0,0.0,0.0,0.0,0.0,0.0,0.0,0.0,0.0,0.0,0.0,0.0,0.0,0.0,0.0,0.0,0.0,0.0,-4.0011,-4.0096,-4.0311,-4.078,-4.0856,-4.1424,-4.2577,-4.2655,-4.2958,-4.3479,-4.3515,-4.3515,-4.3515,-4.3515,-4.3515,-4.3515,-4.3515,-4.3515,-4.3515,-4.3515,-4.3515,-4.3515,-4.3515,-4.3515,-4.3515,-4.3515,-4.3515,-4.3515,-4.3515,-4.3196,-4.2788,-4.2788,-4.2402,-4.1793,-4.1201,-4.0631,-4.0179,-4.0121,-4.0096,-4.0096,-4.0096,-4.0096,-4.0096,-4.0096,-4.0096,-4.0096,-4.0096,-4.0096,-4.0096,-4.0096,-4.0096,-4.0096,-4.0096,-4.0096,-4.0096,-4.0096,-4.0096,-4.0096,-4.0096,-4.0096,-4.0096,-4.0096,-3.9944,-3.9322,-3.795,-3.7632,-3.6981,-3.5619,-3.5504,-3.5504,-3.5504,-3.5504,-3.5504,-3.5504,-3.5504,-3.5504,-3.5504,-3.5504,-3.5504,-3.5504,-3.5504,-3.5504,-3.5504,-3.5504,-3.5504,0.0,0.0,0.0,0.0,0.0,0.0,-3.2476,0.0,-3.119,0.0,0.0,0.0,0.0,0.0,0.0,0.0,0.0,0.0,0.0,0.0,0.0,0.0,0.0,0.0,0.0,0.0,0.0,0.0,0.0,-3.8924,-3.9136,-3.9963,-4.0984,-4.2142,-4.2183,-4.2599,-4.3479,-4.3515,-4.3515,-4.3515,-4.3515,-4.3515,-4.3515,-4.3515,-4.3515,-4.3515,-4.3515,-4.3515,-4.3515,-4.3515,-4.3515,-4.3515,-4.3515,-4.3515,-4.3515,-4.3515,-4.316,-4.2711,-4.2711,-4.208,-4.1178,-4.0625,-4.0286,-4.0096,-4.0096,-4.0096,-4.0096,-4.0096,-4.0096,-4.0096,-4.0096,-4.0096,-4.0096,-4.0096,-4.0096,-4.0096,-4.0096,-4.0096,-4.0096,-4.0096,-4.0096,-4.0096,-4.0096,-4.0096,-4.0096,-4.0096,-4.0096,-4.0096,-4.0096,-3.9688,-3.8978,-3.7892,-3.7397,-3.6661,-3.5587,-3.5504,-3.5504,-3.5504,-3.5504,-3.5504,-3.5504,-3.5504,-3.5504,-3.5504,-3.5504,-3.5504,-3.5504,-3.5504,-3.5504,-3.5504,-3.5504,-3.5504,-3.3711,0.0,0.0,0.0,0.0,0.0,0.0,0.0,0.0,0.0,0.0,0.0,0.0,0.0,0.0,0.0,0.0,0.0,0.0,0.0,0.0,0.0,0.0,0.0,0.0,0.0,0.0,0.0,-3.7364,0.0,-3.7601,-3.8988,-4.0412,-4.175,-4.181,-4.2346,-4.3479,-4.3515,-4.3515,-4.3515,-4.3515,-4.3515,-4.3515,-4.3515,-4.3515,-4.3515,-4.3515,-4.3515,-4.3515,-4.3515,-4.3515,-4.3497,-4.3339,-4.3268,-4.3268,-4.3268,-4.2828,-4.2221,-4.2221,-4.1552,-4.0625,-4.0229,-4.0096,-4.0096,-4.0096,-4.0096,-4.0096,-4.0096,-4.0096,-4.0096,-4.0096,-4.0096,-4.0096,-4.0096,-4.0096,-4.0096,-4.0096,-4.0096,-4.0096,-4.0096,-4.0096,-4.0096,-4.0096,-4.0096,-4.0096,-4.0096,-4.0096,-4.0096,-4.0096,-3.9584,-3.887,-3.7892,-3.7279,-3.6538,-3.5587,-3.5504,-3.5504,-3.5504,-3.5504,-3.5504,-3.5504,-3.5504,-3.5504,-3.5504,-3.5504,-3.5504,-3.5504,-3.5504,-3.5504,-3.5504,-3.5504,-3.5504,0.0,0.0,0.0,-3.3761,0.0,0.0,0.0,0.0,-3.119,0.0,0.0,0.0,0.0,0.0,-2.9632,-2.8128,0.0,0.0,0.0,0.0,0.0,0.0,0.0,0.0,0.0,0.0,0.0,0.0,-3.6,0.0,-3.6846,-3.8227,-3.9879,-4.1732,-4.181,-4.2346,-4.3479,-4.3515,-4.3515,-4.3515,-4.3515,-4.3515,-4.3515,-4.3515,-4.3515,-4.3515,-4.3515,-4.3515,-4.3515,-4.3515,-4.3515,-4.3444,-4.292,-4.2731,-4.2731,-4.2731,-4.1979,-4.0972,-4.0972,-4.0601,-4.0121,-4.0113,-4.0096,-4.0096,-4.0096,-4.0096,-4.0096,-4.0096,-4.0096,-4.0096,-4.0096,-4.0096,-4.0096,-4.0096,-4.0096,-4.0096,-4.0096,-4.0096,-4.0096,-4.0096,-4.0096,-4.0096,-4.0096,-4.0096,-4.0096,-4.0096,-4.0096,-4.0096,-4.0096,-4.007,-3.948,-3.795,-3.7793,-3.7145,-3.5619,-3.5504,-3.5504,-3.5504,-3.5504,-3.5504,-3.5504,-3.5504,-3.5504,-3.5504,-3.5504,-3.5504,-3.5504,-3.5504,-3.5504,-3.5504,-3.5504,-3.5504,0.0,0.0,-3.6986,-3.6502,0.0,0.0,0.0,0.0,0.0,0.0,0.0,0.0,0.0,0.0,-2.9025,-2.7976,-2.8484,-2.8824,0.0,0.0,0.0,0.0,0.0,0.0,0.0,0.0,0.0,-3.3694,-3.4252,0.0,0.0,-3.6434,-3.8225,-3.9708,-4.0602,-4.1687,-4.2958,-4.3321,-4.3515,-4.3515,-4.3515,-4.3515,-4.3515,-4.3515,-4.3515,-4.3515,-4.3515,-4.3286,-4.2976,-4.2976,-4.2733,-4.2346,-4.2183,-4.1874,-4.1556,-4.1958,-4.1599,-4.0833,-4.048,-4.0237,-4.0096,-4.0096,-4.0096,-4.0096,-4.0096,-4.0096,-4.0096,-4.0096,-4.0096,-4.0096,-4.0096,-4.0096,-4.0096,-4.0096,-4.0096,-4.0096,-4.0096,-4.0096,-4.0096,-4.0096,-4.0096,-4.0096,-4.0096,-4.0096,-4.0096,-4.0096,-4.0096,-4.0096,-4.0096,-4.0096,-3.9705,-3.8635,-3.8092,-3.7368,-3.6306,-3.5782,-3.5504,-3.5504,-3.5504,-3.5504,-3.5504,-3.5504,-3.5504,-3.5504,-3.5504,-3.5504,-3.5504,-3.5504,-3.5504,-3.5504,-3.5504,-3.5504,-3.8413,-3.8684,0.0,0.0,-3.7138,0.0,-3.5718,0.0,0.0,0.0,0.0,0.0,0.0,0.0,-2.9347,-2.8027,-2.8484,-2.8824,0.0,-2.911,0.0,0.0,0.0,0.0,0.0,0.0,-3.1647,-3.1816,-3.256,-3.3,0.0,0.0,-3.6973,-3.8261,-3.9676,-4.0911,-4.199,-4.2795,-4.3214,-4.3214,-4.341,-4.3515,-4.3515,-4.3515,-4.3515,-4.3497,-4.3286,-4.3014,-4.2674,-4.248,-4.2142,-4.1789,-4.1556,-4.1246,-4.0949,-4.1353,-4.1127,-4.0577,-4.0229,-4.0096,-4.0096,-4.0096,-4.0096,-4.0096,-4.0096,-4.0096,-4.0096,-4.0096,-4.0096,-4.0096,-4.0096,-4.0096,-4.0096,-4.0096,-4.0096,-4.0096,-4.0096,-4.0096,-4.0096,-4.0096,-4.0096,-4.0096,-4.0096,-4.0096,-4.0096,-4.0096,-4.0096,-4.0096,-4.0096,-3.9833,-3.9268,-3.8275,-3.7463,-3.6599,-3.5569,-3.5057,-3.4801,-3.4801,-3.4801,-3.4801,-3.4801,-3.4801,-3.4801,-3.4801,-3.4801,-3.4906,-3.513,-3.513,-3.5265,-3.5489,-3.525,-3.513]},{"header":{"parameterUnit":"m.s-1","parameterCategory":1,"la1":30.6,"la2":29.2853,"lo1":-89.7004,"lo2":-87.6739,"dy":0.0162,"dx":0.0183,"nx":112,"ny":82,"refTime":"2023-07-10T00:00:00:Z","depth":0,"parameterNumber":3,"parameterNumberName":"V-component_of_WINDS"},"data":[0.0,0.0,0.0,0.0,0.0,0.0,0.0,0.0,0.0,0.0,0.0,0.0,0.0,0.0,0.0,0.0,0.0,0.0,0.0,0.0,0.0,0.0,0.0,0.0,0.0,0.0,0.0,0.0,0.0,0.0,0.0,0.0,0.0,0.0,0.0,0.0,0.0,0.0,0.0,0.0,0.0,0.0,0.0,0.0,0.0,0.0,0.0,0.0,0.0,0.0,0.0,0.0,0.0,0.0,0.0,0.0,0.0,0.0,0.0,0.0,0.0,0.0,0.0,0.0,0.0,0.0,0.0,0.0,0.0,0.0,0.0,0.0,0.0,0.0,0.0,0.0,0.0,0.0,0.0,0.0,0.0,0.0,0.0,0.0,0.0,0.0,0.0,0.0,0.0,0.0,0.0,-2.1894,-2.2672,-2.3091,-2.3091,-2.3091,-2.2402,-2.0713,0.0,0.0,0.0,0.0,0.0,0.0,0.0,0.0,0.0,0.0,0.0,0.0,0.0,0.0,0.0,0.0,0.0,0.0,0.0,0.0,0.0,0.0,0.0,0.0,0.0,0.0,0.0,0.0,0.0,0.0,0.0,0.0,0.0,0.0,0.0,0.0,0.0,0.0,0.0,0.0,0.0,0.0,0.0,0.0,0.0,0.0,0.0,0.0,0.0,0.0,0.0,0.0,0.0,0.0,0.0,0.0,0.0,0.0,0.0,0.0,0.0,0.0,0.0,0.0,0.0,0.0,0.0,0.0,0.0,0.0,0.0,0.0,0.0,0.0,0.0,0.0,0.0,0.0,0.0,0.0,0.0,0.0,0.0,0.0,0.0,0.0,0.0,0.0,0.0,0.0,0.0,0.0,0.0,0.0,0.0,0.0,0.0,0.0,0.0,0.0,0.0,0.0,0.0,0.0,-2.1035,-2.2721,-2.3023,-2.3091,-2.3091,-2.3091,-2.2402,-2.0713,0.0,0.0,0.0,0.0,0.0,0.0,0.0,0.0,0.0,0.0,0.0,0.0,0.0,0.0,0.0,0.0,0.0,0.0,0.0,0.0,0.0,0.0,0.0,0.0,0.0,0.0,0.0,0.0,0.0,0.0,0.0,0.0,0.0,0.0,0.0,0.0,0.0,0.0,0.0,0.0,0.0,0.0,0.0,0.0,0.0,0.0,0.0,0.0,0.0,0.0,0.0,0.0,0.0,0.0,0.0,0.0,0.0,0.0,0.0,0.0,0.0,0.0,0.0,0.0,0.0,0.0,0.0,0.0,0.0,0.0,0.0,0.0,0.0,0.0,0.0,0.0,0.0,0.0,0.0,0.0,0.0,0.0,0.0,0.0,0.0,0.0,0.0,0.0,0.0,0.0,0.0,0.0,0.0,0.0,0.0,0.0,0.0,0.0,0.0,0.0,0.0,0.0,0.0,-2.1162,-2.2266,-2.3013,-2.3091,-2.3091,-2.3091,-2.3091,-2.2402,-2.0713,-2.0605,0.0,0.0,0.0,0.0,0.0,0.0,0.0,0.0,0.0,0.0,0.0,0.0,0.0,0.0,0.0,0.0,0.0,0.0,0.0,0.0,0.0,0.0,0.0,0.0,0.0,0.0,0.0,0.0,0.0,0.0,0.0,0.0,0.0,0.0,0.0,0.0,0.0,0.0,0.0,0.0,0.0,0.0,0.0,0.0,0.0,0.0,0.0,0.0,0.0,0.0,0.0,0.0,0.0,0.0,0.0,0.0,0.0,0.0,0.0,0.0,0.0,0.0,0.0,0.0,0.0,0.0,0.0,0.0,0.0,0.0,0.0,0.0,0.0,0.0,0.0,0.0,0.0,0.0,0.0,0.0,0.0,0.0,0.0,0.0,0.0,0.0,0.0,0.0,0.0,0.0,0.0,0.0,0.0,0.0,0.0,0.0,0.0,0.0,0.0,0.0,0.0,0.0,-2.2155,-2.2984,-2.3081,-2.3091,-2.3091,-2.3091,-2.3091,-2.2402,-2.0713,-2.0605,0.0,0.0,0.0,0.0,0.0,0.0,0.0,0.0,0.0,0.0,0.0,0.0,0.0,0.0,0.0,0.0,0.0,0.0,0.0,0.0,0.0,0.0,0.0,0.0,0.0,0.0,0.0,0.0,0.0,0.0,0.0,0.0,0.0,0.0,0.0,0.0,0.0,0.0,0.0,0.0,0.0,0.0,0.0,0.0,0.0,0.0,0.0,0.0,0.0,0.0,0.0,0.0,0.0,0.0,0.0,0.0,0.0,0.0,0.0,0.0,0.0,0.0,0.0,0.0,0.0,0.0,0.0,0.0,0.0,0.0,0.0,0.0,0.0,0.0,0.0,0.0,0.0,0.0,0.0,0.0,0.0,0.0,0.0,0.0,0.0,0.0,0.0,0.0,0.0,0.0,0.0,0.0,0.0,0.0,0.0,0.0,0.0,0.0,0.0,0.0,0.0,0.0,-2.1748,-2.2705,-2.3052,-2.3091,-2.3091,-2.3091,-2.3091,-2.2402,-2.0713,-2.0605,0.0,0.0,0.0,0.0,0.0,0.0,0.0,0.0,0.0,0.0,0.0,0.0,0.0,0.0,0.0,0.0,0.0,0.0,0.0,0.0,0.0,0.0,0.0,0.0,0.0,0.0,0.0,0.0,0.0,0.0,0.0,0.0,0.0,0.0,0.0,0.0,0.0,0.0,0.0,0.0,0.0,0.0,0.0,0.0,0.0,0.0,0.0,0.0,0.0,0.0,0.0,0.0,0.0,0.0,0.0,0.0,0.0,0.0,0.0,0.0,0.0,0.0,0.0,0.0,0.0,0.0,0.0,0.0,0.0,0.0,0.0,0.0,0.0,0.0,0.0,0.0,0.0,0.0,0.0,0.0,0.0,0.0,0.0,0.0,0.0,0.0,0.0,0.0,0.0,0.0,0.0,0.0,0.0,0.0,0.0,0.0,0.0,0.0,0.0,0.0,0.0,0.0,-2.1934,-2.2916,0.0,-2.3091,-2.3091,-2.3091,-2.3091,-2.2402,-2.0713,0.0,0.0,0.0,0.0,0.0,0.0,0.0,0.0,0.0,0.0,0.0,0.0,0.0,0.0,0.0,0.0,0.0,0.0,0.0,0.0,0.0,0.0,0.0,0.0,0.0,0.0,0.0,0.0,0.0,0.0,0.0,0.0,0.0,0.0,0.0,0.0,0.0,0.0,0.0,0.0,0.0,0.0,0.0,0.0,0.0,0.0,0.0,0.0,0.0,0.0,0.0,0.0,0.0,0.0,0.0,0.0,0.0,0.0,0.0,0.0,0.0,0.0,0.0,0.0,0.0,0.0,0.0,0.0,0.0,0.0,0.0,0.0,0.0,0.0,0.0,0.0,0.0,0.0,0.0,0.0,0.0,0.0,0.0,0.0,0.0,0.0,0.0,0.0,0.0,0.0,0.0,0.0,0.0,0.0,0.0,0.0,0.0,0.0,0.0,0.0,0.0,0.0,-2.0605,-2.207,-2.3091,0.0,-2.3091,-2.3091,-2.3091,-2.3091,-2.2301,-2.0478,0.0,0.0,0.0,0.0,0.0,0.0,0.0,0.0,0.0,0.0,0.0,0.0,0.0,0.0,0.0,0.0,0.0,0.0,0.0,0.0,0.0,0.0,0.0,0.0,0.0,0.0,0.0,0.0,0.0,0.0,0.0,0.0,0.0,0.0,0.0,0.0,0.0,0.0,0.0,0.0,0.0,0.0,0.0,0.0,0.0,0.0,0.0,0.0,0.0,0.0,0.0,0.0,0.0,0.0,0.0,0.0,0.0,0.0,0.0,0.0,0.0,0.0,0.0,0.0,0.0,0.0,0.0,0.0,0.0,0.0,0.0,0.0,0.0,0.0,0.0,0.0,0.0,0.0,0.0,0.0,0.0,0.0,0.0,0.0,0.0,0.0,0.0,0.0,0.0,0.0,0.0,0.0,0.0,0.0,0.0,0.0,0.0,0.0,0.0,0.0,0.0,0.0,-2.0605,-2.207,-2.3091,-2.3101,-2.3091,-2.3091,-2.3101,-2.3091,-2.2175,0.0,0.0,0.0,0.0,0.0,0.0,0.0,0.0,0.0,0.0,0.0,0.0,0.0,0.0,0.0,0.0,0.0,0.0,0.0,0.0,0.0,0.0,0.0,0.0,0.0,0.0,0.0,0.0,0.0,0.0,0.0,0.0,0.0,0.0,0.0,0.0,0.0,0.0,0.0,0.0,0.0,0.0,0.0,0.0,0.0,0.0,0.0,0.0,0.0,0.0,0.0,0.0,0.0,0.0,0.0,0.0,0.0,0.0,0.0,0.0,0.0,0.0,0.0,0.0,0.0,0.0,0.0,0.0,0.0,0.0,0.0,0.0,0.0,0.0,0.0,0.0,0.0,0.0,0.0,0.0,0.0,0.0,0.0,0.0,0.0,0.0,0.0,0.0,0.0,0.0,0.0,0.0,0.0,0.0,0.0,0.0,0.0,0.0,0.0,0.0,0.0,0.0,0.0,-2.0605,-2.207,-2.3218,-2.3564,-2.3276,-2.3218,-2.3574,-2.3276,-2.2353,-2.0488,0.0,0.0,0.0,0.0,0.0,0.0,0.0,0.0,0.0,0.0,0.0,0.0,0.0,0.0,0.0,0.0,0.0,0.0,0.0,0.0,0.0,0.0,0.0,0.0,0.0,0.0,0.0,0.0,0.0,0.0,0.0,0.0,0.0,0.0,0.0,0.0,0.0,0.0,0.0,0.0,0.0,0.0,0.0,0.0,0.0,0.0,0.0,0.0,0.0,0.0,0.0,0.0,0.0,0.0,0.0,0.0,0.0,0.0,0.0,0.0,0.0,0.0,0.0,0.0,0.0,0.0,0.0,0.0,0.0,0.0,0.0,0.0,0.0,0.0,0.0,0.0,0.0,0.0,0.0,0.0,0.0,0.0,0.0,0.0,0.0,0.0,0.0,0.0,0.0,0.0,0.0,0.0,0.0,0.0,0.0,0.0,0.0,0.0,0.0,0.0,0.0,0.0,-2.0303,-2.2119,-2.3496,-2.376,-2.3711,-2.386,-2.4375,-2.3801,-2.287,-2.1615,0.0,0.0,0.0,0.0,0.0,0.0,0.0,0.0,0.0,0.0,0.0,0.0,0.0,0.0,0.0,0.0,0.0,0.0,0.0,0.0,0.0,0.0,0.0,0.0,0.0,0.0,0.0,0.0,0.0,0.0,0.0,0.0,0.0,0.0,0.0,0.0,0.0,0.0,0.0,0.0,0.0,0.0,0.0,0.0,0.0,0.0,0.0,0.0,0.0,0.0,0.0,0.0,0.0,0.0,0.0,0.0,0.0,0.0,0.0,0.0,0.0,0.0,0.0,0.0,0.0,0.0,0.0,0.0,0.0,0.0,0.0,0.0,0.0,0.0,0.0,0.0,0.0,0.0,0.0,0.0,0.0,0.0,0.0,0.0,0.0,0.0,0.0,0.0,0.0,0.0,0.0,0.0,0.0,0.0,0.0,0.0,0.0,0.0,0.0,0.0,0.0,0.0,-1.9912,-2.2178,-2.3809,-2.3838,-2.4281,-2.4831,-2.543,-2.4628,-2.3826,-2.3154,0.0,0.0,0.0,0.0,0.0,0.0,0.0,0.0,0.0,0.0,0.0,0.0,0.0,0.0,0.0,0.0,0.0,0.0,0.0,0.0,0.0,0.0,0.0,0.0,0.0,0.0,0.0,0.0,0.0,0.0,0.0,0.0,0.0,0.0,0.0,0.0,0.0,0.0,0.0,0.0,0.0,0.0,0.0,0.0,0.0,0.0,0.0,0.0,0.0,0.0,0.0,0.0,0.0,0.0,0.0,0.0,0.0,0.0,0.0,0.0,-1.3995,0.0,0.0,0.0,0.0,0.0,0.0,0.0,0.0,0.0,0.0,0.0,0.0,0.0,0.0,0.0,0.0,0.0,0.0,0.0,0.0,0.0,0.0,0.0,0.0,0.0,0.0,0.0,0.0,0.0,0.0,0.0,0.0,0.0,0.0,0.0,0.0,0.0,0.0,0.0,0.0,0.0,-1.9912,-2.2178,-2.3916,-2.4248,-2.5239,-2.5917,-2.5923,-2.6313,-2.6041,-2.4804,0.0,0.0,0.0,0.0,0.0,0.0,0.0,0.0,0.0,0.0,0.0,0.0,0.0,0.0,0.0,0.0,0.0,0.0,0.0,0.0,0.0,0.0,0.0,0.0,0.0,0.0,0.0,0.0,0.0,0.0,0.0,0.0,0.0,0.0,0.0,0.0,0.0,0.0,0.0,0.0,0.0,0.0,0.0,0.0,0.0,0.0,0.0,0.0,0.0,0.0,0.0,0.0,0.0,0.0,0.0,0.0,0.0,0.0,0.0,0.0,0.0,-1.4182,0.0,0.0,0.0,0.0,0.0,0.0,0.0,0.0,0.0,0.0,0.0,0.0,0.0,0.0,0.0,0.0,0.0,0.0,0.0,0.0,0.0,0.0,0.0,0.0,0.0,0.0,0.0,0.0,0.0,0.0,0.0,0.0,0.0,0.0,0.0,0.0,0.0,0.0,0.0,0.0,-2.0176,-2.249,-2.4258,-2.4687,-2.5501,-2.6357,-2.7218,-2.6931,-2.6794,-2.6972,-2.6005,0.0,0.0,0.0,0.0,0.0,0.0,0.0,0.0,0.0,0.0,0.0,0.0,0.0,0.0,0.0,0.0,0.0,0.0,0.0,0.0,0.0,0.0,0.0,0.0,0.0,0.0,0.0,0.0,0.0,0.0,0.0,0.0,0.0,0.0,0.0,0.0,0.0,0.0,0.0,0.0,0.0,0.0,0.0,0.0,0.0,0.0,0.0,0.0,0.0,0.0,0.0,0.0,0.0,0.0,0.0,-1.5477,-1.5665,-1.5645,-1.5477,-1.5565,-1.5431,-1.5142,0.0,0.0,0.0,0.0,0.0,0.0,0.0,0.0,0.0,0.0,0.0,0.0,0.0,0.0,0.0,0.0,0.0,0.0,0.0,0.0,0.0,0.0,0.0,0.0,0.0,-2.0938,-2.0879,0.0,0.0,0.0,0.0,0.0,0.0,0.0,0.0,0.0,0.0,0.0,0.0,-2.0507,-2.2881,-2.4761,-2.535,-2.5966,-2.7024,-2.8757,-2.7855,-2.7729,-2.9133,-2.7927,-2.7062,0.0,0.0,0.0,0.0,0.0,0.0,0.0,0.0,0.0,0.0,0.0,0.0,0.0,0.0,0.0,0.0,0.0,0.0,0.0,0.0,0.0,0.0,0.0,0.0,0.0,0.0,0.0,0.0,0.0,0.0,0.0,0.0,-0.6888,-0.7364,0.0,0.0,0.0,0.0,0.0,0.0,0.0,0.0,0.0,0.0,0.0,0.0,0.0,0.0,-0.7816,-1.0879,-1.2555,-1.274,-1.5712,-1.7164,-1.7235,-1.7275,-1.7275,-1.7208,-1.674,0.0,-1.5712,-1.5671,0.0,0.0,0.0,0.0,0.0,0.0,0.0,0.0,0.0,0.0,0.0,0.0,0.0,0.0,0.0,0.0,0.0,0.0,0.0,0.0,0.0,0.0,-2.2623,-2.273,-2.2246,-2.1914,0.0,-2.0947,-1.9512,-2.0292,0.0,0.0,0.0,0.0,0.0,0.0,0.0,0.0,-2.0586,-2.3198,-2.5414,-2.6563,-2.8028,-2.9251,-3.0082,-3.0906,-3.1099,-3.0418,-3.0196,-2.9397,-2.7939,-2.8975,0.0,0.0,0.0,0.0,0.0,0.0,0.0,0.0,0.0,0.0,0.0,0.0,0.0,0.0,0.0,0.0,0.0,0.0,0.0,0.0,0.0,0.0,0.0,0.0,0.0,0.0,0.0,0.0,0.0,-0.6892,-0.7183,-0.7465,-0.7288,-0.7014,0.0,0.0,0.0,0.0,0.0,0.0,0.0,0.0,0.0,-0.774,-0.8652,-0.9716,-1.0926,-1.3174,-1.489,-1.5907,-1.7412,-1.8096,-1.8096,-1.8096,-1.8096,-1.8083,-1.7822,-1.7562,-1.7261,-1.642,-1.5805,-1.5344,0.0,0.0,0.0,0.0,0.0,0.0,-1.4282,0.0,0.0,0.0,0.0,0.0,0.0,0.0,0.0,0.0,0.0,0.0,0.0,0.0,0.0,-2.3695,-2.3574,-2.3408,-2.3734,-2.2598,-2.1476,0.0,-2.0254,-1.9104,-1.8442,0.0,0.0,0.0,0.0,0.0,-2.2357,-2.4,-2.5667,-2.7113,-2.7968,-2.9043,-3.0714,-3.1062,-3.1129,-3.1057,-3.0783,-3.0156,-2.9101,-2.9528,-2.9026,0.0,0.0,0.0,0.0,0.0,0.0,0.0,0.0,0.0,0.0,0.0,0.0,0.0,0.0,0.0,0.0,0.0,0.0,0.0,0.0,0.0,0.0,0.0,0.0,0.0,0.0,0.0,0.0,-0.7173,-0.7397,-0.7628,-0.7522,-0.7311,0.0,0.0,0.0,0.0,0.0,0.0,-0.776,-0.7943,-0.813,-0.8319,-0.9557,-1.0929,-1.2464,-1.4529,-1.6197,-1.761,-1.8494,-1.8938,-1.8938,-1.8938,-1.8938,-1.8931,-1.8778,-1.8711,-1.8617,-1.7361,-1.654,-1.6052,-1.5818,-1.5284,0.0,-1.4723,-1.479,-1.4941,-1.5593,-1.7045,-1.8582,-1.8586,0.0,-2.1194,-2.0444,0.0,0.0,0.0,0.0,-2.1834,-2.251,0.0,-2.3578,-2.4268,-2.4414,-2.4414,-2.4414,-2.375,-2.3037,0.0,-2.1562,-2.0459,-1.9718,0.0,0.0,0.0,0.0,-2.3066,-2.3711,-2.4639,-2.5867,-2.7416,-2.7861,-2.8901,-3.1033,-3.1141,-3.1162,-3.1383,-3.1035,-3.0507,-2.9817,-2.9792,-2.9402,-2.8549,0.0,0.0,0.0,0.0,0.0,0.0,0.0,0.0,0.0,0.0,0.0,0.0,0.0,0.0,0.0,0.0,0.0,0.0,0.0,0.0,0.0,0.0,0.0,0.0,0.0,0.0,0.0,0.0,0.0,-0.775,-0.8045,0.0,0.0,0.0,0.0,-0.7587,-0.7702,-0.7919,-0.8272,-0.8509,-0.8798,-0.9142,-0.9449,-0.9676,-0.9808,-1.3273,-1.5109,-1.5245,-1.853,-2.0087,-2.0087,-2.0087,-2.0087,-2.0114,-1.9559,-1.9325,-1.9272,-1.8644,-1.8196,-1.7776,-1.6974,-1.6446,-1.6099,-1.5551,-1.5524,-1.594,-1.7604,-1.9169,-2.0656,-2.194,-2.2665,-2.2994,-2.2493,-2.2097,0.0,0.0,-2.2412,-2.3003,-2.3052,-2.3686,-2.4365,-2.4404,-2.4414,-2.4414,-2.4414,-2.3695,-2.3325,0.0,-2.353,-2.2789,-2.2393,0.0,0.0,-2.1278,-2.2617,-2.374,-2.3779,-2.4902,-2.6177,-2.7447,-2.8634,-2.9806,-3.1089,-3.2258,-3.2524,-3.1461,-3.1361,-3.0884,-2.9829,-2.9792,-2.9767,-2.9716,-2.8649,0.0,0.0,0.0,0.0,0.0,0.0,0.0,0.0,0.0,0.0,0.0,0.0,0.0,0.0,0.0,0.0,0.0,0.0,0.0,0.0,0.0,0.0,0.0,0.0,0.0,0.0,0.0,0.0,-0.7853,-0.7967,0.0,0.0,-0.8099,-0.818,-0.8167,-0.8482,-0.8808,-0.9117,-0.932,-0.952,-0.9724,-0.9934,-1.1078,-1.3263,-1.4568,-1.6246,-1.8349,-1.9622,-2.0173,-2.0173,-2.0173,-2.0173,-2.016,-2.0013,-1.992,-1.9907,-1.97,-1.9105,-1.8297,-1.7983,-1.7789,-1.7675,-1.7462,-1.7455,-1.7608,-1.8229,-1.9358,-2.0809,-2.2583,-2.3551,-2.3945,-2.3779,-2.3633,-2.3516,-2.3516,-2.3935,-2.4375,-2.4375,-2.4824,-2.5216,-2.5216,-2.5216,-2.5216,-2.5216,-2.4982,-2.4855,-2.5157,-2.4066,-2.3052,-2.2959,-2.374,-2.4033,-2.3027,-2.4121,-2.5039,-2.5039,-2.5401,-2.6207,-2.7447,-2.868,-2.9909,-3.1078,-3.2382,-3.2742,-3.1964,-3.1587,-3.1072,-3.0357,-2.998,-2.9792,-2.9792,-2.9402,-2.8486,0.0,0.0,0.0,0.0,0.0,0.0,0.0,0.0,0.0,0.0,0.0,0.0,0.0,0.0,0.0,0.0,0.0,0.0,0.0,0.0,0.0,0.0,0.0,0.0,0.0,0.0,-0.7668,-0.8069,-0.816,-0.818,-0.8282,-0.8526,-0.8706,-0.8852,-0.9181,-0.949,-0.9744,-0.9897,-1.0022,-1.0124,-1.0837,-1.2298,-1.4548,-1.5752,-1.7491,-1.9639,-2.0213,-2.0528,-2.0528,-2.0528,-2.0421,-2.0241,-2.0341,-2.0267,-2.0094,-2.0133,-1.9773,-1.9058,-1.8865,-1.8724,-1.8624,-1.8524,-1.849,-1.8657,-1.9614,-2.0831,-2.2233,-2.4107,-2.4951,-2.5293,-2.5293,-2.5293,-2.5293,-2.5293,-2.5498,-2.5723,-2.5723,-2.5947,-2.6122,-2.6122,-2.6005,-2.5957,-2.5957,-2.5557,-2.5333,-2.5635,-2.4758,-2.3881,-2.3633,-2.4287,-2.456,-2.3701,-2.4261,-2.4816,-2.4863,-2.507,-2.5559,-2.6427,-2.8253,-2.9727,-3.0541,-3.1766,-3.2416,-3.2227,-3.1361,-3.0783,-3.062,-2.9716,-2.9227,-2.9227,-2.8863,-2.8122,-2.7052,0.0,0.0,0.0,0.0,0.0,0.0,0.0,0.0,0.0,0.0,0.0,0.0,0.0,0.0,0.0,0.0,0.0,0.0,0.0,0.0,0.0,0.0,0.0,-0.7363,-0.7638,-0.7943,-0.8255,-0.8676,-0.8888,-0.8895,-0.9222,-0.9456,-0.9605,-0.9751,-0.99,-0.9994,-1.0198,-1.0276,-1.0287,-1.2067,-1.3105,-1.3174,-1.6658,-1.853,-1.8664,-2.0291,-2.1136,-2.1136,-2.1129,-2.0815,-2.0287,-2.0568,-2.0368,-1.986,-2.014,-2.0193,-2.0187,-1.9619,-1.9212,-1.8918,-1.8637,-1.8531,-1.8891,-2.1649,-2.3508,-2.4995,-2.6439,-2.6919,-2.7012,-2.7012,-2.7012,-2.7012,-2.7012,-2.7012,-2.7012,-2.7012,-2.7012,-2.7012,-2.7012,-2.6699,-2.6406,-2.6406,-2.54,-2.4746,-2.5567,-2.5732,-2.545,-2.4609,-2.4453,-2.4134,-2.3305,-2.3179,0.0,-2.3286,-2.3955,-2.4453,-2.4499,-2.7405,-2.9373,-2.9453,-3.0657,-3.1637,-3.2202,-3.0746,-3.0093,-3.062,-2.9063,-2.8172,-2.816,-2.7115,-2.7065,-2.8109,0.0,0.0,0.0,0.0,0.0,0.0,0.0,0.0,0.0,0.0,0.0,0.0,0.0,0.0,0.0,0.0,0.0,0.0,0.0,0.0,0.0,0.0,-0.7641,-0.7685,-0.7953,-0.8296,-0.8706,-0.8807,-0.8969,-0.9239,-0.9527,-0.9717,-0.9758,-1.0005,-1.0215,-1.0361,-1.0205,-1.0212,-1.0426,-1.098,-1.2528,-1.5232,-1.647,-1.847,-2.1071,-2.1541,-2.1744,-2.1737,-2.153,-2.1343,-2.1182,-2.1049,-2.0902,-2.0755,-2.0835,-2.0748,-2.0514,-2.014,-1.9813,-1.9546,-1.9466,-1.9305,-1.9206,-1.9752,-2.1571,-2.3739,-2.4115,-2.5493,-2.7012,-2.7012,-2.7012,-2.7012,-2.7012,-2.7012,-2.7012,-2.7012,-2.7012,-2.7012,-2.7012,-2.6934,-2.6846,-2.6846,-2.6562,-2.6377,-2.6621,-2.667,-2.6387,-2.5469,-2.5323,-2.5245,-2.5011,0.0,0.0,-2.5029,-2.5234,-2.5696,-2.6603,-2.7567,-2.8878,-3.0561,-3.1137,-3.18,0.0,-3.2026,-3.1436,-3.1185,-3.0369,-2.9741,-2.934,-2.8222,-2.7808,0.0,0.0,0.0,0.0,0.0,0.0,0.0,0.0,0.0,0.0,0.0,0.0,0.0,0.0,0.0,0.0,0.0,0.0,0.0,0.0,0.0,0.0,-0.7709,-0.8069,-0.8258,-0.8438,-0.8669,-0.8991,-0.9144,-0.931,-0.9544,-0.9778,-0.9968,-1.0093,-1.0266,-1.0432,-1.0578,-1.0422,-1.0381,-1.049,-1.1388,-1.3235,-1.6097,-1.7156,-1.9148,-2.1984,-2.1984,-2.1984,-2.1977,-2.181,-2.1597,0.0,-2.1316,-2.1156,-2.0935,-2.1056,-2.1009,0.0,0.0,0.0,0.0,0.0,-1.9693,-1.9616,-1.9931,-2.1533,-2.3571,-2.4229,-2.5835,-2.7549,-2.7549,-2.7295,-2.7012,-2.7012,-2.6758,-2.6562,-2.6924,-2.7012,-2.7109,-2.7461,-2.7422,-2.7285,-2.7285,-2.6865,-2.6582,-2.6943,0.0,0.0,-2.6249,-2.582,-2.5273,-2.468,-2.4602,-2.4602,0.0,-2.4961,-2.5451,-2.6184,-2.7564,-2.8947,-3.0348,-3.101,0.0,0.0,0.0,-3.1185,-3.0394,-3.0068,0.0,0.0,0.0,-2.7645,0.0,0.0,0.0,0.0,-2.7228,-2.6738,0.0,0.0,0.0,0.0,0.0,0.0,0.0,0.0,0.0,0.0,0.0,0.0,0.0,0.0,0.0,0.0,-0.8052,-0.8489,-0.8903,-0.8935,-0.9062,-0.9248,-0.9459,-0.969,-0.9832,-0.994,-1.0209,-1.0473,-1.0507,-1.0585,-1.0738,0.0,0.0,0.0,0.0,-1.4361,-1.6179,-1.8039,-2.0051,-2.2084,-2.2084,-2.2084,-2.2084,-2.2051,-2.175,-2.1269,-2.1503,-2.1373,-2.0842,-2.1069,-2.1136,-2.1082,-2.0788,-2.0514,-2.0247,-1.992,-1.982,0.0,0.0,0.0,0.0,-2.5617,-2.7114,-2.8291,-2.8291,-2.7764,-2.7158,-2.7158,-2.6611,-2.6152,-2.6963,-2.7158,-2.7353,-2.8115,-2.8008,-2.7787,-2.7787,-2.6836,-2.62,-2.7012,-2.6543,-2.62,-2.6963,-2.6084,-2.4883,-2.3637,-2.3461,0.0,-2.3457,-2.4102,-2.4653,-2.4911,0.0,0.0,-2.9761,-3.0797,-3.1876,-3.3048,-3.1637,-3.0344,-2.9302,-2.9151,-2.8436,-2.6989,-2.6901,-2.7354,-2.8298,-2.8298,-2.8812,-2.9741,-2.7794,-2.7392,0.0,0.0,0.0,0.0,0.0,0.0,0.0,0.0,0.0,0.0,0.0,0.0,0.0,0.0,0.0,-0.8085,-0.8516,-0.8879,-0.9083,-0.9323,-0.949,-0.9517,-0.9676,-0.9839,-0.993,-1.0246,-1.0429,-1.0487,-1.0605,-1.0744,-1.083,-1.07,0.0,-1.0786,-1.1212,-1.3157,-1.6645,-1.7311,-1.9347,-2.276,0.0,0.0,-2.2753,-2.2445,-2.2271,-2.2158,-2.1977,-2.1837,-2.1724,-2.1543,-2.1329,-2.1082,-2.0788,-2.0641,-2.0528,-2.0,-1.9947,-2.024,-2.1285,-2.272,-2.4388,-2.5705,-2.7114,-2.8291,-2.8291,-2.8174,0.0,-2.8047,-2.793,-2.7832,-2.7998,-2.8047,-2.8086,-2.8252,-2.8232,-2.8174,-2.8174,-2.7978,-2.7851,-2.8018,-2.791,-2.7744,-2.7568,-2.7041,-2.6435,-2.585,-2.5762,-2.5635,-2.5235,-2.5333,-2.6215,-2.8212,-2.821,-2.9196,-3.2122,-3.1763,-3.1876,-3.3048,-3.234,-3.1813,-3.1587,-3.0746,-3.0131,-2.9817,-2.9377,-2.9252,-2.9465,-2.9465,-2.9578,-2.9779,-2.9352,-2.9264,0.0,0.0,0.0,0.0,0.0,0.0,0.0,0.0,0.0,0.0,0.0,-0.7302,0.0,0.0,-0.8048,-0.8428,-0.8743,-0.9042,-0.934,-0.9513,-0.9608,-0.9608,-0.9802,-0.9995,-1.0151,-1.0361,-1.0524,-1.0602,-1.0748,-1.0799,-1.0877,-1.0945,-1.0945,-1.088,-1.1099,-1.3023,-1.6778,-1.7095,-1.9142,-2.2928,-2.2928,-2.2928,-2.2859,-2.2706,-2.2639,-2.2625,-2.2331,-2.2205,-2.2171,-2.1802,-2.1527,-2.1303,-2.1009,-2.0895,-2.0842,-2.0401,-2.0334,-2.051,-2.0813,-2.2369,-2.4399,-2.4996,-2.661,-2.8291,-2.8291,-2.7988,-2.7656,-2.7656,-2.7344,-2.7109,-2.7549,-2.7656,-2.7764,-2.8193,-2.8291,-2.8291,-2.8291,-2.8291,-2.8291,-2.8291,-2.8291,-2.8223,-2.8018,-2.7793,-2.7363,-2.6514,-2.6387,-2.623,-2.5742,-2.5693,-2.6149,-2.7437,-2.8141,-2.9261,-3.1098,-3.1878,-3.2478,-3.3043,-3.2805,-3.2516,-3.2227,-3.17,-3.1286,-3.1009,-3.0733,-3.0595,-3.0595,-3.0595,-3.0595,-3.0595,-3.0595,-3.0457,0.0,0.0,0.0,0.0,0.0,0.0,0.0,0.0,-0.7297,-0.7237,-0.7438,-0.7634,-0.7787,-0.8011,-0.8258,-0.8726,-0.8927,-0.9161,-0.9554,-0.9632,-0.9663,-0.9693,-0.993,-1.0154,-1.0307,-1.0453,-1.0585,-1.0711,-1.0796,-1.0894,-1.0989,-1.1243,-1.1294,-1.1018,-1.143,-1.3318,-1.6848,-1.7071,-1.9142,-2.2928,-2.2928,-2.2928,-2.2928,-2.2928,-2.2928,-2.2846,-2.2605,-2.2472,-2.2385,-2.1911,-2.1722,-2.1594,-2.1289,-2.1162,-2.1082,-2.0848,-2.0762,-2.0777,-2.072,-2.2149,-2.4104,-2.4596,-2.6211,-2.8012,-2.8203,-2.7812,-2.7266,-2.7266,-2.6768,-2.6396,-2.708,-2.7266,-2.7441,-2.8125,-2.8291,-2.8291,-2.8291,-2.8291,-2.8291,-2.8291,-2.8291,-2.8291,-2.8291,-2.8291,-2.792,-2.6807,-2.6562,-2.6357,-2.5869,-2.5742,-2.5781,-2.6062,-2.8085,-2.959,-3.009,-3.1977,-3.3124,-3.3124,-3.3124,-3.2867,-3.2403,-3.2277,-3.2001,-3.1549,-3.1449,-3.1386,-3.1386,-3.1386,-3.1386,-3.1386,-3.1499,-3.1273,-0.6865,-0.6624,-0.658,-0.6715,-0.7051,-0.7309,0.0,0.0,-0.8065,-0.779,-0.8069,-0.8404,-0.8557,-0.8615,-0.874,-0.9108,-0.9232,-0.9398,-0.9585,-0.972,-0.9846,-0.9923,-1.0151,-1.031,-1.0456,-1.0605,-1.07,-1.0717,-1.0796,-1.1002,-1.1131,-1.1301,-1.144,-1.1541,-1.1592,-1.3365,-1.7107,-1.7157,-1.9142,-2.2928,-2.2928,-2.2928,-2.2928,-2.2928,-2.2928,-2.2928,-2.2894,-2.2665,-2.2412,-2.2352,-2.2017,-2.1614,-2.1581,-2.1343,-2.1109,-2.1076,-2.1062,-2.1204,-2.223,-2.2824,-2.3405,-2.5572,-2.6464,-2.693,-2.7958,-2.8223,-2.8144,-2.8144,-2.8086,-2.8027,-2.8125,-2.8144,-2.8174,-2.8271,-2.8291,-2.8291,-2.8291,-2.8291,-2.8291,-2.8291,-2.8291,-2.8291,-2.8291,-2.8291,-2.8115,-2.765,-2.7197,-2.6787,-2.6367,-2.5977,-2.6149,-2.7268,-2.8588,-3.0271,-3.2525,-3.2939,-3.3124,-3.3124,-3.3124,-3.3056,-3.298,-3.2491,-3.2177,-3.2127,-3.1637,-3.1386,-3.1386,-3.1386,-3.1386,-3.1399,-3.1888,-3.1825,-0.7112,-0.7109,-0.7187,0.0,-0.8295,-0.8952,-0.8108,-0.9461,-1.0646,-0.9676,-1.0364,-1.0883,-1.0125,-1.0066,-0.9919,0.0,-0.934,-0.9462,-0.97,-0.9859,-1.0012,-1.0164,-1.0161,-1.0171,-1.0229,-1.0531,-1.0683,-1.0595,-1.0887,-1.1138,-1.1287,-1.144,-1.1552,-1.1616,-1.1619,-1.3385,-1.7183,-1.7183,-1.9142,-2.2928,-2.2928,-2.2928,-2.2928,-2.2928,-2.2928,-2.2928,-2.2928,-2.2792,-2.2665,-2.2492,-2.2178,-2.179,-2.1681,-2.137,-2.1109,-2.1109,-2.1109,-2.1152,-2.17,-2.2924,-2.4412,-2.5202,-2.6549,-2.7943,-2.8203,-2.8291,-2.8291,-2.8291,-2.8291,-2.8291,-2.8291,-2.8291,-2.8291,-2.8291,-2.8291,-2.8291,-2.8291,-2.8291,-2.8291,-2.8291,-2.8291,-2.8291,-2.8291,-2.8291,-2.8232,-2.8057,-2.7451,-2.6865,-2.6435,-2.6006,-2.6476,-2.8448,-2.9727,-3.1178,-3.2939,-3.3124,-3.3124,-3.3124,-3.3124,-3.3124,-3.3124,-3.2842,-3.2717,-3.2717,-3.2491,-3.2365,-3.2365,-3.2365,-3.2365,-3.2378,-3.2604,-3.2591,-0.7715,-0.7976,0.0,-0.9006,-1.0133,-1.0771,-0.9888,-1.1309,-1.259,-1.1548,-1.2283,-1.2645,-1.122,-1.1054,-1.0791,-0.9568,-0.9415,-0.9534,-0.9785,-0.9889,-1.0014,-1.0148,-1.0093,-0.9936,-0.9815,-1.031,-1.0605,-1.0616,-1.0955,-1.1229,-1.1382,-1.1538,-1.1619,-1.1619,-1.1619,-1.3174,-1.6404,-1.6404,-1.8369,-2.216,-2.216,-2.2372,-2.2928,-2.2928,-2.2928,-2.2928,-2.2928,-2.2928,-2.2914,-2.2632,-2.2325,-2.1964,-2.1822,-2.1443,-2.1109,-2.1109,-2.1109,-2.1109,-2.1109,-2.2427,-2.4149,-2.417,-2.5795,-2.7753,-2.7806,-2.8057,-2.8291,-2.8291,-2.8291,-2.8291,-2.8291,-2.8291,-2.8291,-2.8291,-2.8291,-2.8291,-2.8291,-2.8291,-2.8291,-2.8291,-2.8291,-2.8291,-2.8291,-2.8291,-2.8252,-2.8135,-2.749,-2.6904,-2.6602,-2.6359,-2.7163,-2.9636,-3.0676,-3.1733,-3.2982,-3.3124,-3.3124,-3.3124,-3.3124,-3.3124,-3.3124,-3.3124,-3.3124,-3.3124,-3.3124,-3.3124,-3.3124,-3.3124,-3.3124,-3.3124,-3.3124,-3.3124,-0.8797,0.0,-0.9745,-1.1765,-1.2397,-1.258,-1.2659,-1.2816,-1.2963,-1.2963,-1.3093,-1.2822,-1.137,-1.1185,-1.0872,-0.9582,-0.9507,-0.9652,-0.9798,-0.9889,-0.9933,-0.9852,-0.9899,-0.9818,0.0,-0.9941,-1.0473,-1.0836,-1.1077,-1.1229,-1.1382,-1.1538,-1.1619,-1.1619,-1.1619,-1.2534,-1.4499,-1.4503,-1.6399,-2.0196,-2.0196,-2.1107,-2.2928,-2.2928,-2.2928,-2.2928,-2.2928,-2.2928,-2.2928,-2.2921,-2.2505,-2.1984,-2.1977,-2.1617,-2.1109,-2.1109,-2.1109,-2.1109,-2.1109,-2.1166,-2.1413,-2.2566,-2.3777,-2.5053,-2.6187,-2.7388,-2.8291,-2.8291,-2.8291,-2.8291,-2.8291,-2.8291,-2.8291,-2.8291,-2.8291,-2.8291,-2.8291,-2.8291,-2.8291,-2.8291,-2.8291,-2.8291,-2.8291,-2.8291,-2.8154,-2.7796,-2.7305,-2.7012,-2.6992,-2.7303,-2.8448,-3.0899,-3.1178,-3.1733,-3.2982,-3.3124,-3.3124,-3.3124,-3.3124,-3.3124,-3.3124,-3.3124,-3.3124,-3.3124,-3.3124,-3.3124,-3.3124,-3.3124,-3.3124,-3.3124,-3.3124,-3.3124,-0.9148,0.0,-1.1589,-1.2432,-1.352,-1.4126,-1.3314,-1.4643,-1.5763,-1.48,-1.5088,-1.486,-1.2621,-1.2838,-1.2685,-1.0964,-1.0609,-1.0806,-1.1323,-1.0526,-0.9954,-1.0107,-1.008,0.0,0.0,0.0,0.0,-1.0493,-1.0914,-1.1274,-1.1531,-1.1592,-1.1619,-1.1619,-1.1619,-1.2534,-1.4361,-1.4432,-1.6329,-2.0126,-2.139,-2.2297,-2.2928,-2.2928,-2.2928,-2.2928,-2.2928,-2.2928,-2.2846,-2.2645,-2.2338,-2.1964,-2.177,-2.1456,-2.1109,-2.1109,-2.1109,-2.1109,-2.1109,-2.1853,-2.2783,-2.2887,-2.4447,-2.6298,-2.6439,-2.7342,-2.8291,-2.8291,-2.8291,-2.8291,-2.8291,-2.8291,-2.8291,-2.8291,-2.8291,-2.8291,-2.8291,-2.8291,-2.8291,-2.8291,-2.8291,-2.8291,-2.8291,-2.8291,-2.8047,-2.7334,-2.6865,-2.6774,-2.7339,-2.8231,-2.9407,-3.1033,-3.1965,-3.2612,-3.3068,-3.3124,-3.3124,-3.3124,-3.3124,-3.3124,-3.3124,-3.3124,-3.3124,-3.3124,-3.3124,-3.3124,-3.3124,-3.3124,-3.3124,-3.3124,-3.3124,-3.3124,-1.0033,-1.141,-1.2821,-1.4156,-1.5267,-1.5866,-1.5009,-1.628,-1.7312,-1.6387,-1.6639,-1.6279,-1.3862,-1.4015,-1.3893,-1.2184,-1.1423,-1.1294,-1.2077,-1.0943,-1.0015,-1.0107,-1.0127,0.0,0.0,0.0,0.0,-1.0429,-1.0789,-1.1138,-1.144,-1.1457,-1.1508,-1.1616,-1.1619,-1.2183,-1.3377,-1.3381,-1.5278,-1.9077,-2.1665,-2.2928,-2.2928,-2.2928,-2.2746,-2.2559,-2.2841,-2.2753,-2.2465,-2.2412,-2.2191,-2.181,-2.1688,-2.137,-2.1109,-2.1109,-2.1109,-2.1109,-2.1109,-2.179,-2.268,-2.2348,-2.4073,-2.62,-2.5965,-2.6995,-2.8291,-2.8291,-2.8291,-2.8291,-2.8291,-2.8291,-2.8291,-2.8291,-2.8291,-2.8291,-2.8291,-2.8291,-2.8291,-2.8291,-2.8291,-2.8291,-2.8291,-2.8037,-2.7646,-2.71,-2.6523,-2.6662,-2.8081,-2.8912,-3.0045,-3.1689,-3.2612,-3.3124,-3.3124,-3.3124,-3.3124,-3.3124,-3.3124,-3.3124,-3.3124,-3.3124,-3.3124,-3.3124,-3.3124,-3.3124,-3.3124,-3.3124,-3.3124,-3.3124,-3.3124,-3.3124,-1.1552,-1.2664,-1.364,-1.6788,-1.7582,-1.7582,-1.7582,-1.7582,-1.7575,-1.7542,-1.7502,-1.686,0.0,0.0,-1.4382,-1.3281,-1.1936,-1.1379,-1.2294,-1.1356,-1.0399,0.0,0.0,0.0,0.0,0.0,0.0,-1.07,0.0,-1.0873,-1.1168,-1.1185,-1.1318,-1.1609,-1.1688,-1.176,-1.176,-1.1972,-1.3804,-1.7393,-2.1107,-2.2928,-2.2928,-2.2928,-2.2559,-2.2064,-2.2605,-2.2432,-2.1702,-2.2158,-2.2051,-2.1614,-2.1601,-2.1356,-2.1109,-2.1109,-2.1109,-2.1109,-2.1109,-2.1109,-2.1109,-2.1109,-2.2745,-2.4728,-2.4728,-2.6397,-2.8291,-2.8291,-2.8291,-2.8291,-2.8291,-2.8291,-2.8291,-2.8291,-2.8291,-2.8291,-2.8291,-2.8291,-2.8291,-2.8291,-2.8291,-2.8281,-2.8262,-2.7568,-2.7012,-2.6982,-2.622,-2.661,-2.9085,-2.9407,-3.0361,-3.284,-3.3124,-3.3124,-3.3124,-3.3124,-3.3124,-3.3124,-3.3124,-3.3124,-3.3124,-3.3124,-3.3124,-3.3124,-3.3124,-3.3124,-3.3124,-3.3124,-3.3124,-3.3124,-3.3124,-3.3124,-1.3307,-1.5045,-1.6554,-1.7364,-1.7582,-1.7582,-1.7582,-1.7582,-1.7455,-1.7021,-1.6406,-1.538,0.0,0.0,0.0,-1.4146,-1.3797,0.0,-1.5243,-1.4406,0.0,-1.1747,0.0,-1.1849,-1.0616,-1.0561,0.0,0.0,-1.0924,-1.1182,-1.1487,-1.1504,-1.1538,-1.1616,-1.2956,-1.3658,-1.3658,-1.6545,-1.8444,-1.9356,-2.1741,-2.2928,-2.2928,-2.2928,-2.2847,-2.2639,-2.2565,-2.2405,-2.2178,-2.1891,-2.1748,-2.1594,-2.1309,-2.1176,-2.1109,-2.1109,-2.1109,-2.1109,-2.1109,-2.1109,-2.1109,-2.1109,-2.2745,-2.4728,-2.4728,-2.6397,-2.8291,-2.8291,-2.8291,-2.8291,-2.8291,-2.8291,-2.8291,-2.8291,-2.8291,-2.8291,-2.8291,-2.8291,-2.8291,-2.8291,-2.8291,-2.8193,-2.7881,-2.7373,-2.6904,-2.6592,-2.6084,-2.661,-2.9085,-2.9407,-3.0361,-3.284,-3.3124,-3.3124,-3.3124,-3.3124,-3.3124,-3.3124,-3.3124,-3.3124,-3.3124,-3.3124,-3.3124,-3.3124,-3.3124,-3.3124,-3.3124,-3.3124,-3.3124,-3.3124,-3.3124,-3.3124,-1.436,-1.5712,-1.677,-1.7417,-1.7582,-1.7515,-1.7255,-1.7094,-1.684,-1.6253,-1.5638,0.0,-1.3585,0.0,0.0,0.0,0.0,0.0,-1.6284,-1.5537,-1.442,0.0,-1.3128,0.0,-1.1944,-1.1178,-1.0775,0.0,-1.0948,-1.1101,-1.1402,-1.1419,-1.148,-1.1616,-1.3448,-1.4783,-1.5628,-1.8578,-2.0126,-2.0126,-2.2022,-2.2928,-2.2928,-2.2928,-2.272,-2.2358,0.0,-2.2131,-2.165,-2.1583,-2.1541,-2.1343,-2.1176,-2.1109,-2.1109,-2.1109,-2.1109,-2.1109,-2.1109,-2.1109,-2.1089,-2.0962,-2.2634,-2.4695,-2.4548,-2.6319,-2.8291,-2.8291,-2.8291,-2.8291,-2.8291,-2.8291,-2.8291,-2.8291,-2.8291,-2.8291,-2.8291,-2.8291,-2.8291,-2.8291,-2.8144,-2.7939,-2.7757,-2.7148,-2.666,-2.6426,-2.6016,-2.638,-2.8366,-2.9085,-3.0361,-3.284,-3.3124,-3.3124,-3.3124,-3.3124,-3.3124,-3.3124,-3.3124,-3.3124,-3.3124,-3.3124,-3.3124,-3.3124,-3.3124,-3.3124,-3.3124,-3.3124,-3.3124,-3.3124,-3.3124,-3.3124,-1.5141,-1.566,-1.6015,-1.7259,-1.7582,-1.7448,-1.6941,-1.654,-1.6154,-1.5518,0.0,-1.4687,-1.4175,-1.4295,-1.4843,-1.6025,0.0,-1.5152,-1.639,-1.5928,-1.5332,-1.5119,-1.4149,-1.3543,-1.3626,-1.2242,-1.1459,-1.1884,-1.1656,-1.1443,-1.1275,-1.1223,-1.1622,-1.2316,-1.4152,-1.6051,-1.7949,-1.9634,-2.0473,-2.0479,-2.2091,-2.2908,-2.2806,-2.2806,-2.2365,-2.1702,0.0,0.0,-2.0828,-2.1367,-2.1343,-2.1109,-2.1109,-2.1109,-2.1109,-2.1109,-2.1109,-2.1109,-2.1109,-2.1082,-2.1009,-2.0762,-2.2487,-2.4663,-2.4367,-2.6149,-2.8291,-2.8291,-2.8291,-2.8291,-2.8291,-2.8291,-2.8291,-2.8291,-2.8291,-2.8291,-2.8291,-2.8291,-2.8271,-2.8223,-2.792,-2.7679,-2.7571,-2.6885,-2.6367,-2.6309,-2.5977,-2.6197,-2.7626,-2.8773,-3.0283,-3.2612,-3.2982,-3.3124,-3.3124,-3.3124,-3.3124,-3.3124,-3.3124,-3.3124,-3.3124,-3.3124,-3.3124,-3.3124,-3.3124,-3.3043,-3.2968,-3.2968,-3.2918,-3.2855,-3.2855,-3.2893,-1.6555,-1.7023,-1.7259,-1.7529,-1.7582,-1.7555,-1.7455,-1.6827,0.0,0.0,-1.4583,-1.3915,-1.4062,-1.4128,-1.4543,-1.5718,-1.6361,0.0,0.0,0.0,-1.8311,0.0,0.0,0.0,0.0,0.0,0.0,0.0,0.0,0.0,-1.1664,-1.1541,-1.297,-1.6127,-1.8089,-1.9982,-2.1878,-2.2229,-2.2441,-2.2441,-2.2722,-2.2732,-2.2498,-2.2498,-2.2285,-2.1904,0.0,0.0,-2.1454,-2.1249,-2.1156,-2.1109,-2.1109,-2.1109,-2.1109,-2.1109,-2.1109,-2.1109,-2.1109,-2.0949,-2.0742,-2.0695,-2.2487,-2.4663,-2.4367,-2.6149,-2.8291,-2.8291,-2.8291,-2.8291,-2.8291,-2.8291,-2.8291,-2.8291,-2.8291,-2.8291,-2.8291,-2.8291,-2.8193,-2.7894,-2.7767,-2.7493,-2.6728,-2.6484,-2.6269,-2.5908,-2.5732,-2.6514,-2.8819,-2.9269,-2.9954,-3.1356,-3.2469,-3.3124,-3.3124,-3.3124,-3.3124,-3.3124,-3.3124,-3.3124,-3.3124,-3.3124,-3.3124,-3.3124,-3.3124,-3.2842,-3.2365,-3.2365,-3.2127,-3.1687,-3.1687,-3.1926,-1.7066,-1.7414,-1.7582,-1.7582,-1.7582,-1.7422,-1.6807,0.0,0.0,0.0,-1.32,-1.2541,-1.2879,-1.306,0.0,-1.5337,-1.6219,0.0,0.0,0.0,0.0,0.0,0.0,0.0,0.0,0.0,0.0,0.0,0.0,0.0,-1.4553,-1.4512,-1.5774,-1.8653,-1.9634,-2.0969,-2.2866,-2.2706,-2.2632,-2.2632,-2.2478,-2.2331,-2.2191,-2.2191,-2.2038,-2.175,0.0,0.0,-2.0875,-2.1042,-2.0929,-2.0681,-2.0989,-2.1109,-2.1109,-2.1109,-2.1109,-2.1089,-2.0935,-2.0795,-2.0628,-2.0321,-2.2164,-2.445,-2.4137,-2.6034,-2.8291,-2.8291,-2.8291,-2.8291,-2.8291,-2.8291,-2.8291,-2.8291,-2.8291,-2.8232,-2.8018,-2.7969,-2.7842,-2.7412,-2.7148,-2.6875,-2.6455,-2.6201,-2.5977,-2.5713,-2.5693,-2.638,-2.8226,-2.8993,-3.0135,-3.2008,-3.2754,-3.3124,-3.3124,-3.3124,-3.3124,-3.3124,-3.3124,-3.3124,-3.3124,-3.3124,-3.3124,-3.3124,-3.278,-3.2491,-3.2215,-3.1926,-3.165,-3.1386,-3.1386,-3.1537,-1.734,-1.746,-1.7582,-1.7582,-1.7582,-1.7288,-1.6179,-1.5197,0.0,0.0,-1.2091,-1.1577,-1.2064,-1.2345,-1.3133,0.0,-1.5838,-1.6653,0.0,0.0,0.0,0.0,0.0,0.0,0.0,0.0,0.0,0.0,0.0,0.0,0.0,-1.739,-1.8362,-1.9892,-2.0305,-2.1214,-2.2672,-2.2445,-2.2325,-2.2325,-2.2091,-2.1951,-2.1891,-2.1891,-2.173,-2.1521,0.0,0.0,0.0,-2.0869,-2.0762,-2.0233,-2.0875,-2.1109,-2.1102,-2.1042,-2.1015,-2.0975,-2.0681,-2.0541,-2.0414,-1.9947,-2.1861,-2.4244,-2.3873,-2.5891,-2.8291,-2.8291,-2.8291,-2.8291,-2.8291,-2.8291,-2.8271,-2.8174,-2.8154,-2.8047,-2.7617,-2.7529,-2.7402,-2.6963,-2.6621,-2.6357,-2.6269,-2.5967,-2.5693,-2.5693,-2.5693,-2.6159,-2.7447,-2.8634,-3.0226,-3.2469,-3.2939,-3.3124,-3.3124,-3.3124,-3.3124,-3.3124,-3.3124,-3.3124,-3.3124,-3.3124,-3.3061,-3.2893,-3.2441,-3.2102,-3.1876,-3.1436,-3.116,-3.1047,-3.1047,-3.111,-1.7475,-1.7562,-1.7582,-1.7582,-1.7582,-1.7348,-1.644,0.0,0.0,-1.3353,-1.2238,-1.1728,-1.2886,-1.3106,-1.3627,-1.515,0.0,-1.6199,0.0,0.0,0.0,0.0,0.0,0.0,0.0,0.0,0.0,0.0,0.0,0.0,0.0,-1.8065,-1.909,-1.9291,-2.0917,-2.1932,-2.2064,-2.2038,-2.2024,-2.2024,-2.1997,-2.185,-2.1655,-2.1655,-2.143,-2.1149,0.0,0.0,0.0,-2.0869,-2.0762,-2.0233,-2.0875,-2.1109,-2.1076,-2.0815,-2.0715,-2.0675,-2.0374,-2.01,-1.9873,-1.982,-2.1861,-2.4244,-2.3873,-2.5891,-2.8291,-2.8291,-2.8291,-2.8291,-2.8291,-2.8291,-2.8193,-2.7812,-2.7777,-2.7607,-2.7168,-2.707,-2.6943,-2.6523,-2.6416,-2.626,-2.582,-2.5713,-2.5693,-2.5693,-2.5693,-2.6159,-2.7447,-2.8634,-2.9909,-3.1223,-3.2426,-3.3124,-3.3124,-3.3124,-3.3124,-3.3124,-3.3124,-3.3124,-3.3124,-3.3124,-3.283,-3.2303,-3.224,-3.1738,-3.0758,-3.0708,-3.0432,-2.9942,-2.9942,-3.0206,-1.6974,-1.7315,-1.7582,-1.7582,-1.7507,-1.7099,-1.5985,0.0,-1.3687,-1.2625,-1.1603,-1.1156,-1.1984,-1.2138,-1.2581,-1.4102,0.0,0.0,-1.6978,0.0,0.0,0.0,0.0,0.0,0.0,0.0,0.0,0.0,0.0,0.0,0.0,-2.0251,-2.0908,-2.0908,-2.1582,-2.1984,-2.1984,-2.181,-2.1789,-2.1789,-2.1543,-2.1396,-2.1289,-2.1289,-2.1223,0.0,0.0,0.0,0.0,-2.0722,-2.0555,-1.9806,-2.0742,-2.1002,-2.0835,-2.0722,-2.0561,-2.0368,-2.0074,-1.99,-1.9773,-1.9599,-2.0945,-2.2826,-2.3584,-2.527,-2.7168,-2.8067,-2.8291,-2.8291,-2.8291,-2.8105,-2.7924,-2.7757,-2.7461,-2.7158,-2.6728,-2.6641,-2.6514,-2.6074,-2.5996,-2.5937,-2.5713,-2.5693,-2.5693,-2.5693,-2.5693,-2.6159,-2.7447,-2.8002,-2.9039,-3.0989,-3.2326,-3.3124,-3.3124,-3.3124,-3.3124,-3.3124,-3.3124,-3.2918,-3.2566,-3.2554,-3.229,-3.1725,-3.1411,-3.1047,-3.062,-3.0281,-3.0005,-2.9792,-2.9792,-2.9905,-1.6366,-1.6874,-1.7321,-1.7321,-1.7041,-1.6522,0.0,0.0,-1.3093,-1.2114,-1.1203,-1.0794,-1.143,-1.1483,-1.1875,0.0,0.0,-1.481,-1.652,0.0,0.0,0.0,0.0,0.0,0.0,0.0,0.0,0.0,0.0,0.0,0.0,0.0,-2.1724,-2.1724,-2.1724,-2.1724,-2.1724,-2.1523,-2.1423,-2.1423,-2.1209,-2.1015,-2.0855,-2.1029,-2.1015,0.0,0.0,0.0,0.0,-2.0702,-2.0468,-1.9593,-2.0588,-2.0802,-2.0535,-2.0448,-2.0281,-2.006,-1.9773,-1.9673,-1.9639,-1.9432,-2.009,-2.1316,-2.3207,-2.4875,-2.6436,-2.7897,-2.8203,-2.8105,-2.8105,-2.7793,-2.7441,-2.7314,-2.7051,-2.6709,-2.6289,-2.6191,-2.6103,-2.5742,-2.5693,-2.5693,-2.5693,-2.5693,-2.5693,-2.5693,-2.5693,-2.6014,-2.6945,-2.7673,-2.8773,-3.0496,-3.2152,-3.3124,-3.3124,-3.3124,-3.3124,-3.3124,-3.2918,-3.2641,-3.2227,-3.2051,-3.1712,-3.1173,-3.0809,-3.0532,-3.0369,-2.998,-2.9792,-2.9792,-2.9792,-2.9792,-1.5758,-1.6266,-1.6714,-1.6714,-1.6273,-1.5611,0.0,-1.3648,-1.2623,-1.2027,-1.1203,-1.0861,-1.1739,-1.1623,-1.1875,-1.336,-1.4093,0.0,-1.5671,0.0,0.0,0.0,0.0,0.0,0.0,0.0,0.0,0.0,0.0,0.0,0.0,0.0,-2.1116,-2.1116,-2.1116,-2.1116,-2.1116,-2.1116,-2.1116,-2.1116,-2.1109,-2.0808,-2.02,-2.0842,0.0,0.0,0.0,0.0,0.0,-2.0862,-2.0588,-1.9853,-2.0448,-2.0501,-2.014,-1.9913,-1.9806,-1.9766,-1.9472,-1.943,-1.943,-1.9424,-1.9424,-1.9982,-2.2934,-2.4875,-2.6436,-2.7897,-2.7988,-2.7728,-2.7728,-2.7344,-2.6914,-2.6504,-2.6396,-2.6279,-2.5791,-2.5693,-2.5693,-2.5693,-2.5693,-2.5693,-2.5693,-2.5693,-2.5693,-2.5693,-2.5693,-2.5693,-2.5742,-2.7851,-2.9407,-2.9407,-3.1645,-3.3124,-3.3124,-3.3124,-3.3124,-3.3124,-3.2541,-3.2227,-3.2215,-3.1687,-3.116,-3.0633,-3.062,-3.0344,-2.9804,-2.9792,-2.9792,-2.9792,-2.9792,-2.9792,-1.4803,-1.5217,-1.5564,-1.5564,-1.5224,-1.4712,-1.4033,-1.3313,-1.2616,-1.2027,-1.1363,-1.1095,-1.1779,-1.1623,-1.1875,-1.336,-1.376,0.0,0.0,0.0,0.0,0.0,0.0,0.0,0.0,0.0,0.0,0.0,0.0,0.0,0.0,0.0,0.0,-2.1109,-2.1109,-2.1109,-2.1109,-2.1109,-2.1109,-2.1109,-2.1109,-2.0802,-2.0193,0.0,0.0,0.0,0.0,0.0,0.0,-2.0575,-2.0294,-1.9559,-2.0147,-2.0194,-1.9927,-1.9833,-1.9673,-1.9492,-1.9457,-1.9424,-1.9424,-1.9424,-2.009,-2.1259,-2.3207,-2.4156,-2.4989,-2.7275,-2.7826,-2.765,-2.7295,-2.6904,-2.6553,-2.6426,-2.6162,-2.5908,-2.5713,-2.5693,-2.5693,-2.5693,-2.5693,-2.5693,-2.5693,-2.5693,-2.5693,-2.5693,-2.5693,-2.5693,-2.5693,-2.7173,-2.8495,-2.9315,-3.0505,-3.1748,-3.2988,-3.2717,-3.2491,-3.2491,-3.1964,-3.1486,-3.1135,-3.0959,-3.0608,-3.0068,-3.0055,-2.9967,-2.9792,-2.9792,-2.9792,-2.9792,-2.9792,-2.9792,-1.3868,-1.4322,-1.4673,-1.4673,-1.4329,0.0,-1.3527,-1.2839,-1.2214,-1.1953,-1.1611,-1.1436,-1.1839,-1.194,-1.2191,-1.2967,-1.366,0.0,0.0,0.0,0.0,0.0,0.0,0.0,0.0,0.0,0.0,0.0,0.0,0.0,0.0,0.0,0.0,-2.0949,-2.1049,-2.1109,-2.1109,-2.1109,-2.1109,-2.1109,-2.0995,-2.0635,-2.0087,0.0,0.0,0.0,0.0,0.0,0.0,-2.0354,-2.012,-1.9566,-1.9927,-1.9893,-1.9639,-1.9639,-1.9519,-1.9424,-1.9424,-1.9424,-1.9424,-1.9424,-2.0351,-2.1736,-2.3125,-2.4395,-2.5622,-2.7242,-2.7483,-2.7119,-2.6846,-2.6465,-2.6143,-2.6143,-2.5937,-2.5693,-2.5693,-2.5693,-2.5693,-2.5693,-2.5693,-2.5693,-2.5693,-2.5693,-2.5693,-2.5693,-2.5693,-2.5693,-2.5693,-2.6659,-2.7772,-2.8991,-2.9753,-3.0779,-3.2319,-3.2102,-3.1901,-3.1901,-3.1399,-3.0947,-3.0633,-3.0419,-3.0143,-2.9804,-2.9792,-2.9792,-2.9792,-2.9792,-2.9792,-2.9792,-2.9792,-2.9792,0.0,-1.3514,-1.3928,-1.3928,0.0,0.0,-1.3106,-1.2238,0.0,-1.1899,-1.1953,-1.1953,-1.202,-1.2496,-1.279,-1.2472,-1.3874,0.0,0.0,0.0,0.0,0.0,0.0,0.0,0.0,0.0,0.0,0.0,0.0,0.0,0.0,0.0,0.0,0.0,-2.0909,-2.1049,-2.1049,-2.1049,-2.1029,-2.0982,-2.0755,-2.0314,-1.972,0.0,0.0,0.0,0.0,0.0,0.0,-2.0201,-2.0034,-1.9766,-1.9766,-1.9606,-1.9424,-1.9424,-1.9424,-1.9424,-1.9424,-1.9424,-1.9424,-1.9513,-2.0295,-2.1395,-2.2762,-2.5219,-2.7503,-2.7578,-2.7002,-2.6387,-2.6357,-2.6045,-2.5693,-2.5693,-2.5693,-2.5693,-2.5693,-2.5693,-2.5693,-2.5693,-2.5693,-2.5693,-2.5693,-2.5693,-2.5693,-2.5693,-2.5693,-2.5674,-2.5645,-2.6478,-2.7415,-2.8444,-2.9328,-3.0269,-3.1254,-3.1336,-3.1336,-3.1336,-3.0846,-3.0557,-3.0557,-3.0068,-2.9792,-2.9792,-2.9792,-2.9792,-2.9792,-2.9792,-2.9792,-2.9792,-2.9792,-2.9792,-1.2204,0.0,-1.2429,-1.2429,-1.2118,-1.1904,0.0,-1.179,-1.1637,-1.2422,-1.2395,-1.2412,-1.306,-1.3527,-1.3748,-1.3681,-1.4583,0.0,0.0,0.0,0.0,0.0,0.0,0.0,0.0,0.0,0.0,0.0,0.0,0.0,0.0,0.0,0.0,0.0,-2.0408,-2.0434,-2.0434,-2.0434,-2.0221,-1.978,-2.0154,-1.9793,0.0,0.0,0.0,0.0,0.0,0.0,0.0,-1.99,-1.9733,-1.9466,-1.9466,-1.9491,-1.9424,-1.9424,-1.9424,-1.9424,-1.9424,-1.9424,-1.9557,-2.0415,-2.0774,-2.11,-2.2551,-2.421,-2.5796,-2.6514,-2.6543,-2.6309,-2.5977,-2.5762,-2.5693,-2.5693,-2.5693,-2.5693,-2.5693,-2.5693,-2.5693,-2.5693,-2.5693,-2.5693,-2.5693,-2.5693,-2.5693,-2.5693,-2.5693,-2.5567,-2.5273,-2.6995,-2.8176,-2.8053,-2.9487,-3.0502,-3.0756,-3.0796,-3.0796,-3.0796,-3.0281,-2.9993,-2.9993,-2.9867,-2.9792,-2.9792,-2.9792,-2.9792,-2.9792,-2.9792,-2.9792,-2.9792,-2.9792,-2.9792,-1.155,-1.1799,-1.2134,-1.2275,-1.1986,-1.1744,-1.2208,-1.173,-1.1476,-1.2395,-1.2412,-1.2538,-1.3267,-1.3687,0.0,0.0,-1.4596,0.0,0.0,0.0,0.0,0.0,0.0,0.0,0.0,0.0,0.0,0.0,0.0,0.0,0.0,0.0,0.0,0.0,0.0,-1.996,-2.0227,-2.0173,-1.994,-1.943,-1.982,-1.9559,0.0,0.0,0.0,0.0,0.0,0.0,-1.9579,-1.9312,-1.9265,-1.9424,-1.9424,-1.9424,-1.9424,-1.9424,-1.9424,-1.9424,-1.9424,-1.9279,-1.9226,-1.9738,-1.969,-1.9866,-2.192,-2.2951,-2.3743,-2.5075,-2.5764,-2.6035,-2.5752,-2.5693,-2.5693,-2.5693,-2.5693,-2.5693,-2.5693,-2.5693,-2.5693,-2.5693,-2.5693,-2.5693,-2.5693,-2.5566,-2.543,-2.543,-2.5254,-2.5039,-2.4805,-2.6146,-2.7239,-2.7485,-2.8669,-2.9668,-3.0192,-3.0231,-3.0231,-3.0231,-2.9955,-2.9792,-2.9792,-2.9792,-2.9792,-2.9792,-2.9792,-2.9792,-2.9792,-2.9792,-2.9792,-2.9792,-2.9792,-2.9792,-1.1129,-1.1637,-1.2305,-1.2643,-1.2241,-1.194,-1.2569,-1.1806,-1.1216,-1.2231,0.0,0.0,0.0,-1.382,0.0,0.0,0.0,0.0,0.0,0.0,0.0,0.0,0.0,0.0,0.0,0.0,0.0,0.0,0.0,0.0,0.0,0.0,0.0,0.0,0.0,0.0,-2.0094,-2.01,-1.9806,-1.9296,-1.9573,-1.9426,-1.8871,-1.9212,0.0,0.0,0.0,0.0,-1.9383,-1.8831,-1.8918,-1.9424,-1.9424,-1.9424,-1.9424,-1.9424,-1.9397,-1.9292,-1.931,-1.9038,-1.8751,-1.8504,-1.8223,-1.8393,-2.094,-2.1702,-2.2064,-2.3726,-2.493,-2.5693,-2.5693,-2.5693,-2.5693,-2.5693,-2.5693,-2.5693,-2.5693,-2.5635,-2.5586,-2.5586,-2.5538,-2.5489,-2.5489,-2.5215,-2.4971,-2.4971,-2.4648,-2.4394,-2.4336,-2.4964,-2.5774,-2.6664,-2.7574,-2.8478,-2.9456,-2.9702,-2.9792,-2.9792,-2.9792,-2.9792,-2.9792,-2.9792,-2.9792,-2.9792,-2.9792,-2.9792,-2.9792,-2.9792,-2.9792,-2.9792,-2.9792,-2.9792,-1.1335,-1.1637,-1.204,-1.2298,-1.1744,-1.1349,-1.2178,-1.1497,-1.1122,-1.2732,0.0,0.0,0.0,-1.5792,-1.6139,0.0,0.0,0.0,0.0,0.0,0.0,0.0,0.0,0.0,0.0,0.0,0.0,0.0,0.0,0.0,0.0,0.0,0.0,0.0,0.0,0.0,0.0,-1.9499,-1.9205,-1.8631,-1.9172,-1.9125,-1.8577,-1.9118,-1.9424,0.0,0.0,0.0,-1.9417,-1.933,-1.9343,-1.9424,-1.9424,-1.9424,-1.9424,-1.9424,-1.9205,-1.8958,-1.8711,-1.843,-1.8122,-1.8075,-1.7903,-1.7966,-1.9502,-2.0783,-2.1963,-2.3406,-2.4705,-2.5693,-2.5693,-2.5693,-2.5693,-2.5693,-2.5693,-2.5693,-2.5693,-2.5439,-2.5166,-2.5166,-2.4873,-2.4619,-2.4619,-2.456,-2.4521,-2.4521,-2.4463,-2.4287,-2.3935,-2.4771,-2.5343,-2.519,-2.6935,-2.8176,-2.8347,-2.9236,-2.9792,-2.9792,-2.9792,-2.9792,-2.9792,-2.9792,-2.9792,-2.9792,-2.9792,-2.9792,-2.9792,-2.9792,-2.9792,-2.9792,-2.9792,-2.9792,-1.0955,-1.1209,-1.1617,-1.2559,-1.2124,-1.1824,-1.3186,-1.2218,-1.1623,-1.3728,0.0,0.0,0.0,0.0,0.0,0.0,0.0,0.0,0.0,0.0,0.0,0.0,0.0,0.0,0.0,0.0,0.0,0.0,0.0,0.0,0.0,0.0,0.0,0.0,0.0,0.0,0.0,-1.9205,-1.8911,-1.8497,-1.9085,-1.9058,-1.851,-1.9098,-1.9424,0.0,0.0,-1.9078,-1.9339,-1.9025,-1.9085,-1.9424,-1.9424,-1.9265,-1.9112,-1.8951,-1.8811,-1.8651,-1.835,-1.8109,-1.7962,-1.7849,-1.7702,-1.7838,-1.9169,-2.059,-2.2005,-2.3335,-2.4667,-2.5693,-2.5693,-2.5693,-2.5693,-2.5693,-2.5557,-2.5371,-2.5371,-2.5029,-2.4717,-2.4717,-2.4551,-2.4414,-2.4414,-2.4228,-2.4082,-2.4082,-2.3877,-2.3608,-2.3467,-2.4918,-2.5933,-2.5746,-2.7706,-2.9028,-2.9028,-2.9495,-2.9792,-2.9792,-2.9792,-2.9792,-2.9792,-2.9792,-2.9792,-2.9792,-2.9792,-2.9792,-2.9792,-2.9792,-2.9792,-2.9792,-2.9792,-2.9792,-1.0673,-1.0854,-1.1316,-1.2665,-1.2325,-1.2164,-1.4082,-1.3106,-1.2416,-1.4562,0.0,0.0,0.0,0.0,0.0,0.0,0.0,0.0,0.0,0.0,0.0,0.0,0.0,0.0,0.0,0.0,0.0,0.0,0.0,0.0,0.0,0.0,0.0,0.0,0.0,0.0,0.0,-1.8938,-1.8744,-1.8597,-1.8978,-1.8925,-1.851,-1.9025,-1.9265,-1.9239,-1.8865,-1.8951,-1.9383,-1.8811,-1.8858,-1.9259,-1.9185,-1.9025,-1.8784,-1.8497,-1.8384,-1.8343,-1.8043,-1.7889,-1.7849,-1.7662,-1.7582,-1.7838,-1.9169,-2.059,-2.2005,-2.3335,-2.4667,-2.5693,-2.5693,-2.5693,-2.5664,-2.5605,-2.5322,-2.5086,-2.4941,-2.457,-2.4268,-2.4268,-2.4189,-2.4121,-2.4121,-2.3848,-2.3633,-2.3633,-2.3305,-2.3091,-2.3091,-2.4851,-2.6099,-2.6099,-2.8079,-2.9495,-2.9792,-2.9792,-2.9792,-2.9792,-2.9792,-2.9792,-2.9792,-2.9792,-2.9792,-2.9792,-2.9792,-2.9792,-2.9792,-2.9792,-2.9792,-2.9792,-2.9792,-2.9792,-1.0889,-1.0982,-1.1216,-1.2138,-1.1703,-1.1663,-1.3988,-1.3715,-1.335,-1.4729,0.0,0.0,0.0,0.0,0.0,0.0,0.0,0.0,0.0,0.0,0.0,0.0,0.0,0.0,0.0,0.0,0.0,0.0,0.0,0.0,0.0,0.0,0.0,0.0,0.0,0.0,0.0,-1.8537,-1.8644,-1.8891,-1.8657,-1.8531,-1.8504,-1.8811,-1.8958,-1.8965,-1.9199,-1.9383,-1.9339,-1.9025,-1.8918,-1.8925,-1.8657,-1.8544,-1.8484,-1.8135,-1.8029,-1.7982,-1.7722,-1.7615,-1.7609,-1.7589,-1.7582,-1.7838,-1.9169,-2.059,-2.2005,-2.3335,-2.4667,-2.5693,-2.5693,-2.5693,-2.5635,-2.5215,-2.5135,-2.4998,-2.4551,-2.4131,-2.3838,-2.3838,-2.3506,-2.3188,-2.3188,-2.3159,-2.314,-2.314,-2.311,-2.3091,-2.3091,-2.4168,-2.4914,-2.4914,-2.6889,-2.8636,-2.9702,-2.9792,-2.9792,-2.9792,-2.9792,-2.9792,-2.9792,-2.9792,-2.9792,-2.9792,-2.9792,-2.9792,-2.9792,-2.9792,-2.9792,-2.9792,-2.9792,-2.9792,-1.0727,-1.1302,-1.2023,-1.2702,-1.2519,-1.2861,-1.5443,-1.4567,-1.3998,-1.7001,-1.6391,0.0,0.0,0.0,0.0,0.0,0.0,0.0,0.0,0.0,0.0,0.0,0.0,0.0,0.0,0.0,0.0,0.0,0.0,0.0,0.0,0.0,0.0,0.0,0.0,0.0,0.0,0.0,-1.8215,-1.8322,-1.8457,-1.849,-1.8497,-1.8604,-1.8651,-1.8657,-1.8778,-1.8824,-1.8811,-1.8698,-1.8651,-1.8624,-1.833,-1.8217,-1.8176,-1.7869,-1.7756,-1.7742,-1.7622,-1.7582,-1.7582,-1.7582,-1.7582,-1.7687,-1.8199,-1.9317,-2.0645,-2.1728,-2.297,-2.4225,-2.5121,-2.5322,-2.5205,-2.4766,-2.4463,-2.4228,-2.4062,-2.3691,-2.3344,-2.3344,-2.3208,-2.3091,-2.3091,-2.3091,-2.3091,-2.3091,-2.3091,-2.3091,-2.3091,-2.4092,-2.4787,-2.4787,-2.6767,-2.8557,-2.9702,-2.9792,-2.9792,-2.9792,-2.9792,-2.9792,-2.9792,-2.9792,-2.9792,-2.9792,-2.9792,-2.9792,-2.9792,-2.9792,-2.9792,-2.9792,-2.9792,-2.9792,-1.1167,-1.1764,-1.2665,-1.3703,0.0,0.0,-1.7518,-1.6363,-1.5321,-1.8201,-1.7026,-1.5404,-1.5124,0.0,0.0,0.0,0.0,0.0,0.0,0.0,0.0,0.0,0.0,0.0,0.0,0.0,0.0,0.0,0.0,0.0,0.0,0.0,0.0,0.0,0.0,0.0,0.0,0.0,-1.7849,-1.7903,-1.811,-1.8203,-1.821,-1.831,-1.835,-1.8357,-1.845,-1.849,-1.8484,-1.839,-1.829,-1.8183,-1.7976,-1.7849,-1.7876,-1.7662,-1.7582,-1.7582,-1.7582,-1.7582,-1.7582,-1.7582,-1.7582,-1.7582,-1.7582,-1.874,-2.0175,-2.0825,-2.2157,-2.3605,-2.4454,-2.4766,-2.4756,-2.4326,-2.4004,-2.375,-2.3613,-2.3305,-2.3091,-2.3091,-2.3091,-2.3091,-2.3091,-2.3091,-2.3091,-2.3091,-2.3091,-2.3091,-2.3091,-2.4092,-2.5073,-2.5786,-2.7186,-2.8557,-2.9702,-2.9792,-2.9792,-2.9792,-2.9792,-2.9792,-2.9792,-2.9792,-2.9792,-2.9792,-2.9792,-2.9792,-2.9792,-2.9792,-2.9792,-2.9792,-2.9792,-2.9792,-1.2385,-1.2417,-1.2939,-1.5065,0.0,0.0,-2.0047,-1.922,-1.7433,-1.7821,-1.7714,-1.7308,-1.6426,0.0,0.0,0.0,0.0,0.0,0.0,0.0,0.0,0.0,0.0,0.0,0.0,0.0,0.0,0.0,0.0,0.0,0.0,0.0,0.0,0.0,0.0,0.0,0.0,0.0,-1.7582,-1.7582,-1.7582,-1.7582,-1.7595,-1.7903,-1.7989,-1.8002,-1.8357,-1.8484,-1.8457,-1.8109,-1.7862,-1.7582,-1.7582,-1.7582,-1.7582,-1.7582,-1.7582,-1.7582,-1.7582,-1.7582,-1.7582,-1.7582,-1.7582,-1.7582,-1.7582,-1.9184,-2.0999,-2.0991,-2.2637,-2.427,-2.3887,-2.4092,-2.4297,-2.3887,-2.3779,-2.3662,-2.3188,-2.3091,-2.3091,-2.3091,-2.3091,-2.3091,-2.3091,-2.3091,-2.3091,-2.3091,-2.3091,-2.3091,-2.3091,-2.4092,-2.565,-2.7844,-2.8084,-2.8557,-2.9702,-2.9792,-2.9792,-2.9792,-2.9792,-2.9792,-2.9792,-2.9792,-2.9792,-2.9792,-2.9792,-2.9792,-2.9792,-2.9792,-2.9792,-2.9792,-2.9792,-2.9792,-1.1936,-1.2856,0.0,-1.4183,0.0,0.0,0.0,-1.8835,0.0,0.0,-1.7668,-1.6693,-1.5818,0.0,0.0,0.0,0.0,0.0,0.0,0.0,0.0,0.0,0.0,0.0,0.0,0.0,0.0,0.0,0.0,0.0,0.0,0.0,0.0,0.0,0.0,0.0,0.0,0.0,0.0,-1.7582,-1.7582,-1.7582,-1.7589,-1.7675,-1.7722,-1.7722,-1.7816,-1.7849,-1.7842,-1.7756,-1.7662,-1.7582,-1.7582,-1.7582,-1.7582,-1.7582,-1.7582,-1.7582,-1.7582,-1.7582,-1.7582,-1.7582,-1.7442,-1.7333,-1.7333,-1.821,-1.937,-2.0038,-2.1365,-2.2667,-2.3171,-2.3383,-2.3442,-2.3315,-2.3286,-2.3257,-2.312,-2.3091,-2.3091,-2.3091,-2.3091,-2.3091,-2.3091,-2.3091,-2.3091,-2.3091,-2.3091,-2.3091,-2.3091,-2.4092,-2.5378,-2.6842,-2.7643,-2.8557,-2.9702,-2.9792,-2.9792,-2.9792,-2.9792,-2.9792,-2.9792,-2.9792,-2.9792,-2.9792,-2.9792,-2.9792,-2.9792,-2.9792,-2.9792,-2.9792,-2.9792,-2.9792,-1.3841,-1.4786,0.0,-1.6735,-1.779,-1.8788,-1.9477,0.0,0.0,0.0,0.0,0.0,0.0,0.0,0.0,0.0,0.0,0.0,0.0,0.0,0.0,0.0,0.0,0.0,0.0,0.0,0.0,0.0,0.0,0.0,0.0,0.0,0.0,0.0,0.0,0.0,0.0,0.0,0.0,0.0,-1.7407,-1.746,-1.7467,-1.7528,-1.7582,-1.7582,-1.7582,-1.7582,-1.7582,-1.7582,-1.7582,-1.7582,-1.7582,-1.7582,-1.7582,-1.7582,-1.7582,-1.7582,-1.7582,-1.7582,-1.7562,-1.7501,-1.7347,-1.7179,-1.7058,-1.7647,-1.8562,-1.962,-2.0715,-2.1807,-2.2842,-2.3091,-2.3091,-2.3091,-2.3091,-2.3091,-2.3091,-2.3091,-2.3091,-2.3091,-2.3091,-2.3091,-2.3091,-2.3091,-2.3091,-2.3091,-2.3091,-2.3091,-2.3091,-2.3714,-2.4713,-2.6348,-2.7087,-2.8119,-2.9663,-2.9792,-2.9792,-2.9792,-2.9792,-2.9792,-2.9792,-2.9792,-2.9792,-2.9792,-2.9792,-2.9792,-2.9792,-2.9792,-2.9792,-2.9792,-2.9792,-2.9792,-1.6954,-1.7351,0.0,-2.0804,-2.0171,0.0,-2.1128,-2.0323,-1.9664,-2.1162,0.0,0.0,0.0,0.0,0.0,0.0,0.0,0.0,0.0,0.0,0.0,0.0,0.0,0.0,0.0,0.0,0.0,0.0,0.0,0.0,0.0,0.0,0.0,0.0,0.0,0.0,0.0,0.0,0.0,0.0,0.0,-1.7159,-1.7172,-1.7435,-1.7582,-1.7582,-1.7582,-1.7582,-1.7582,-1.7582,-1.7582,-1.7582,-1.7582,-1.7582,-1.7582,-1.7555,-1.7542,-1.7542,-1.7515,-1.7502,-1.7462,-1.7246,-1.7146,-1.7072,-1.6747,-1.7379,-1.8451,-1.9562,-2.0654,-2.1702,-2.2818,-2.3091,-2.3091,-2.3091,-2.3091,-2.3091,-2.3091,-2.3091,-2.3091,-2.3091,-2.3091,-2.3091,-2.3091,-2.3091,-2.3091,-2.3091,-2.3091,-2.3135,-2.3266,-2.3343,-2.4221,-2.6389,-2.673,-2.7597,-2.9624,-2.9792,-2.9792,-2.9792,-2.9792,-2.9792,-2.9792,-2.9792,-2.9792,-2.9792,-2.9792,-2.9792,-2.9792,-2.9792,-2.9792,-2.9792,-2.9792,-2.9792,-1.6076,-1.6921,0.0,0.0,-1.9298,-2.0968,-2.4017,-2.2309,-2.0111,0.0,0.0,0.0,0.0,0.0,0.0,0.0,0.0,0.0,0.0,0.0,0.0,0.0,0.0,0.0,0.0,0.0,0.0,0.0,0.0,0.0,0.0,0.0,0.0,0.0,0.0,0.0,0.0,0.0,-1.6707,0.0,-1.6774,-1.68,-1.682,-1.7348,-1.7582,-1.7582,-1.7582,-1.7582,-1.7582,-1.7582,-1.7582,-1.7582,-1.7582,-1.7582,-1.7555,-1.738,-1.7293,-1.7259,-1.6974,-1.6894,-1.6887,-1.682,-1.6647,-1.6496,-1.6386,-1.771,-1.9244,-1.9512,-2.1105,-2.2775,-2.3047,-2.3091,-2.3091,-2.3091,-2.3091,-2.3091,-2.3091,-2.3091,-2.3091,-2.3091,-2.3091,-2.3091,-2.3091,-2.3091,-2.3091,-2.3091,-2.3091,-2.342,-2.4339,-2.5221,-2.6265,-2.7602,-2.8569,-2.9287,-2.9753,-2.9792,-2.9792,-2.9792,-2.9792,-2.9792,-2.9792,-2.9792,-2.9792,-2.9792,-2.9792,-2.9792,-2.9792,-2.9792,-2.9792,-2.9792,-2.9792,-2.9792,-1.6385,0.0,0.0,-1.9609,0.0,-2.265,-2.3626,-2.3363,0.0,0.0,0.0,0.0,0.0,0.0,0.0,0.0,0.0,0.0,0.0,0.0,0.0,0.0,0.0,0.0,0.0,0.0,0.0,0.0,0.0,0.0,0.0,0.0,0.0,0.0,0.0,0.0,-1.65,-1.6353,-1.6286,-1.6286,-1.6433,-1.6573,-1.6714,-1.7021,-1.7161,-1.7161,-1.7161,-1.7161,-1.7161,-1.7161,-1.7161,-1.7161,-1.7161,-1.7161,-1.7141,-1.6994,-1.6941,-1.6914,-1.676,-1.6707,-1.6687,-1.6547,-1.6393,-1.6392,-1.6814,-1.7764,-1.8864,-2.0034,-2.1257,-2.235,-2.296,-2.3091,-2.3091,-2.3091,-2.3091,-2.3091,-2.3091,-2.3091,-2.3091,-2.3091,-2.3091,-2.3091,-2.3091,-2.3091,-2.3091,-2.3091,-2.3091,-2.3299,-2.392,-2.4967,-2.613,-2.7209,-2.8319,-2.9197,-2.9753,-2.9792,-2.9792,-2.9792,-2.9792,-2.9792,-2.9792,-2.9792,-2.9792,-2.9792,-2.9792,-2.9792,-2.9792,-2.9792,-2.9792,-2.9792,-2.9792,-2.9792,-1.6776,0.0,-2.0332,-2.208,-2.3193,0.0,-2.2493,-2.3664,0.0,0.0,0.0,0.0,0.0,0.0,0.0,0.0,0.0,0.0,0.0,0.0,0.0,0.0,0.0,0.0,0.0,0.0,0.0,0.0,0.0,0.0,0.0,0.0,0.0,0.0,0.0,0.0,-1.6192,-1.5952,-1.5784,-1.5784,-1.6079,-1.6319,-1.6553,-1.6553,-1.6613,-1.6707,-1.6707,-1.6707,-1.6707,-1.6707,-1.6707,-1.6707,-1.6707,-1.6707,-1.67,-1.6647,-1.6627,-1.662,-1.6573,-1.6553,-1.6513,-1.6273,-1.6192,-1.6387,-1.7399,-1.787,-1.8457,-2.0666,-2.1426,-2.1845,-2.2818,-2.3091,-2.3091,-2.3091,-2.3091,-2.3091,-2.3091,-2.3091,-2.3091,-2.3091,-2.3091,-2.3091,-2.3091,-2.3091,-2.3091,-2.3091,-2.3091,-2.3178,-2.3387,-2.4211,-2.5294,-2.6637,-2.7562,-2.8557,-2.9702,-2.9792,-2.9792,-2.9792,-2.9792,-2.9792,-2.9792,-2.9792,-2.9792,-2.9792,-2.9792,-2.9792,-2.9792,-2.9792,-2.9792,-2.9792,-2.9792,-2.9792,0.0,0.0,-2.0332,0.0,-2.2038,-2.2045,0.0,0.0,0.0,0.0,0.0,0.0,0.0,0.0,0.0,0.0,0.0,0.0,0.0,0.0,0.0,0.0,0.0,0.0,0.0,0.0,0.0,0.0,0.0,0.0,0.0,0.0,0.0,0.0,0.0,0.0,-1.5885,-1.5798,-1.5784,-1.5784,-1.5872,-1.5912,-1.5898,-1.5898,-1.6226,-1.6707,-1.6707,-1.6707,-1.6707,-1.6707,-1.6707,-1.6707,-1.6707,-1.6707,-1.6673,-1.6426,-1.6333,-1.6293,-1.6032,-1.5898,-1.5891,-1.5905,-1.5885,-1.6116,-1.7333,-1.8411,-1.9542,-2.0935,-2.2031,-2.2906,-2.3047,-2.3091,-2.3091,-2.3091,-2.3091,-2.3091,-2.3091,-2.3091,-2.3091,-2.3091,-2.3091,-2.3091,-2.3091,-2.3091,-2.3091,-2.3091,-2.3091,-2.3474,-2.4457,-2.4713,-2.5577,-2.7683,-2.8004,-2.8557,-2.9702,-2.9792,-2.9792,-2.9792,-2.9792,-2.9792,-2.9792,-2.9792,-2.9792,-2.9792,-2.9792,-2.9792,-2.9792,-2.9792,-2.9792,-2.9792,-2.9792,-2.9792,-1.7151,-1.8514,-1.9748,0.0,-2.1999,-2.1687,0.0,0.0,0.0,0.0,0.0,0.0,0.0,0.0,0.0,0.0,0.0,0.0,0.0,0.0,0.0,0.0,0.0,0.0,0.0,0.0,0.0,0.0,0.0,0.0,0.0,-1.8048,-1.7131,-1.5825,-1.5784,0.0,-1.5784,-1.5784,-1.5784,-1.5784,-1.5784,-1.5784,-1.5784,-1.5784,-1.5924,-1.6219,-1.6219,-1.6219,-1.6219,-1.6219,-1.6219,-1.6219,-1.6219,-1.6219,-1.6199,-1.6072,-1.6025,-1.6005,-1.5872,-1.5784,-1.5784,-1.5784,-1.5784,-1.615,-1.8133,-1.9085,-1.9898,-2.1765,-2.2677,-2.3091,-2.3091,-2.3091,-2.3091,-2.3091,-2.3091,-2.3091,-2.3091,-2.3091,-2.3091,-2.3091,-2.3091,-2.3091,-2.3091,-2.3091,-2.3091,-2.3091,-2.3091,-2.3256,-2.38,-2.4414,-2.541,-2.7035,-2.7723,-2.8557,-2.9702,-2.9792,-2.9792,-2.9792,-2.9792,-2.9792,-2.9792,-2.9792,-2.9792,-2.9792,-2.9792,-2.9792,-2.9792,-2.9792,-2.9792,-2.9792,-2.9792,-2.9792,0.0,0.0,-1.8929,-2.1609,-2.1395,-2.0956,0.0,0.0,0.0,0.0,0.0,0.0,0.0,0.0,0.0,0.0,0.0,0.0,0.0,0.0,0.0,0.0,0.0,0.0,0.0,0.0,0.0,0.0,0.0,0.0,-1.9579,-1.8642,-1.7451,-1.5825,-1.5784,-1.5784,-1.5784,-1.5784,-1.5784,-1.5784,-1.5784,-1.5784,-1.5784,-1.5784,-1.5784,-1.5784,-1.5784,-1.5784,-1.5784,-1.5784,-1.5784,-1.5784,-1.5784,-1.5784,-1.5784,-1.5784,-1.5784,-1.5784,-1.5784,-1.5784,-1.5784,-1.5784,-1.5784,-1.6244,-1.8764,-1.9497,-1.9988,-2.2413,-2.3091,-2.3091,-2.3091,-2.3091,-2.3091,-2.3091,-2.3091,-2.3091,-2.3091,-2.3091,-2.3091,-2.3091,-2.3091,-2.3091,-2.3091,-2.3091,-2.3091,-2.3091,-2.3091,-2.3222,-2.3507,-2.4253,-2.5336,-2.676,-2.7602,-2.8557,-2.9702,-2.9792,-2.9792,-2.9792,-2.9792,-2.9792,-2.9792,-2.9792,-2.9792,-2.9792,-2.9792,-2.9792,-2.9792,-2.9792,-2.9792,-2.9792,-2.9792,-2.9792,0.0,-1.7461,0.0,-1.9639,0.0,0.0,0.0,0.0,0.0,0.0,0.0,0.0,0.0,0.0,0.0,0.0,0.0,0.0,0.0,0.0,0.0,0.0,0.0,0.0,0.0,0.0,0.0,0.0,0.0,0.0,-1.9633,-1.9451,-1.8303,-1.5872,-1.5784,-1.5784,-1.5784,-1.5784,-1.5784,-1.5784,-1.5784,-1.5784,-1.5784,-1.5784,-1.5784,-1.5784,-1.5784,-1.5784,-1.5784,-1.5784,-1.5784,-1.5784,-1.5784,-1.5784,-1.5784,-1.5784,-1.5784,-1.5784,-1.5784,-1.5784,-1.5784,-1.5784,-1.5784,-1.6244,-1.8764,-1.9497,-1.9988,-2.2413,-2.3091,-2.3091,-2.3091,-2.3091,-2.3091,-2.3091,-2.3091,-2.3091,-2.3091,-2.3091,-2.3091,-2.3091,-2.3091,-2.3091,-2.3091,-2.3091,-2.3091,-2.3091,-2.3091,-2.3507,-2.4585,-2.4745,-2.5619,-2.7804,-2.8084,-2.8557,-2.9702,-2.9792,-2.9792,-2.9792,-2.9792,-2.9792,-2.9792,-2.9792,-2.9792,-2.9792,-2.9792,-2.9792,-2.9792,-2.9792,-2.9792,-2.9792,-2.9792,-2.9792,0.0,0.0,0.0,-1.9346,0.0,0.0,0.0,0.0,0.0,0.0,0.0,0.0,0.0,0.0,0.0,0.0,0.0,0.0,0.0,0.0,0.0,0.0,0.0,0.0,0.0,0.0,0.0,0.0,0.0,0.0,-2.0729,-2.0105,-1.8965,-1.707,-1.7037,-1.6622,-1.5832,-1.5784,-1.5784,-1.5784,-1.5784,-1.5784,-1.5784,-1.5784,-1.5784,-1.5784,-1.5784,-1.5784,-1.5784,-1.5784,-1.5784,-1.5784,-1.5784,-1.5784,-1.5784,-1.5784,-1.5784,-1.5784,-1.5784,-1.5784,-1.5784,-1.5784,-1.6339,-1.7311,-1.8993,-2.0034,-2.0989,-2.2633,-2.3091,-2.3091,-2.3091,-2.3091,-2.3091,-2.3091,-2.3091,-2.3091,-2.3091,-2.3091,-2.3091,-2.3091,-2.3091,-2.3091,-2.3091,-2.3091,-2.3091,-2.3091,-2.3091,-2.3266,-2.3681,-2.4339,-2.5368,-2.6912,-2.7683,-2.8557,-2.9702,-2.9792,-2.9792,-2.9792,-2.9792,-2.9792,-2.9792,-2.9792,-2.9792,-2.9792,-2.9792,-2.9792,-2.9792,-2.9792,-2.9792,-2.9792,-2.9792,-2.9792,-1.5835,0.0,0.0,0.0,0.0,0.0,0.0,0.0,0.0,0.0,0.0,0.0,0.0,0.0,0.0,0.0,0.0,0.0,0.0,0.0,0.0,0.0,0.0,0.0,0.0,0.0,0.0,0.0,0.0,0.0,-2.1355,-2.0753,-1.9613,-1.7762,-1.7271,-1.6669,-1.5832,-1.5784,-1.5784,-1.5784,-1.5784,-1.5784,-1.5784,-1.5784,-1.5784,-1.5784,-1.5784,-1.5784,-1.5784,-1.5784,-1.5784,-1.5784,-1.5784,-1.5784,-1.5784,-1.5784,-1.5784,-1.5784,-1.5784,-1.5784,-1.5872,-1.6292,-1.699,-1.8002,-1.9625,-2.0666,-2.1569,-2.2765,-2.3091,-2.3091,-2.3091,-2.3091,-2.3091,-2.3091,-2.3091,-2.3091,-2.3091,-2.3091,-2.3091,-2.3091,-2.3091,-2.3091,-2.3091,-2.3091,-2.3091,-2.3091,-2.3091,-2.3266,-2.3637,-2.467,-2.5797,-2.6924,-2.8028,-2.8976,-2.9753,-2.9792,-2.9792,-2.9792,-2.9792,-2.9792,-2.9792,-2.9792,-2.9792,-2.9792,-2.9792,-2.9792,-2.9792,-2.9792,-2.9792,-2.9792,-2.9792,-2.9792,0.0,0.0,0.0,0.0,0.0,0.0,0.0,0.0,0.0,0.0,0.0,0.0,0.0,0.0,0.0,0.0,0.0,0.0,0.0,0.0,0.0,0.0,0.0,0.0,0.0,0.0,0.0,0.0,0.0,-2.2561,-2.1426,-2.1293,-2.0169,-1.7824,-1.648,-1.5784,-1.5784,-1.5784,-1.5784,-1.5784,-1.5784,-1.5784,-1.5784,-1.5784,-1.5784,-1.5784,-1.5784,-1.5784,-1.5784,-1.5784,-1.5784,-1.5784,-1.5784,-1.5784,-1.5784,-1.5784,-1.5784,-1.5784,-1.5784,-1.5784,-1.6015,-1.7271,-1.7738,-1.8187,-2.0576,-2.1337,-2.1614,-2.2775,-2.3091,-2.3091,-2.3091,-2.3091,-2.3091,-2.3091,-2.3091,-2.3091,-2.3091,-2.3091,-2.3091,-2.3091,-2.3091,-2.3091,-2.3091,-2.3091,-2.3091,-2.3091,-2.3091,-2.3507,-2.466,-2.5808,-2.6924,-2.7976,-2.9106,-2.9792,-2.9792,-2.9792,-2.9792,-2.9792,-2.9792,-2.9792,-2.9792,-2.9792,-2.9792,-2.9792,-2.9792,-2.9792,-2.9792,-2.9792,-2.9792,-2.9792,-2.9792,-2.9792,-1.4615,0.0,0.0,0.0,0.0,0.0,0.0,0.0,0.0,0.0,0.0,0.0,0.0,0.0,0.0,0.0,0.0,0.0,0.0,0.0,0.0,0.0,0.0,0.0,0.0,0.0,0.0,0.0,0.0,-2.232,-2.2604,-2.0944,-1.967,-1.8993,-1.6929,-1.5784,-1.5784,-1.5784,-1.5784,-1.5784,-1.5784,-1.5784,-1.5784,-1.5784,-1.5784,-1.5784,-1.5784,-1.5784,-1.5784,-1.5784,-1.5784,-1.5784,-1.5784,-1.5784,-1.5784,-1.5784,-1.5784,-1.5784,-1.5784,-1.5784,-1.6015,-1.7271,-1.8272,-1.9268,-2.0845,-2.1889,-2.2677,-2.3003,-2.3091,-2.3091,-2.3091,-2.3091,-2.3091,-2.3091,-2.3091,-2.3091,-2.3091,-2.3091,-2.3091,-2.3091,-2.3091,-2.3091,-2.3091,-2.3091,-2.3091,-2.3091,-2.3091,-2.3507,-2.466,-2.5808,-2.6924,-2.7976,-2.9106,-2.9792,-2.9792,-2.9792,-2.9792,-2.9792,-2.9792,-2.9792,-2.9792,-2.9792,-2.9792,-2.9792,-2.9792,-2.9792,-2.9792,-2.9792,-2.9792,-2.9792,-2.9792,-2.9792,-1.5523,-1.5782,-1.6136,0.0,0.0,0.0,0.0,-1.8955,0.0,0.0,0.0,0.0,0.0,0.0,0.0,0.0,0.0,0.0,0.0,0.0,0.0,0.0,0.0,0.0,0.0,0.0,0.0,0.0,-2.2685,-2.2627,-2.3062,-2.0809,-1.9497,-1.9497,-1.707,-1.5784,-1.5784,-1.5784,-1.5784,-1.5784,-1.5784,-1.5784,-1.5784,-1.5784,-1.5784,-1.5784,-1.5784,-1.5784,-1.5784,-1.5784,-1.5784,-1.5784,-1.5784,-1.5784,-1.5784,-1.5784,-1.5784,-1.5784,-1.5784,-1.5784,-1.6103,-1.7855,-1.891,-1.9815,-2.1534,-2.2536,-2.3091,-2.3091,-2.3091,-2.3091,-2.3091,-2.3091,-2.3091,-2.3091,-2.3091,-2.3091,-2.3091,-2.3091,-2.3091,-2.3091,-2.3091,-2.3091,-2.3091,-2.3091,-2.3091,-2.3091,-2.3091,-2.3343,-2.4006,-2.5515,-2.6719,-2.7371,-2.887,-2.9792,-2.9792,-2.9792,-2.9792,-2.9792,-2.9792,-2.9792,-2.9792,-2.9792,-2.9792,-2.9792,-2.9792,-2.9792,-2.9792,-2.9792,-2.9792,-2.9792,-2.9792,-2.9792,-1.7398,-1.7251,-1.6819,0.0,0.0,0.0,-1.8008,-1.9189,0.0,0.0,0.0,0.0,0.0,0.0,0.0,0.0,0.0,0.0,0.0,0.0,0.0,0.0,0.0,0.0,0.0,0.0,0.0,-2.3091,-2.3091,-2.3047,-2.2916,-2.0719,-1.9451,-1.9314,-1.7023,-1.5784,-1.5784,-1.5784,-1.5784,-1.5784,-1.5784,-1.5784,-1.5784,-1.5784,-1.5784,-1.5784,-1.5784,-1.5784,-1.5784,-1.5784,-1.5784,-1.5784,-1.5784,-1.5784,-1.5784,-1.5784,-1.5784,-1.5784,-1.5784,-1.5784,-1.6197,-1.8672,-1.9497,-1.9951,-2.2369,-2.3091,-2.3091,-2.3091,-2.3091,-2.3091,-2.3091,-2.3091,-2.3091,-2.3091,-2.3091,-2.3091,-2.3091,-2.3091,-2.3091,-2.3091,-2.3091,-2.3091,-2.3091,-2.3091,-2.3091,-2.3091,-2.3091,-2.3135,-2.3256,-2.5062,-2.6389,-2.6637,-2.8462,-2.9663,-2.9792,-2.9792,-2.9792,-2.9792,-2.9792,-2.9792,-2.9792,-2.9792,-2.9792,-2.9792,-2.9792,-2.9792,-2.9792,-2.9792,-2.9792,-2.9792,-2.9792,-2.9792,0.0,0.0,0.0,0.0,0.0,0.0,-1.8008,-1.8271,0.0,0.0,0.0,0.0,0.0,0.0,0.0,0.0,0.0,0.0,0.0,0.0,0.0,0.0,0.0,0.0,0.0,0.0,-2.3091,-2.3091,-2.3091,-2.2677,-2.1702,-2.026,-1.9039,-1.8095,-1.6567,-1.5784,-1.5784,-1.5784,-1.5784,-1.5784,-1.5784,-1.5784,-1.5784,-1.5784,-1.5784,-1.5784,-1.5784,-1.5784,-1.5784,-1.5784,-1.5784,-1.5784,-1.5784,-1.5784,-1.5784,-1.5784,-1.5784,-1.5784,-1.5784,-1.5784,-1.6197,-1.8672,-1.9497,-1.9951,-2.2369,-2.3091,-2.3091,-2.3091,-2.3091,-2.3091,-2.3091,-2.3091,-2.3091,-2.3091,-2.3091,-2.3091,-2.3091,-2.3091,-2.3091,-2.3091,-2.3091,-2.3091,-2.3091,-2.3091,-2.3091,-2.3091,-2.3091,-2.343,-2.4339,-2.4872,-2.5828,-2.7602,-2.8176,-2.8806,-2.9702,-2.9792,-2.9792,-2.9792,-2.9792,-2.9792,-2.9792,-2.9792,-2.9792,-2.9792,-2.9792,-2.9792,-2.9792,-2.9792,-2.9792,-2.9792,-2.9792,-2.9792,0.0,0.0,0.0,-1.7862,0.0,0.0,0.0,-1.834,0.0,0.0,0.0,0.0,0.0,0.0,0.0,0.0,0.0,0.0,0.0,0.0,0.0,0.0,0.0,0.0,0.0,0.0,-2.3091,-2.3091,-2.3091,-2.2818,-2.2217,-2.1033,-1.9852,-1.8634,-1.7397,-1.6433,-1.5832,-1.5784,-1.5784,-1.5784,-1.5784,-1.5784,-1.5784,-1.5784,-1.5784,-1.5784,-1.5784,-1.5784,-1.5784,-1.5784,-1.5784,-1.5784,-1.5784,-1.5784,-1.5784,-1.5784,-1.5784,-1.5784,-1.5784,-1.6197,-1.703,-1.8902,-1.9898,-2.0755,-2.2545,-2.3091,-2.3091,-2.3091,-2.3091,-2.3091,-2.3091,-2.3091,-2.3091,-2.3091,-2.3091,-2.3091,-2.3091,-2.3091,-2.3091,-2.3091,-2.3091,-2.3091,-2.3091,-2.3091,-2.3091,-2.3091,-2.3091,-2.3299,-2.3877,-2.4925,-2.6088,-2.7197,-2.8279,-2.9197,-2.9753,-2.9792,-2.9792,-2.9792,-2.9792,-2.9792,-2.9792,-2.9792,-2.9792,-2.9792,-2.9792,-2.9792,-2.9792,-2.9792,-2.9792,-2.9792,-2.9792,-2.9792,0.0,0.0,0.0,0.0,0.0,-1.8008,0.0,0.0,0.0,0.0,0.0,0.0,0.0,0.0,0.0,0.0,0.0,0.0,0.0,0.0,0.0,0.0,0.0,0.0,0.0,0.0,-2.2916,-2.3081,-2.3091,-2.3003,-2.2775,-2.1845,-2.0621,-1.9177,-1.8187,-1.7084,-1.5825,-1.5784,-1.5784,-1.5784,-1.5784,-1.5784,-1.5784,-1.5784,-1.5784,-1.5784,-1.5784,-1.5784,-1.5784,-1.5784,-1.5784,-1.5784,-1.5784,-1.5784,-1.5784,-1.5784,-1.5967,-1.6157,-1.6157,-1.699,-1.8234,-1.9443,-2.0666,-2.1845,-2.2818,-2.3091,-2.3091,-2.3091,-2.3091,-2.3091,-2.3091,-2.3091,-2.3091,-2.3091,-2.3091,-2.3091,-2.3091,-2.3091,-2.3091,-2.3091,-2.3091,-2.3091,-2.3091,-2.3091,-2.3091,-2.3091,-2.3091,-2.3091,-2.3091,-2.4723,-2.6016,-2.6431,-2.8091,-2.9339,-2.9753,-2.9792,-2.9792,-2.9792,-2.9792,-2.9792,-2.9792,-2.9792,-2.9792,-2.9792,-2.9792,-2.9792,-2.9792,-2.9792,-2.9792,-2.9792,-2.9792,-2.9792,0.0,0.0,0.0,0.0,-1.8008,0.0,0.0,0.0,0.0,0.0,0.0,0.0,0.0,0.0,0.0,0.0,0.0,0.0,0.0,0.0,0.0,0.0,0.0,0.0,0.0,0.0,0.0,-2.3042,-2.3091,-2.2633,-2.1569,-2.1382,-2.026,-1.7963,-1.7777,-1.7084,-1.5825,-1.5784,-1.5784,-1.5784,-1.5784,-1.5784,-1.5784,-1.5784,-1.5784,-1.5784,-1.5784,-1.5784,-1.5784,-1.5784,-1.5784,-1.5784,-1.5784,-1.5784,-1.5784,-1.5784,-1.6527,-1.7505,-1.7505,-1.8272,-1.9488,-2.0711,-2.1889,-2.2906,-2.3047,-2.3091,-2.3091,-2.3091,-2.3091,-2.3091,-2.3091,-2.3091,-2.3091,-2.3091,-2.3091,-2.3091,-2.3091,-2.3091,-2.3091,-2.3091,-2.3091,-2.3091,-2.3091,-2.3091,-2.3091,-2.3091,-2.3091,-2.3091,-2.3091,-2.3353,-2.4274,-2.6265,-2.6719,-2.7678,-2.9624,-2.9792,-2.9792,-2.9792,-2.9792,-2.9792,-2.9792,-2.9792,-2.9792,-2.9792,-2.9792,-2.9792,-2.9792,-2.9792,-2.9792,-2.9792,-2.9792,-2.9792,0.0,0.0,0.0,0.0,0.0,0.0,-1.875,0.0,-1.8008,0.0,0.0,0.0,0.0,0.0,0.0,0.0,0.0,0.0,0.0,0.0,0.0,0.0,0.0,0.0,0.0,0.0,0.0,0.0,0.0,-2.219,-2.1693,-2.2095,-2.1221,-1.8818,-1.8726,-1.7809,-1.5825,-1.5784,-1.5784,-1.5784,-1.5784,-1.5784,-1.5784,-1.5784,-1.5784,-1.5784,-1.5784,-1.5784,-1.5784,-1.5784,-1.5784,-1.5784,-1.5784,-1.5784,-1.5784,-1.5784,-1.6622,-1.7692,-1.7692,-1.8956,-2.0755,-2.1943,-2.2677,-2.3091,-2.3091,-2.3091,-2.3091,-2.3091,-2.3091,-2.3091,-2.3091,-2.3091,-2.3091,-2.3091,-2.3091,-2.3091,-2.3091,-2.3091,-2.3091,-2.3091,-2.3091,-2.3091,-2.3091,-2.3091,-2.3091,-2.3091,-2.3091,-2.3091,-2.3091,-2.3671,-2.4713,-2.6348,-2.7046,-2.8068,-2.9663,-2.9792,-2.9792,-2.9792,-2.9792,-2.9792,-2.9792,-2.9792,-2.9792,-2.9792,-2.9792,-2.9792,-2.9792,-2.9792,-2.9792,-2.9792,-2.9792,-2.9792,-1.9463,0.0,0.0,0.0,0.0,0.0,0.0,0.0,0.0,0.0,0.0,0.0,0.0,0.0,0.0,0.0,0.0,0.0,0.0,0.0,0.0,0.0,0.0,0.0,0.0,0.0,0.0,0.0,-2.1572,0.0,-2.1709,-2.251,-2.1885,-1.9579,-1.9497,-1.8303,-1.5825,-1.5784,-1.5784,-1.5784,-1.5784,-1.5784,-1.5784,-1.5784,-1.5784,-1.5784,-1.5784,-1.5784,-1.5784,-1.5784,-1.5784,-1.5832,-1.6204,-1.6339,-1.6339,-1.6339,-1.7304,-1.8688,-1.8688,-2.0042,-2.1943,-2.2818,-2.3091,-2.3091,-2.3091,-2.3091,-2.3091,-2.3091,-2.3091,-2.3091,-2.3091,-2.3091,-2.3091,-2.3091,-2.3091,-2.3091,-2.3091,-2.3091,-2.3091,-2.3091,-2.3091,-2.3091,-2.3091,-2.3091,-2.3091,-2.3091,-2.3091,-2.3091,-2.3091,-2.3844,-2.4882,-2.6348,-2.7209,-2.8227,-2.9663,-2.9792,-2.9792,-2.9792,-2.9792,-2.9792,-2.9792,-2.9792,-2.9792,-2.9792,-2.9792,-2.9792,-2.9792,-2.9792,-2.9792,-2.9792,-2.9792,-2.9792,0.0,0.0,0.0,-1.9492,0.0,0.0,0.0,0.0,-1.8008,0.0,0.0,0.0,0.0,0.0,-1.7151,-1.6281,0.0,0.0,0.0,0.0,0.0,0.0,0.0,0.0,0.0,0.0,0.0,0.0,-2.0732,0.0,-2.122,-2.207,-2.1596,-1.9571,-1.9497,-1.8303,-1.5825,-1.5784,-1.5784,-1.5784,-1.5784,-1.5784,-1.5784,-1.5784,-1.5784,-1.5784,-1.5784,-1.5784,-1.5784,-1.5784,-1.5784,-1.592,-1.7178,-1.7645,-1.7645,-1.7645,-1.9131,-2.1159,-2.1159,-2.1987,-2.3047,-2.3101,-2.3091,-2.3091,-2.3091,-2.3091,-2.3091,-2.3091,-2.3091,-2.3091,-2.3091,-2.3091,-2.3091,-2.3091,-2.3091,-2.3091,-2.3091,-2.3091,-2.3091,-2.3091,-2.3091,-2.3091,-2.3091,-2.3091,-2.3091,-2.3091,-2.3091,-2.3091,-2.3091,-2.3135,-2.4016,-2.6265,-2.6524,-2.7424,-2.9624,-2.9792,-2.9792,-2.9792,-2.9792,-2.9792,-2.9792,-2.9792,-2.9792,-2.9792,-2.9792,-2.9792,-2.9792,-2.9792,-2.9792,-2.9792,-2.9792,-2.9792,0.0,0.0,-2.1407,-2.1074,0.0,0.0,0.0,0.0,0.0,0.0,0.0,0.0,0.0,0.0,-1.6758,-1.6193,-1.6445,-1.6599,0.0,0.0,0.0,0.0,0.0,0.0,0.0,0.0,0.0,-1.9453,-1.9775,0.0,0.0,-2.1035,-2.108,-1.9852,-1.9312,-1.8397,-1.7084,-1.6197,-1.5784,-1.5784,-1.5784,-1.5784,-1.5784,-1.5784,-1.5784,-1.5784,-1.5784,-1.6292,-1.7037,-1.7037,-1.7537,-1.8303,-1.8726,-1.936,-1.9988,-1.9177,-1.9898,-2.1426,-2.2208,-2.2765,-2.3091,-2.3091,-2.3091,-2.3091,-2.3091,-2.3091,-2.3091,-2.3091,-2.3091,-2.3091,-2.3091,-2.3091,-2.3091,-2.3091,-2.3091,-2.3091,-2.3091,-2.3091,-2.3091,-2.3091,-2.3091,-2.3091,-2.3091,-2.3091,-2.3091,-2.3091,-2.3091,-2.3091,-2.3091,-2.3091,-2.3681,-2.521,-2.6058,-2.7087,-2.8557,-2.9365,-2.9792,-2.9792,-2.9792,-2.9792,-2.9792,-2.9792,-2.9792,-2.9792,-2.9792,-2.9792,-2.9792,-2.9792,-2.9792,-2.9792,-2.9792,-2.9792,-2.2178,-2.2334,0.0,0.0,-2.1496,0.0,-2.0674,0.0,0.0,0.0,0.0,0.0,0.0,0.0,-1.6943,-1.6222,-1.6445,-1.6599,0.0,-1.6807,0.0,0.0,0.0,0.0,0.0,0.0,-1.8271,-1.8369,-1.8799,-1.9053,0.0,0.0,-2.06,-1.9811,-1.9566,-1.9023,-1.8095,-1.7019,-1.648,-1.648,-1.6015,-1.5784,-1.5784,-1.5784,-1.5784,-1.5832,-1.6292,-1.6943,-1.7731,-1.8141,-1.8818,-1.9542,-1.9988,-2.0621,-2.1203,-2.0449,-2.0899,-2.2031,-2.2818,-2.3091,-2.3091,-2.3091,-2.3091,-2.3091,-2.3091,-2.3091,-2.3091,-2.3091,-2.3091,-2.3091,-2.3091,-2.3091,-2.3091,-2.3091,-2.3091,-2.3091,-2.3091,-2.3091,-2.3091,-2.3091,-2.3091,-2.3091,-2.3091,-2.3091,-2.3091,-2.3091,-2.3091,-2.3091,-2.3091,-2.3464,-2.4063,-2.4975,-2.611,-2.7144,-2.8041,-2.8771,-2.9202,-2.9202,-2.9202,-2.9202,-2.9202,-2.9202,-2.9202,-2.9202,-2.9202,-2.9289,-2.9478,-2.9478,-2.9591,-2.9779,-2.9578,-2.9478]}]]